| time (UTC) | temp C | wind direction | speed KPH | gust KPH | rain 1hr cm | rain 24hr cm | rain mn cm | humidity % | barometer mb |
| 20260901231054 | 24 | 229 | 6.4 | 17.7 | 0.00 | 0.00 | 0.00 | 44 | 1013.8 |
| 20260901231039 | 24 | 259 | 6.4 | 17.7 | 0.00 | 0.00 | 0.00 | 45 | 1013.8 |
| 20260901230955 | 24 | 252 | 6.4 | 17.7 | 0.00 | 0.00 | 0.00 | 45 | 1013.8 |
| 20260901230854 | 24 | 280 | 6.4 | 17.7 | 0.00 | 0.00 | 0.00 | 45 | 1013.7 |
| 20260901230752 | 24 | 280 | 6.4 | 17.7 | 0.00 | 0.00 | 0.00 | 45 | 1013.8 |
| 20260901230652 | 24 | 280 | 6.4 | 17.7 | 0.00 | 0.00 | 0.00 | 44 | 1013.8 |
| 20260901230603 | 24 | 236 | 4.8 | 17.7 | 0.00 | 0.00 | 0.00 | 45 | 1013.8 |
| 20260901230553 | 24 | 291 | 4.8 | 17.7 | 0.00 | 0.00 | 0.00 | 44 | 1013.8 |
| 20260901230452 | 24 | 198 | 6.4 | 17.7 | 0.00 | 0.00 | 0.00 | 44 | 1013.8 |
| 20260901230352 | 24 | 236 | 4.8 | 17.7 | 0.00 | 0.00 | 0.00 | 45 | 1013.9 |
| 20260901230250 | 24 | 236 | 4.8 | 14.5 | 0.00 | 0.00 | 0.00 | 44 | 1013.9 |
| 20260901230151 | 24 | 207 | 4.8 | 14.5 | 0.00 | 0.00 | 0.00 | 44 | 1013.9 |
| 20260901230050 | 24 | 177 | 6.4 | 19.3 | 0.00 | 0.00 | 0.00 | 44 | 1013.9 |
| 20260901225950 | 24 | 229 | 6.4 | 19.3 | 0.00 | 0.00 | 0.00 | 44 | 1013.8 |
| 20260901225850 | 24 | 129 | 8.0 | 20.9 | 0.00 | 0.00 | 0.00 | 44 | 1013.9 |
| 20260901225751 | 24 | 160 | 8.0 | 20.9 | 0.00 | 0.00 | 0.00 | 45 | 1013.9 |
| 20260901225650 | 24 | 312 | 8.0 | 20.9 | 0.00 | 0.00 | 0.00 | 45 | 1013.9 |
| 20260901225550 | 24 | 30 | 8.0 | 20.9 | 0.00 | 0.00 | 0.00 | 45 | 1013.9 |
| 20260901225535 | 24 | 250 | 8.0 | 20.9 | 0.00 | 0.00 | 0.00 | 45 | 1013.9 |
| 20260901225448 | 24 | 233 | 8.0 | 20.9 | 0.00 | 0.00 | 0.00 | 44 | 1013.9 |
| 20260901225348 | 24 | 143 | 8.0 | 20.9 | 0.00 | 0.00 | 0.00 | 45 | 1013.9 |
| 20260901225248 | 24 | 228 | 8.0 | 20.9 | 0.00 | 0.00 | 0.00 | 44 | 1013.9 |
| 20260901225148 | 24 | 273 | 8.0 | 20.9 | 0.00 | 0.00 | 0.00 | 43 | 1013.9 |
| 20260901225049 | 24 | 263 | 8.0 | 20.9 | 0.00 | 0.00 | 0.00 | 44 | 1013.9 |
| 20260901225036 | 24 | 226 | 8.0 | 20.9 | 0.00 | 0.00 | 0.00 | 44 | 1013.9 |
| 20260901224948 | 24 | 231 | 6.4 | 20.9 | 0.00 | 0.00 | 0.00 | 44 | 1013.9 |
| 20260901224842 | 24 | 243 | 6.4 | 20.9 | 0.00 | 0.00 | 0.00 | 44 | 1013.9 |
| 20260901224743 | 24 | 164 | 6.4 | 17.7 | 0.00 | 0.00 | 0.00 | 44 | 1013.8 |
| 20260901224643 | 24 | 112 | 6.4 | 17.7 | 0.00 | 0.00 | 0.00 | 43 | 1013.8 |
| 20260901224547 | 24 | 242 | 6.4 | 17.7 | 0.00 | 0.00 | 0.00 | 43 | 1013.9 |
| 20260901224537 | 24 | 229 | 6.4 | 17.7 | 0.00 | 0.00 | 0.00 | 43 | 1013.9 |
| 20260901224442 | 24 | 232 | 6.4 | 17.7 | 0.00 | 0.00 | 0.00 | 44 | 1013.8 |
| 20260901224341 | 24 | 161 | 4.8 | 16.1 | 0.00 | 0.00 | 0.00 | 44 | 1013.9 |
| 20260901224240 | 24 | 225 | 4.8 | 16.1 | 0.00 | 0.00 | 0.00 | 44 | 1013.9 |
| 20260901224138 | 24 | 245 | 4.8 | 16.1 | 0.00 | 0.00 | 0.00 | 44 | 1013.9 |
| 20260901224041 | 24 | 242 | 4.8 | 16.1 | 0.00 | 0.00 | 0.00 | 43 | 1014.0 |
| 20260901223936 | 24 | 266 | 4.8 | 17.7 | 0.00 | 0.00 | 0.00 | 44 | 1014.0 |
| 20260901223830 | 24 | 250 | 4.8 | 17.7 | 0.00 | 0.00 | 0.00 | 44 | 1013.9 |
| 20260901223731 | 24 | 260 | 4.8 | 17.7 | 0.00 | 0.00 | 0.00 | 44 | 1014.0 |
| 20260901223631 | 24 | 259 | 4.8 | 17.7 | 0.00 | 0.00 | 0.00 | 44 | 1014.0 |
| 20260901223540 | 24 | 291 | 4.8 | 17.7 | 0.00 | 0.00 | 0.00 | 45 | 1014.0 |
| 20260901223534 | 24 | 228 | 4.8 | 17.7 | 0.00 | 0.00 | 0.00 | 45 | 1014.0 |
| 20260901223430 | 24 | 300 | 4.8 | 17.7 | 0.00 | 0.00 | 0.00 | 45 | 1014.0 |
| 20260901223325 | 24 | 304 | 6.4 | 17.7 | 0.00 | 0.00 | 0.00 | 45 | 1014.0 |
| 20260901223225 | 24 | 225 | 6.4 | 17.7 | 0.00 | 0.00 | 0.00 | 44 | 1014.0 |
| 20260901223124 | 24 | 228 | 6.4 | 17.7 | 0.00 | 0.00 | 0.00 | 44 | 1014.0 |
| 20260901223034 | 24 | 225 | 8.0 | 22.5 | 0.00 | 0.00 | 0.00 | 45 | 1014.0 |
| 20260901223025 | 24 | 239 | 8.0 | 22.5 | 0.00 | 0.00 | 0.00 | 45 | 1014.0 |
| 20260901222924 | 24 | 242 | 9.7 | 22.5 | 0.00 | 0.00 | 0.00 | 44 | 1014.1 |
| 20260901222819 | 24 | 236 | 9.7 | 22.5 | 0.00 | 0.00 | 0.00 | 44 | 1014.0 |
| 20260901222718 | 24 | 240 | 9.7 | 22.5 | 0.00 | 0.00 | 0.00 | 44 | 1014.0 |
| 20260901222618 | 24 | 229 | 8.0 | 22.5 | 0.00 | 0.00 | 0.00 | 44 | 1014.1 |
| 20260901222535 | 24 | 138 | 8.0 | 22.5 | 0.00 | 0.00 | 0.00 | 44 | 1014.1 |
| 20260901222518 | 24 | 207 | 8.0 | 22.5 | 0.00 | 0.00 | 0.00 | 45 | 1014.1 |
| 20260901222418 | 24 | 198 | 8.0 | 22.5 | 0.00 | 0.00 | 0.00 | 44 | 1014.1 |
| 20260901222312 | 24 | 250 | 6.4 | 22.5 | 0.00 | 0.00 | 0.00 | 44 | 1014.1 |
| 20260901222212 | 24 | 279 | 6.4 | 22.5 | 0.00 | 0.00 | 0.00 | 44 | 1014.1 |
| 20260901222112 | 24 | 253 | 4.8 | 22.5 | 0.00 | 0.00 | 0.00 | 44 | 1014.1 |
| 20260901222033 | 24 | 208 | 4.8 | 17.7 | 0.00 | 0.00 | 0.00 | 44 | 1014.1 |
| 20260901222012 | 24 | 128 | 4.8 | 17.7 | 0.00 | 0.00 | 0.00 | 44 | 1014.1 |
| 20260901221912 | 24 | 250 | 3.2 | 17.7 | 0.00 | 0.00 | 0.00 | 45 | 1014.1 |
| 20260901221811 | 24 | 314 | 3.2 | 14.5 | 0.00 | 0.00 | 0.00 | 45 | 1014.1 |
| 20260901221710 | 24 | 328 | 3.2 | 14.5 | 0.00 | 0.00 | 0.00 | 45 | 1014.2 |
| 20260901221611 | 24 | 358 | 3.2 | 14.5 | 0.00 | 0.00 | 0.00 | 45 | 1014.2 |
| 20260901221535 | 24 | 326 | 3.2 | 14.5 | 0.00 | 0.00 | 0.00 | 45 | 1014.2 |
| 20260901221509 | 24 | 236 | 3.2 | 14.5 | 0.00 | 0.00 | 0.00 | 45 | 1014.3 |
| 20260901221406 | 24 | 286 | 3.2 | 14.5 | 0.00 | 0.00 | 0.00 | 45 | 1014.3 |
| 20260901221304 | 24 | 267 | 3.2 | 20.9 | 0.00 | 0.00 | 0.00 | 44 | 1014.3 |
| 20260901221300 | 24 | 242 | 3.2 | 17.7 | 0.00 | 0.00 | 0.00 | 45 | 1014.3 |
| 20260901221200 | 24 | 239 | 3.2 | 20.9 | 0.00 | 0.00 | 0.00 | 44 | 1014.3 |
| 20260901221143 | 24 | 165 | 3.2 | 20.9 | 0.00 | 0.00 | 0.00 | 44 | 1014.3 |
| 20260901221000 | 24 | 252 | 3.2 | 20.9 | 0.00 | 0.00 | 0.00 | 45 | 1014.4 |
| 20260901220900 | 24 | 151 | 3.2 | 20.9 | 0.00 | 0.00 | 0.00 | 44 | 1014.3 |
| 20260901220754 | 24 | 211 | 4.8 | 20.9 | 0.00 | 0.00 | 0.00 | 45 | 1014.4 |
| 20260901220654 | 24 | 307 | 4.8 | 20.9 | 0.00 | 0.00 | 0.00 | 45 | 1014.3 |
| 20260901220554 | 24 | 308 | 4.8 | 20.9 | 0.00 | 0.00 | 0.00 | 45 | 1014.4 |
| 20260901220534 | 24 | 307 | 4.8 | 20.9 | 0.00 | 0.00 | 0.00 | 45 | 1014.4 |
| 20260901220454 | 24 | 287 | 4.8 | 20.9 | 0.00 | 0.00 | 0.00 | 44 | 1014.5 |
| 20260901220356 | 24 | 259 | 4.8 | 20.9 | 0.00 | 0.00 | 0.00 | 44 | 1014.4 |
| 20260901220252 | 24 | 231 | 4.8 | 14.5 | 0.00 | 0.00 | 0.00 | 45 | 1014.4 |
| 20260901220243 | 24 | 203 | 4.8 | 14.5 | 0.00 | 0.00 | 0.00 | 46 | 1014.3 |
| 20260901220150 | 24 | 233 | 4.8 | 14.5 | 0.00 | 0.00 | 0.00 | 46 | 1014.3 |
| 20260901220136 | 24 | 270 | 4.8 | 14.5 | 0.00 | 0.00 | 0.00 | 46 | 1014.3 |
| 20260901215948 | 24 | 144 | 4.8 | 14.5 | 0.00 | 0.00 | 0.00 | 46 | 1014.4 |
| 20260901215846 | 24 | 238 | 4.8 | 16.1 | 0.00 | 0.00 | 0.00 | 46 | 1014.3 |
| 20260901215748 | 23 | 236 | 4.8 | 16.1 | 0.00 | 0.00 | 0.00 | 47 | 1014.3 |
| 20260901215742 | 24 | 197 | 4.8 | 16.1 | 0.00 | 0.00 | 0.00 | 47 | 1014.3 |
| 20260901215640 | 23 | 219 | 4.8 | 16.1 | 0.00 | 0.00 | 0.00 | 47 | 1014.3 |
| 20260901215630 | 23 | 233 | 4.8 | 16.1 | 0.00 | 0.00 | 0.00 | 47 | 1014.3 |
| 20260901215441 | 23 | 215 | 6.4 | 17.7 | 0.00 | 0.00 | 0.00 | 47 | 1014.3 |
| 20260901215340 | 23 | 230 | 6.4 | 22.5 | 0.00 | 0.00 | 0.00 | 47 | 1014.3 |
| 20260901215237 | 23 | 228 | 8.0 | 22.5 | 0.00 | 0.00 | 0.00 | 47 | 1014.4 |
| 20260901215136 | 23 | 153 | 8.0 | 22.5 | 0.00 | 0.00 | 0.00 | 46 | 1014.5 |
| 20260901215037 | 23 | 219 | 9.7 | 22.5 | 0.00 | 0.00 | 0.00 | 47 | 1014.4 |
| 20260901215013 | 23 | 231 | 9.7 | 22.5 | 0.00 | 0.00 | 0.00 | 46 | 1014.4 |
| 20260901214936 | 23 | 162 | 9.7 | 22.5 | 0.00 | 0.00 | 0.00 | 46 | 1014.4 |
| 20260901214833 | 23 | 259 | 8.0 | 22.5 | 0.00 | 0.00 | 0.00 | 45 | 1014.4 |
| 20260901214730 | 23 | 203 | 8.0 | 22.5 | 0.00 | 0.00 | 0.00 | 46 | 1014.5 |
| 20260901214629 | 23 | 242 | 6.4 | 22.5 | 0.00 | 0.00 | 0.00 | 46 | 1014.5 |
| 20260901214531 | 23 | 253 | 6.4 | 22.5 | 0.00 | 0.00 | 0.00 | 45 | 1014.5 |
| 20260901214508 | 24 | 238 | 4.8 | 22.5 | 0.00 | 0.00 | 0.00 | 45 | 1014.5 |
| 20260901214428 | 24 | 228 | 4.8 | 19.3 | 0.00 | 0.00 | 0.00 | 46 | 1014.5 |
| 20260901214329 | 24 | 193 | 4.8 | 19.3 | 0.00 | 0.00 | 0.00 | 46 | 1014.5 |
| 20260901214226 | 24 | 211 | 1.6 | 9.7 | 0.00 | 0.00 | 0.00 | 47 | 1014.4 |
| 20260901214222 | 24 | 225 | 3.2 | 19.3 | 0.00 | 0.00 | 0.00 | 46 | 1014.5 |
| 20260901214122 | 24 | 184 | 3.2 | 16.1 | 0.00 | 0.00 | 0.00 | 45 | 1014.5 |
| 20260901214113 | 24 | 229 | 1.6 | 9.7 | 0.00 | 0.00 | 0.00 | 46 | 1014.4 |
| 20260901213922 | 24 | 190 | 1.6 | 9.7 | 0.00 | 0.00 | 0.00 | 47 | 1014.4 |
| 20260901213716 | 24 | 259 | 3.2 | 11.3 | 0.00 | 0.00 | 0.00 | 46 | 1014.4 |
| 20260901213616 | 24 | 257 | 3.2 | 11.3 | 0.00 | 0.00 | 0.00 | 46 | 1014.5 |
| 20260901213517 | 24 | 257 | 3.2 | 12.9 | 0.00 | 0.00 | 0.00 | 47 | 1014.5 |
| 20260901213455 | 24 | 257 | 3.2 | 12.9 | 0.00 | 0.00 | 0.00 | 47 | 1014.5 |
| 20260901213416 | 24 | 259 | 3.2 | 17.7 | 0.00 | 0.00 | 0.00 | 47 | 1014.5 |
| 20260901213317 | 24 | 305 | 4.8 | 19.3 | 0.00 | 0.00 | 0.00 | 48 | 1014.5 |
| 20260901213210 | 24 | 338 | 4.8 | 19.3 | 0.00 | 0.00 | 0.00 | 47 | 1014.5 |
| 20260901213111 | 24 | 316 | 4.8 | 19.3 | 0.00 | 0.00 | 0.00 | 47 | 1014.5 |
| 20260901213011 | 23 | 232 | 4.8 | 19.3 | 0.00 | 0.00 | 0.00 | 47 | 1014.6 |
| 20260901212949 | 23 | 224 | 4.8 | 19.3 | 0.00 | 0.00 | 0.00 | 47 | 1014.6 |
| 20260901212910 | 23 | 238 | 4.8 | 19.3 | 0.00 | 0.00 | 0.00 | 49 | 1014.5 |
| 20260901212810 | 23 | 200 | 4.8 | 19.3 | 0.00 | 0.00 | 0.00 | 48 | 1014.5 |
| 20260901212714 | 23 | 252 | 4.8 | 19.3 | 0.00 | 0.00 | 0.00 | 46 | 1014.5 |
| 20260901212704 | 23 | 67 | 4.8 | 19.3 | 0.00 | 0.00 | 0.00 | 47 | 1014.4 |
| 20260901212604 | 23 | 249 | 6.4 | 19.3 | 0.00 | 0.00 | 0.00 | 47 | 1014.5 |
| 20260901212554 | 23 | 248 | 4.8 | 19.3 | 0.00 | 0.00 | 0.00 | 46 | 1014.5 |
| 20260901212404 | 23 | 225 | 4.8 | 17.7 | 0.00 | 0.00 | 0.00 | 47 | 1014.5 |
| 20260901212306 | 23 | 240 | 6.4 | 17.7 | 0.00 | 0.00 | 0.00 | 47 | 1014.5 |
| 20260901212158 | 23 | 266 | 6.4 | 17.7 | 0.00 | 0.00 | 0.00 | 47 | 1014.4 |
| 20260901212100 | 23 | 284 | 6.4 | 17.7 | 0.00 | 0.00 | 0.00 | 48 | 1014.5 |
| 20260901211958 | 23 | 284 | 6.4 | 17.7 | 0.00 | 0.00 | 0.00 | 49 | 1014.5 |
| 20260901211937 | 23 | 270 | 6.4 | 17.7 | 0.00 | 0.00 | 0.00 | 48 | 1014.5 |
| 20260901211859 | 23 | 97 | 6.4 | 17.7 | 0.00 | 0.00 | 0.00 | 48 | 1014.4 |
| 20260901211758 | 23 | 165 | 6.4 | 17.7 | 0.00 | 0.00 | 0.00 | 48 | 1014.4 |
| 20260901211652 | 23 | 159 | 6.4 | 17.7 | 0.00 | 0.00 | 0.00 | 48 | 1014.4 |
| 20260901211552 | 23 | 203 | 6.4 | 17.7 | 0.00 | 0.00 | 0.00 | 48 | 1014.4 |
| 20260901211452 | 23 | 219 | 8.0 | 17.7 | 0.00 | 0.00 | 0.00 | 48 | 1014.5 |
| 20260901211431 | 23 | 217 | 8.0 | 17.7 | 0.00 | 0.00 | 0.00 | 48 | 1014.5 |
| 20260901211352 | 23 | 231 | 8.0 | 17.7 | 0.00 | 0.00 | 0.00 | 48 | 1014.5 |
| 20260901211252 | 23 | 218 | 8.0 | 17.7 | 0.00 | 0.00 | 0.00 | 49 | 1014.5 |
| 20260901211149 | 23 | 136 | 8.0 | 17.7 | 0.00 | 0.00 | 0.00 | 48 | 1014.5 |
| 20260901211048 | 23 | 219 | 6.4 | 17.7 | 0.00 | 0.00 | 0.00 | 48 | 1014.5 |
| 20260901210947 | 23 | 199 | 6.4 | 17.7 | 0.00 | 0.00 | 0.00 | 49 | 1014.5 |
| 20260901210925 | 23 | 198 | 6.4 | 17.7 | 0.00 | 0.00 | 0.00 | 49 | 1014.5 |
| 20260901210846 | 23 | 215 | 6.4 | 17.7 | 0.00 | 0.00 | 0.00 | 49 | 1014.6 |
| 20260901210746 | 23 | 232 | 6.4 | 17.7 | 0.00 | 0.00 | 0.00 | 48 | 1014.5 |
| 20260901210640 | 23 | 288 | 4.8 | 17.7 | 0.00 | 0.00 | 0.00 | 48 | 1014.5 |
| 20260901210541 | 23 | 245 | 4.8 | 17.7 | 0.00 | 0.00 | 0.00 | 47 | 1014.6 |
| 20260901210440 | 24 | 281 | 4.8 | 17.7 | 0.00 | 0.00 | 0.00 | 47 | 1014.6 |
| 20260901210419 | 24 | 242 | 4.8 | 17.7 | 0.00 | 0.00 | 0.00 | 48 | 1014.6 |
| 20260901210341 | 24 | 239 | 4.8 | 17.7 | 0.00 | 0.00 | 0.00 | 48 | 1014.6 |
| 20260901210240 | 24 | 246 | 4.8 | 17.7 | 0.00 | 0.00 | 0.00 | 49 | 1014.5 |
| 20260901210142 | 23 | 221 | 6.4 | 17.7 | 0.00 | 0.00 | 0.00 | 48 | 1014.5 |
| 20260901210138 | 23 | 215 | 4.8 | 17.7 | 0.00 | 0.00 | 0.00 | 49 | 1014.5 |
| 20260901210038 | 23 | 233 | 4.8 | 17.7 | 0.00 | 0.00 | 0.00 | 48 | 1014.5 |
| 20260901210024 | 23 | 232 | 6.4 | 17.7 | 0.00 | 0.00 | 0.00 | 48 | 1014.6 |
| 20260901205836 | 23 | 281 | 6.4 | 17.7 | 0.00 | 0.00 | 0.00 | 48 | 1014.5 |
| 20260901205734 | 23 | 120 | 6.4 | 17.7 | 0.00 | 0.00 | 0.00 | 48 | 1014.6 |
| 20260901205628 | 23 | 129 | 6.4 | 17.7 | 0.00 | 0.00 | 0.00 | 48 | 1014.6 |
| 20260901205532 | 23 | 171 | 6.4 | 17.7 | 0.00 | 0.00 | 0.00 | 49 | 1014.6 |
| 20260901205428 | 23 | 208 | 6.4 | 17.7 | 0.00 | 0.00 | 0.00 | 48 | 1014.7 |
| 20260901205407 | 23 | 201 | 4.8 | 17.7 | 0.00 | 0.00 | 0.00 | 49 | 1014.7 |
| 20260901205328 | 23 | 243 | 4.8 | 17.7 | 0.00 | 0.00 | 0.00 | 49 | 1014.7 |
| 20260901205229 | 23 | 99 | 4.8 | 17.7 | 0.00 | 0.00 | 0.00 | 48 | 1014.8 |
| 20260901205123 | 23 | 238 | 6.4 | 17.7 | 0.00 | 0.00 | 0.00 | 48 | 1014.7 |
| 20260901205023 | 23 | 235 | 6.4 | 17.7 | 0.00 | 0.00 | 0.00 | 49 | 1014.8 |
| 20260901204923 | 23 | 231 | 4.8 | 17.7 | 0.00 | 0.00 | 0.00 | 51 | 1014.8 |
| 20260901204901 | 23 | 240 | 4.8 | 17.7 | 0.00 | 0.00 | 0.00 | 51 | 1014.8 |
| 20260901204823 | 23 | 153 | 4.8 | 17.7 | 0.00 | 0.00 | 0.00 | 51 | 1014.8 |
| 20260901204723 | 22 | 187 | 6.4 | 17.7 | 0.00 | 0.00 | 0.00 | 51 | 1014.8 |
| 20260901204619 | 22 | 129 | 6.4 | 17.7 | 0.00 | 0.00 | 0.00 | 51 | 1014.8 |
| 20260901204516 | 22 | 252 | 6.4 | 17.7 | 0.00 | 0.00 | 0.00 | 50 | 1014.8 |
| 20260901204416 | 23 | 211 | 6.4 | 17.7 | 0.00 | 0.00 | 0.00 | 50 | 1014.9 |
| 20260901204357 | 23 | 246 | 6.4 | 17.7 | 0.00 | 0.00 | 0.00 | 50 | 1014.9 |
| 20260901204316 | 23 | 301 | 6.4 | 17.7 | 0.00 | 0.00 | 0.00 | 50 | 1014.9 |
| 20260901204216 | 23 | 212 | 4.8 | 17.7 | 0.00 | 0.00 | 0.00 | 50 | 1014.9 |
| 20260901204116 | 22 | 200 | 4.8 | 20.9 | 0.00 | 0.00 | 0.00 | 52 | 1014.9 |
| 20260901204111 | 23 | 177 | 4.8 | 16.1 | 0.00 | 0.00 | 0.00 | 51 | 1014.9 |
| 20260901204010 | 23 | 153 | 4.8 | 16.1 | 0.00 | 0.00 | 0.00 | 52 | 1014.9 |
| 20260901204000 | 22 | 238 | 4.8 | 20.9 | 0.00 | 0.00 | 0.00 | 52 | 1014.9 |
| 20260901203811 | 22 | 191 | 4.8 | 20.9 | 0.00 | 0.00 | 0.00 | 52 | 1014.9 |
| 20260901203710 | 22 | 173 | 3.2 | 20.9 | 0.00 | 0.00 | 0.00 | 51 | 1014.9 |
| 20260901203609 | 22 | 245 | 3.2 | 20.9 | 0.00 | 0.00 | 0.00 | 52 | 1014.9 |
| 20260901203509 | 22 | 276 | 3.2 | 20.9 | 0.00 | 0.00 | 0.00 | 52 | 1014.9 |
| 20260901203409 | 22 | 226 | 3.2 | 20.9 | 0.00 | 0.00 | 0.00 | 52 | 1014.9 |
| 20260901203347 | 22 | 222 | 3.2 | 20.9 | 0.00 | 0.00 | 0.00 | 52 | 1014.9 |
| 20260901203307 | 22 | 243 | 3.2 | 20.9 | 0.00 | 0.00 | 0.00 | 52 | 1014.9 |
| 20260901203205 | 22 | 153 | 3.2 | 20.9 | 0.00 | 0.00 | 0.00 | 53 | 1015.0 |
| 20260901203107 | 22 | 221 | 3.2 | 14.5 | 0.00 | 0.00 | 0.00 | 52 | 1015.0 |
| 20260901203102 | 22 | 231 | 3.2 | 20.9 | 0.00 | 0.00 | 0.00 | 52 | 1014.9 |
| 20260901202959 | 22 | 136 | 3.2 | 20.9 | 0.00 | 0.00 | 0.00 | 52 | 1015.0 |
| 20260901202948 | 22 | 208 | 3.2 | 19.3 | 0.00 | 0.00 | 0.00 | 52 | 1015.0 |
| 20260901202758 | 22 | 217 | 3.2 | 17.7 | 0.00 | 0.00 | 0.00 | 53 | 1014.9 |
| 20260901202658 | 22 | 241 | 4.8 | 19.3 | 0.00 | 0.00 | 0.00 | 52 | 1014.9 |
| 20260901202555 | 22 | 246 | 4.8 | 19.3 | 0.00 | 0.00 | 0.00 | 52 | 1014.9 |
| 20260901202452 | 22 | 243 | 4.8 | 19.3 | 0.00 | 0.00 | 0.00 | 52 | 1014.9 |
| 20260901202352 | 22 | 260 | 4.8 | 19.3 | 0.00 | 0.00 | 0.00 | 53 | 1014.9 |
| 20260901202332 | 22 | 257 | 4.8 | 19.3 | 0.00 | 0.00 | 0.00 | 53 | 1014.9 |
| 20260901202253 | 22 | 228 | 6.4 | 19.3 | 0.00 | 0.00 | 0.00 | 53 | 1014.9 |
| 20260901202152 | 22 | 267 | 6.4 | 19.3 | 0.00 | 0.00 | 0.00 | 53 | 1015.0 |
| 20260901202047 | 22 | 245 | 6.4 | 19.3 | 0.00 | 0.00 | 0.00 | 52 | 1014.9 |
| 20260901201947 | 22 | 239 | 6.4 | 19.3 | 0.00 | 0.00 | 0.00 | 52 | 1015.0 |
| 20260901201847 | 22 | 271 | 6.4 | 19.3 | 0.00 | 0.00 | 0.00 | 51 | 1015.0 |
| 20260901201825 | 22 | 239 | 6.4 | 19.3 | 0.00 | 0.00 | 0.00 | 51 | 1015.0 |
| 20260901201746 | 22 | 252 | 6.4 | 16.1 | 0.00 | 0.00 | 0.00 | 52 | 1015.1 |
| 20260901201646 | 22 | 252 | 6.4 | 16.1 | 0.00 | 0.00 | 0.00 | 52 | 1015.1 |
| 20260901201546 | 23 | 216 | 6.4 | 16.1 | 0.00 | 0.00 | 0.00 | 51 | 1015.0 |
| 20260901201542 | 22 | 160 | 6.4 | 16.1 | 0.00 | 0.00 | 0.00 | 52 | 1015.0 |
| 20260901201442 | 23 | 205 | 6.4 | 16.1 | 0.00 | 0.00 | 0.00 | 52 | 1015.1 |
| 20260901201433 | 23 | 229 | 6.4 | 16.1 | 0.00 | 0.00 | 0.00 | 51 | 1015.0 |
| 20260901201240 | 23 | 243 | 4.8 | 16.1 | 0.00 | 0.00 | 0.00 | 51 | 1015.1 |
| 20260901201140 | 23 | 193 | 4.8 | 14.5 | 0.00 | 0.00 | 0.00 | 52 | 1015.1 |
| 20260901201037 | 23 | 233 | 4.8 | 14.5 | 0.00 | 0.00 | 0.00 | 52 | 1015.1 |
| 20260901200934 | 23 | 243 | 4.8 | 14.5 | 0.00 | 0.00 | 0.00 | 52 | 1015.1 |
| 20260901200834 | 23 | 291 | 4.8 | 14.5 | 0.00 | 0.00 | 0.00 | 52 | 1015.1 |
| 20260901200814 | 23 | 242 | 3.2 | 14.5 | 0.00 | 0.00 | 0.00 | 52 | 1015.2 |
| 20260901200735 | 23 | 238 | 3.2 | 14.5 | 0.00 | 0.00 | 0.00 | 52 | 1015.2 |
| 20260901200634 | 23 | 228 | 3.2 | 14.5 | 0.00 | 0.00 | 0.00 | 51 | 1015.2 |
| 20260901200534 | 23 | 307 | 3.2 | 14.5 | 0.00 | 0.00 | 0.00 | 51 | 1015.1 |
| 20260901200428 | 23 | 239 | 3.2 | 14.5 | 0.00 | 0.00 | 0.00 | 52 | 1015.2 |
| 20260901200328 | 23 | 236 | 3.2 | 14.5 | 0.00 | 0.00 | 0.00 | 52 | 1015.2 |
| 20260901200307 | 23 | 243 | 3.2 | 14.5 | 0.00 | 0.00 | 0.00 | 52 | 1015.2 |
| 20260901200229 | 23 | 204 | 3.2 | 12.9 | 0.00 | 0.00 | 0.00 | 53 | 1015.2 |
| 20260901200128 | 23 | 210 | 3.2 | 14.5 | 0.00 | 0.00 | 0.00 | 54 | 1015.2 |
| 20260901200032 | 22 | 208 | 3.2 | 14.5 | 0.00 | 0.00 | 0.00 | 54 | 1015.1 |
| 20260901195926 | 22 | 239 | 4.8 | 14.5 | 0.00 | 0.00 | 0.00 | 53 | 1015.1 |
| 20260901195826 | 22 | 239 | 4.8 | 14.5 | 0.00 | 0.00 | 0.00 | 54 | 1015.2 |
| 20260901195801 | 22 | 238 | 4.8 | 14.5 | 0.00 | 0.00 | 0.00 | 54 | 1015.1 |
| 20260901195725 | 22 | 239 | 4.8 | 14.5 | 0.00 | 0.00 | 0.00 | 54 | 1015.1 |
| 20260901195623 | 22 | 239 | 6.4 | 14.5 | 0.00 | 0.00 | 0.00 | 54 | 1015.2 |
| 20260901195516 | 22 | 242 | 6.4 | 14.5 | 0.00 | 0.00 | 0.00 | 54 | 1015.2 |
| 20260901195416 | 22 | 217 | 6.4 | 14.5 | 0.00 | 0.00 | 0.00 | 52 | 1015.2 |
| 20260901195316 | 22 | 229 | 6.4 | 14.5 | 0.00 | 0.00 | 0.00 | 52 | 1015.3 |
| 20260901195255 | 23 | 214 | 4.8 | 14.5 | 0.00 | 0.00 | 0.00 | 52 | 1015.3 |
| 20260901195217 | 23 | 166 | 4.8 | 14.5 | 0.00 | 0.00 | 0.00 | 52 | 1015.3 |
| 20260901195117 | 23 | 224 | 3.2 | 14.5 | 0.00 | 0.00 | 0.00 | 53 | 1015.3 |
| 20260901195017 | 22 | 234 | 3.2 | 14.5 | 0.00 | 0.00 | 0.00 | 54 | 1015.3 |
| 20260901194915 | 22 | 236 | 3.2 | 14.5 | 0.00 | 0.00 | 0.00 | 54 | 1015.3 |
| 20260901194815 | 22 | 233 | 3.2 | 14.5 | 0.00 | 0.00 | 0.00 | 54 | 1015.3 |
| 20260901194749 | 22 | 198 | 4.8 | 14.5 | 0.00 | 0.00 | 0.00 | 54 | 1015.3 |
| 20260901194729 | 22 | 226 | 6.4 | 17.7 | 0.00 | 0.00 | 0.00 | 57 | 1015.3 |
| 20260901194714 | 22 | 222 | 4.8 | 16.1 | 0.00 | 0.00 | 0.00 | 54 | 1015.3 |
| 20260901194621 | 22 | 217 | 4.8 | 16.1 | 0.00 | 0.00 | 0.00 | 54 | 1015.3 |
| 20260901194507 | 22 | 224 | 4.8 | 16.1 | 0.00 | 0.00 | 0.00 | 54 | 1015.2 |
| 20260901194406 | 22 | 201 | 6.4 | 16.1 | 0.00 | 0.00 | 0.00 | 57 | 1015.3 |
| 20260901194354 | 22 | 201 | 6.4 | 16.1 | 0.00 | 0.00 | 0.00 | 57 | 1015.3 |
| 20260901194205 | 22 | 238 | 8.0 | 20.9 | 0.00 | 0.00 | 0.00 | 56 | 1015.3 |
| 20260901194105 | 22 | 238 | 8.0 | 20.9 | 0.00 | 0.00 | 0.00 | 56 | 1015.3 |
| 20260901193958 | 22 | 239 | 8.0 | 20.9 | 0.00 | 0.00 | 0.00 | 55 | 1015.4 |
| 20260901193858 | 22 | 238 | 6.4 | 20.9 | 0.00 | 0.00 | 0.00 | 55 | 1015.4 |
| 20260901193758 | 22 | 219 | 6.4 | 20.9 | 0.00 | 0.00 | 0.00 | 55 | 1015.4 |
| 20260901193738 | 22 | 224 | 6.4 | 20.9 | 0.00 | 0.00 | 0.00 | 55 | 1015.4 |
| 20260901193659 | 22 | 246 | 6.4 | 20.9 | 0.00 | 0.00 | 0.00 | 55 | 1015.4 |
| 20260901193559 | 22 | 225 | 4.8 | 20.9 | 0.00 | 0.00 | 0.00 | 55 | 1015.4 |
| 20260901193456 | 22 | 242 | 4.8 | 20.9 | 0.00 | 0.00 | 0.00 | 55 | 1015.4 |
| 20260901193356 | 22 | 183 | 4.8 | 20.9 | 0.00 | 0.00 | 0.00 | 55 | 1015.4 |
| 20260901193256 | 22 | 233 | 3.2 | 20.9 | 0.00 | 0.00 | 0.00 | 55 | 1015.4 |
| 20260901193231 | 22 | 248 | 3.2 | 20.9 | 0.00 | 0.00 | 0.00 | 55 | 1015.4 |
| 20260901193154 | 22 | 255 | 3.2 | 11.3 | 0.00 | 0.00 | 0.00 | 57 | 1015.4 |
| 20260901193052 | 22 | 232 | 3.2 | 11.3 | 0.00 | 0.00 | 0.00 | 57 | 1015.4 |
| 20260901192951 | 22 | 221 | 3.2 | 9.7 | 0.00 | 0.00 | 0.00 | 58 | 1015.3 |
| 20260901192936 | 22 | 291 | 4.8 | 14.5 | 0.00 | 0.00 | 0.00 | 57 | 1015.5 |
| 20260901192850 | 22 | 252 | 3.2 | 11.3 | 0.00 | 0.00 | 0.00 | 57 | 1015.4 |
| 20260901192830 | 22 | 252 | 3.2 | 11.3 | 0.00 | 0.00 | 0.00 | 57 | 1015.5 |
| 20260901192819 | 22 | 245 | 3.2 | 12.9 | 0.00 | 0.00 | 0.00 | 57 | 1015.5 |
| 20260901192648 | 22 | 278 | 3.2 | 12.9 | 0.00 | 0.00 | 0.00 | 57 | 1015.4 |
| 20260901192555 | 22 | 238 | 3.2 | 12.9 | 0.00 | 0.00 | 0.00 | 57 | 1015.5 |
| 20260901192440 | 22 | 255 | 3.2 | 12.9 | 0.00 | 0.00 | 0.00 | 57 | 1015.5 |
| 20260901192344 | 22 | 226 | 4.8 | 14.5 | 0.00 | 0.00 | 0.00 | 57 | 1015.5 |
| 20260901192330 | 22 | 215 | 4.8 | 14.5 | 0.00 | 0.00 | 0.00 | 57 | 1015.4 |
| 20260901192141 | 22 | 291 | 4.8 | 14.5 | 0.00 | 0.00 | 0.00 | 57 | 1015.5 |
| 20260901192041 | 22 | 239 | 4.8 | 14.5 | 0.00 | 0.00 | 0.00 | 57 | 1015.5 |
| 20260901191941 | 22 | 243 | 4.8 | 14.5 | 0.00 | 0.00 | 0.00 | 57 | 1015.4 |
| 20260901191936 | 22 | 276 | 4.8 | 14.5 | 0.00 | 0.00 | 0.00 | 56 | 1015.5 |
| 20260901191837 | 22 | 203 | 4.8 | 14.5 | 0.00 | 0.00 | 0.00 | 57 | 1015.5 |
| 20260901191824 | 22 | 217 | 4.8 | 14.5 | 0.00 | 0.00 | 0.00 | 57 | 1015.5 |
| 20260901191637 | 22 | 243 | 4.8 | 14.5 | 0.00 | 0.00 | 0.00 | 57 | 1015.4 |
| 20260901191535 | 22 | 200 | 4.8 | 14.5 | 0.00 | 0.00 | 0.00 | 57 | 1015.5 |
| 20260901191428 | 22 | 233 | 3.2 | 14.5 | 0.00 | 0.00 | 0.00 | 57 | 1015.5 |
| 20260901191328 | 22 | 235 | 3.2 | 12.9 | 0.00 | 0.00 | 0.00 | 56 | 1015.5 |
| 20260901191228 | 22 | 222 | 3.2 | 12.9 | 0.00 | 0.00 | 0.00 | 57 | 1015.5 |
| 20260901191208 | 22 | 238 | 4.8 | 12.9 | 0.00 | 0.00 | 0.00 | 57 | 1015.5 |
| 20260901191128 | 22 | 275 | 4.8 | 17.7 | 0.00 | 0.00 | 0.00 | 57 | 1015.5 |
| 20260901191029 | 22 | 219 | 4.8 | 19.3 | 0.00 | 0.00 | 0.00 | 58 | 1015.5 |
| 20260901190930 | 21 | 225 | 4.8 | 19.3 | 0.00 | 0.00 | 0.00 | 58 | 1015.5 |
| 20260901190924 | 22 | 240 | 4.8 | 19.3 | 0.00 | 0.00 | 0.00 | 58 | 1015.5 |
| 20260901190825 | 22 | 290 | 4.8 | 19.3 | 0.00 | 0.00 | 0.00 | 58 | 1015.5 |
| 20260901190811 | 21 | 307 | 4.8 | 19.3 | 0.00 | 0.00 | 0.00 | 58 | 1015.5 |
| 20260901190622 | 21 | 225 | 4.8 | 19.3 | 0.00 | 0.00 | 0.00 | 59 | 1015.5 |
| 20260901190522 | 21 | 257 | 6.4 | 19.3 | 0.00 | 0.00 | 0.00 | 59 | 1015.5 |
| 20260901190427 | 21 | 230 | 6.4 | 19.3 | 0.00 | 0.00 | 0.00 | 59 | 1015.6 |
| 20260901190317 | 21 | 248 | 6.4 | 19.3 | 0.00 | 0.00 | 0.00 | 58 | 1015.6 |
| 20260901190217 | 21 | 218 | 6.4 | 19.3 | 0.00 | 0.00 | 0.00 | 59 | 1015.6 |
| 20260901190156 | 21 | 215 | 4.8 | 19.3 | 0.00 | 0.00 | 0.00 | 59 | 1015.6 |
| 20260901190117 | 21 | 231 | 4.8 | 19.3 | 0.00 | 0.00 | 0.00 | 59 | 1015.6 |
| 20260901190016 | 21 | 282 | 4.8 | 19.3 | 0.00 | 0.00 | 0.00 | 59 | 1015.6 |
| 20260901185914 | 21 | 230 | 4.8 | 19.3 | 0.00 | 0.00 | 0.00 | 61 | 1015.6 |
| 20260901185814 | 21 | 210 | 4.8 | 19.3 | 0.00 | 0.00 | 0.00 | 61 | 1015.6 |
| 20260901185713 | 21 | 217 | 4.8 | 19.3 | 0.00 | 0.00 | 0.00 | 61 | 1015.6 |
| 20260901185650 | 21 | 239 | 4.8 | 19.3 | 0.00 | 0.00 | 0.00 | 61 | 1015.6 |
| 20260901185613 | 21 | 211 | 4.8 | 19.3 | 0.00 | 0.00 | 0.00 | 60 | 1015.6 |
| 20260901185511 | 21 | 172 | 4.8 | 16.1 | 0.00 | 0.00 | 0.00 | 61 | 1015.7 |
| 20260901185404 | 21 | 231 | 4.8 | 16.1 | 0.00 | 0.00 | 0.00 | 61 | 1015.7 |
| 20260901185306 | 21 | 238 | 4.8 | 14.5 | 0.00 | 0.00 | 0.00 | 61 | 1015.6 |
| 20260901185205 | 21 | 273 | 4.8 | 14.5 | 0.00 | 0.00 | 0.00 | 62 | 1015.7 |
| 20260901185143 | 21 | 233 | 4.8 | 14.5 | 0.00 | 0.00 | 0.00 | 62 | 1015.7 |
| 20260901185104 | 21 | 242 | 4.8 | 14.5 | 0.00 | 0.00 | 0.00 | 61 | 1015.7 |
| 20260901185006 | 21 | 239 | 4.8 | 14.5 | 0.00 | 0.00 | 0.00 | 61 | 1015.7 |
| 20260901184901 | 21 | 264 | 4.8 | 17.7 | 0.00 | 0.00 | 0.00 | 62 | 1015.7 |
| 20260901184800 | 20 | 222 | 4.8 | 17.7 | 0.00 | 0.00 | 0.00 | 62 | 1015.7 |
| 20260901184701 | 20 | 218 | 4.8 | 17.7 | 0.00 | 0.00 | 0.00 | 61 | 1015.7 |
| 20260901184638 | 20 | 219 | 4.8 | 17.7 | 0.00 | 0.00 | 0.00 | 61 | 1015.7 |
| 20260901184600 | 20 | 256 | 4.8 | 17.7 | 0.00 | 0.00 | 0.00 | 61 | 1015.7 |
| 20260901184459 | 20 | 248 | 4.8 | 17.7 | 0.00 | 0.00 | 0.00 | 61 | 1015.8 |
| 20260901184357 | 20 | 212 | 4.8 | 17.7 | 0.00 | 0.00 | 0.00 | 61 | 1015.8 |
| 20260901184256 | 20 | 229 | 4.8 | 17.7 | 0.00 | 0.00 | 0.00 | 61 | 1015.8 |
| 20260901184156 | 20 | 219 | 4.8 | 17.7 | 0.00 | 0.00 | 0.00 | 61 | 1015.8 |
| 20260901184131 | 20 | 236 | 4.8 | 17.7 | 0.00 | 0.00 | 0.00 | 61 | 1015.8 |
| 20260901184056 | 20 | 236 | 4.8 | 17.7 | 0.00 | 0.00 | 0.00 | 61 | 1015.8 |
| 20260901183952 | 20 | 242 | 4.8 | 17.7 | 0.00 | 0.00 | 0.00 | 61 | 1015.8 |
| 20260901183847 | 21 | 236 | 4.8 | 16.1 | 0.00 | 0.00 | 0.00 | 61 | 1015.8 |
| 20260901183747 | 21 | 229 | 4.8 | 16.1 | 0.00 | 0.00 | 0.00 | 61 | 1015.8 |
| 20260901183625 | 20 | 236 | 6.4 | 16.1 | 0.00 | 0.00 | 0.00 | 61 | 1015.8 |
| 20260901183546 | 21 | 236 | 6.4 | 16.1 | 0.00 | 0.00 | 0.00 | 60 | 1015.8 |
| 20260901183446 | 21 | 259 | 6.4 | 19.3 | 0.00 | 0.00 | 0.00 | 61 | 1015.8 |
| 20260901183342 | 21 | 245 | 6.4 | 19.3 | 0.00 | 0.00 | 0.00 | 60 | 1015.8 |
| 20260901183242 | 21 | 243 | 6.4 | 19.3 | 0.00 | 0.00 | 0.00 | 61 | 1015.7 |
| 20260901183143 | 21 | 235 | 4.8 | 19.3 | 0.00 | 0.00 | 0.00 | 61 | 1015.7 |
| 20260901183120 | 21 | 239 | 4.8 | 19.3 | 0.00 | 0.00 | 0.00 | 61 | 1015.7 |
| 20260901183042 | 21 | 245 | 6.4 | 19.3 | 0.00 | 0.00 | 0.00 | 60 | 1015.7 |
| 20260901182940 | 21 | 235 | 6.4 | 19.3 | 0.00 | 0.00 | 0.00 | 60 | 1015.7 |
| 20260901182835 | 21 | 222 | 6.4 | 19.3 | 0.00 | 0.00 | 0.00 | 60 | 1015.7 |
| 20260901182735 | 21 | 242 | 6.4 | 19.3 | 0.00 | 0.00 | 0.00 | 60 | 1015.8 |
| 20260901182635 | 21 | 267 | 4.8 | 19.3 | 0.00 | 0.00 | 0.00 | 60 | 1015.8 |
| 20260901182614 | 21 | 203 | 4.8 | 19.3 | 0.00 | 0.00 | 0.00 | 59 | 1015.8 |
| 20260901182536 | 21 | 236 | 4.8 | 19.3 | 0.00 | 0.00 | 0.00 | 59 | 1015.8 |
| 20260901182435 | 21 | 225 | 3.2 | 16.1 | 0.00 | 0.00 | 0.00 | 61 | 1015.8 |
| 20260901182331 | 21 | 256 | 3.2 | 16.1 | 0.00 | 0.00 | 0.00 | 61 | 1015.7 |
| 20260901182229 | 21 | 223 | 3.2 | 16.1 | 0.00 | 0.00 | 0.00 | 61 | 1015.7 |
| 20260901182129 | 21 | 253 | 3.2 | 16.1 | 0.00 | 0.00 | 0.00 | 61 | 1015.7 |
| 20260901182106 | 21 | 225 | 3.2 | 16.1 | 0.00 | 0.00 | 0.00 | 61 | 1015.7 |
| 20260901182030 | 21 | 226 | 3.2 | 12.9 | 0.00 | 0.00 | 0.00 | 61 | 1015.7 |
| 20260901181927 | 21 | 243 | 3.2 | 12.9 | 0.00 | 0.00 | 0.00 | 62 | 1015.7 |
| 20260901181824 | 21 | 235 | 1.6 | 12.9 | 0.00 | 0.00 | 0.00 | 62 | 1015.8 |
| 20260901181722 | 21 | 231 | 1.6 | 12.9 | 0.00 | 0.00 | 0.00 | 64 | 1015.8 |
| 20260901181622 | 20 | 250 | 3.2 | 12.9 | 0.00 | 0.00 | 0.00 | 64 | 1015.8 |
| 20260901181602 | 20 | 250 | 3.2 | 12.9 | 0.00 | 0.00 | 0.00 | 65 | 1015.8 |
| 20260901181523 | 20 | 250 | 3.2 | 12.9 | 0.00 | 0.00 | 0.00 | 65 | 1015.8 |
| 20260901181423 | 20 | 250 | 3.2 | 12.9 | 0.00 | 0.00 | 0.00 | 63 | 1015.8 |
| 20260901181321 | 20 | 248 | 6.4 | 17.7 | 0.00 | 0.00 | 0.00 | 64 | 1015.8 |
| 20260901181317 | 20 | 235 | 4.8 | 14.5 | 0.00 | 0.00 | 0.00 | 64 | 1015.8 |
| 20260901181217 | 20 | 208 | 4.8 | 17.7 | 0.00 | 0.00 | 0.00 | 64 | 1015.8 |
| 20260901181207 | 20 | 266 | 4.8 | 17.7 | 0.00 | 0.00 | 0.00 | 65 | 1015.8 |
| 20260901181017 | 20 | 231 | 6.4 | 17.7 | 0.00 | 0.00 | 0.00 | 64 | 1015.8 |
| 20260901180917 | 20 | 229 | 6.4 | 17.7 | 0.00 | 0.00 | 0.00 | 64 | 1015.7 |
| 20260901180812 | 20 | 230 | 6.4 | 17.7 | 0.00 | 0.00 | 0.00 | 64 | 1015.8 |
| 20260901180713 | 20 | 232 | 6.4 | 17.7 | 0.00 | 0.00 | 0.00 | 63 | 1015.8 |
| 20260901180613 | 20 | 245 | 6.4 | 17.7 | 0.00 | 0.00 | 0.00 | 63 | 1015.7 |
| 20260901180550 | 20 | 233 | 6.4 | 17.7 | 0.00 | 0.00 | 0.00 | 63 | 1015.7 |
| 20260901180513 | 20 | 230 | 6.4 | 17.7 | 0.00 | 0.00 | 0.00 | 63 | 1015.8 |
| 20260901180412 | 20 | 236 | 6.4 | 17.7 | 0.00 | 0.00 | 0.00 | 62 | 1015.7 |
| 20260901180312 | 20 | 245 | 6.4 | 17.7 | 0.00 | 0.00 | 0.00 | 63 | 1015.7 |
| 20260901180212 | 20 | 228 | 4.8 | 17.7 | 0.00 | 0.00 | 0.00 | 63 | 1015.7 |
| 20260901180112 | 20 | 225 | 4.8 | 17.7 | 0.00 | 0.00 | 0.00 | 63 | 1015.7 |
| 20260901180057 | 20 | 233 | 4.8 | 17.7 | 0.00 | 0.00 | 0.00 | 63 | 1015.7 |
| 20260901180012 | 20 | 205 | 4.8 | 17.7 | 0.00 | 0.00 | 0.00 | 63 | 1015.8 |
| 20260901175912 | 20 | 219 | 4.8 | 17.7 | 0.00 | 0.00 | 0.00 | 62 | 1015.7 |
| 20260901175813 | 20 | 287 | 4.8 | 17.7 | 0.00 | 0.00 | 0.00 | 62 | 1015.7 |
| 20260901175711 | 20 | 165 | 4.8 | 16.1 | 0.00 | 0.00 | 0.00 | 63 | 1015.7 |
| 20260901175610 | 20 | 214 | 4.8 | 14.5 | 0.00 | 0.00 | 0.00 | 63 | 1015.7 |
| 20260901175538 | 20 | 141 | 4.8 | 14.5 | 0.00 | 0.00 | 0.00 | 63 | 1015.7 |
| 20260901175510 | 20 | 238 | 4.8 | 14.5 | 0.00 | 0.00 | 0.00 | 63 | 1015.7 |
| 20260901175411 | 20 | 146 | 4.8 | 14.5 | 0.00 | 0.00 | 0.00 | 63 | 1015.7 |
| 20260901175311 | 20 | 212 | 3.2 | 9.7 | 0.00 | 0.00 | 0.00 | 64 | 1015.7 |
| 20260901175209 | 20 | 226 | 3.2 | 9.7 | 0.00 | 0.00 | 0.00 | 65 | 1015.7 |
| 20260901175108 | 20 | 193 | 4.8 | 9.7 | 0.00 | 0.00 | 0.00 | 65 | 1015.7 |
| 20260901175034 | 20 | 250 | 4.8 | 9.7 | 0.00 | 0.00 | 0.00 | 65 | 1015.7 |
| 20260901175009 | 20 | 250 | 4.8 | 9.7 | 0.00 | 0.00 | 0.00 | 64 | 1015.7 |
| 20260901174909 | 20 | 224 | 4.8 | 9.7 | 0.00 | 0.00 | 0.00 | 64 | 1015.7 |
| 20260901174808 | 20 | 219 | 4.8 | 17.7 | 0.00 | 0.00 | 0.00 | 64 | 1015.6 |
| 20260901174708 | 20 | 218 | 4.8 | 17.7 | 0.00 | 0.00 | 0.00 | 65 | 1015.6 |
| 20260901174604 | 20 | 217 | 6.4 | 17.7 | 0.00 | 0.00 | 0.00 | 64 | 1015.6 |
| 20260901174533 | 20 | 228 | 6.4 | 19.3 | 0.00 | 0.00 | 0.00 | 64 | 1015.6 |
| 20260901174504 | 20 | 150 | 6.4 | 19.3 | 0.00 | 0.00 | 0.00 | 64 | 1015.6 |
| 20260901174404 | 20 | 243 | 6.4 | 19.3 | 0.00 | 0.00 | 0.00 | 64 | 1015.6 |
| 20260901174305 | 20 | 233 | 6.4 | 19.3 | 0.00 | 0.00 | 0.00 | 65 | 1015.6 |
| 20260901174203 | 19 | 233 | 6.4 | 19.3 | 0.00 | 0.00 | 0.00 | 65 | 1015.6 |
| 20260901174057 | 19 | 219 | 6.4 | 19.3 | 0.00 | 0.00 | 0.00 | 65 | 1015.7 |
| 20260901174031 | 19 | 160 | 6.4 | 19.3 | 0.00 | 0.00 | 0.00 | 65 | 1015.7 |
| 20260901173957 | 20 | 231 | 8.0 | 19.3 | 0.00 | 0.00 | 0.00 | 64 | 1015.6 |
| 20260901173858 | 20 | 235 | 6.4 | 19.3 | 0.00 | 0.00 | 0.00 | 64 | 1015.6 |
| 20260901173756 | 20 | 228 | 6.4 | 19.3 | 0.00 | 0.00 | 0.00 | 65 | 1015.6 |
| 20260901173657 | 20 | 214 | 6.4 | 19.3 | 0.00 | 0.00 | 0.00 | 65 | 1015.6 |
| 20260901173552 | 19 | 224 | 4.8 | 19.3 | 0.00 | 0.00 | 0.00 | 64 | 1015.6 |
| 20260901173533 | 19 | 228 | 4.8 | 19.3 | 0.00 | 0.00 | 0.00 | 64 | 1015.6 |
| 20260901173450 | 19 | 229 | 4.8 | 17.7 | 0.00 | 0.00 | 0.00 | 64 | 1015.6 |
| 20260901173351 | 19 | 235 | 4.8 | 17.7 | 0.00 | 0.00 | 0.00 | 64 | 1015.6 |
| 20260901173251 | 19 | 214 | 6.4 | 17.7 | 0.00 | 0.00 | 0.00 | 65 | 1015.6 |
| 20260901173150 | 19 | 246 | 6.4 | 17.7 | 0.00 | 0.00 | 0.00 | 65 | 1015.6 |
| 20260901173049 | 19 | 233 | 6.4 | 17.7 | 0.00 | 0.00 | 0.00 | 65 | 1015.6 |
| 20260901173032 | 19 | 241 | 6.4 | 17.7 | 0.00 | 0.00 | 0.00 | 65 | 1015.6 |
| 20260901172948 | 19 | 242 | 4.8 | 17.7 | 0.00 | 0.00 | 0.00 | 66 | 1015.6 |
| 20260901172846 | 19 | 155 | 4.8 | 17.7 | 0.00 | 0.00 | 0.00 | 66 | 1015.6 |
| 20260901172747 | 19 | 222 | 4.8 | 17.7 | 0.00 | 0.00 | 0.00 | 66 | 1015.5 |
| 20260901172645 | 19 | 228 | 6.4 | 17.7 | 0.00 | 0.00 | 0.00 | 66 | 1015.6 |
| 20260901172543 | 19 | 156 | 6.4 | 17.7 | 0.00 | 0.00 | 0.00 | 66 | 1015.6 |
| 20260901172442 | 19 | 236 | 6.4 | 17.7 | 0.00 | 0.00 | 0.00 | 66 | 1015.6 |
| 20260901172340 | 19 | 264 | 8.0 | 17.7 | 0.00 | 0.00 | 0.00 | 66 | 1015.6 |
| 20260901172253 | 19 | 242 | 8.0 | 16.1 | 0.00 | 0.00 | 0.00 | 67 | 1015.5 |
| 20260901172241 | 19 | 218 | 6.4 | 16.1 | 0.00 | 0.00 | 0.00 | 66 | 1015.6 |
| 20260901172149 | 19 | 264 | 8.0 | 16.1 | 0.00 | 0.00 | 0.00 | 67 | 1015.6 |
| 20260901172139 | 19 | 242 | 8.0 | 16.1 | 0.00 | 0.00 | 0.00 | 67 | 1015.5 |
| 20260901171932 | 19 | 246 | 8.0 | 16.1 | 0.00 | 0.00 | 0.00 | 67 | 1015.5 |
| 20260901171833 | 19 | 235 | 9.7 | 16.1 | 0.00 | 0.00 | 0.00 | 67 | 1015.6 |
| 20260901171732 | 19 | 245 | 9.7 | 19.3 | 0.00 | 0.00 | 0.00 | 66 | 1015.5 |
| 20260901171632 | 19 | 208 | 9.7 | 19.3 | 0.00 | 0.00 | 0.00 | 67 | 1015.5 |
| 20260901171528 | 19 | 235 | 8.0 | 19.3 | 0.00 | 0.00 | 0.00 | 66 | 1015.5 |
| 20260901171426 | 19 | 236 | 8.0 | 19.3 | 0.00 | 0.00 | 0.00 | 66 | 1015.5 |
| 20260901171327 | 19 | 169 | 8.0 | 19.3 | 0.00 | 0.00 | 0.00 | 66 | 1015.6 |
| 20260901171227 | 19 | 193 | 6.4 | 19.3 | 0.00 | 0.00 | 0.00 | 66 | 1015.5 |
| 20260901171126 | 19 | 211 | 6.4 | 19.3 | 0.00 | 0.00 | 0.00 | 66 | 1015.6 |
| 20260901171044 | 20 | 214 | 6.4 | 19.3 | 0.00 | 0.00 | 0.00 | 66 | 1015.5 |
| 20260901171023 | 20 | 222 | 6.4 | 19.3 | 0.00 | 0.00 | 0.00 | 67 | 1015.5 |
| 20260901170920 | 20 | 210 | 6.4 | 19.3 | 0.00 | 0.00 | 0.00 | 66 | 1015.5 |
| 20260901170822 | 20 | 243 | 6.4 | 19.3 | 0.00 | 0.00 | 0.00 | 67 | 1015.5 |
| 20260901170751 | 20 | 253 | 4.8 | 14.5 | 0.00 | 0.00 | 0.00 | 68 | 1015.4 |
| 20260901170721 | 20 | 235 | 4.8 | 14.5 | 0.00 | 0.00 | 0.00 | 67 | 1015.5 |
| 20260901170642 | 20 | 259 | 4.8 | 14.5 | 0.00 | 0.00 | 0.00 | 68 | 1015.4 |
| 20260901170515 | 20 | 228 | 4.8 | 14.5 | 0.00 | 0.00 | 0.00 | 67 | 1015.4 |
| 20260901170415 | 20 | 224 | 4.8 | 14.5 | 0.00 | 0.00 | 0.00 | 68 | 1015.4 |
| 20260901170314 | 19 | 249 | 4.8 | 14.5 | 0.00 | 0.00 | 0.00 | 69 | 1015.4 |
| 20260901170215 | 19 | 203 | 6.4 | 14.5 | 0.00 | 0.00 | 0.00 | 69 | 1015.4 |
| 20260901170114 | 19 | 203 | 6.4 | 14.5 | 0.00 | 0.00 | 0.00 | 69 | 1015.4 |
| 20260901170030 | 19 | 210 | 6.4 | 14.5 | 0.00 | 0.00 | 0.00 | 69 | 1015.4 |
| 20260901170007 | 19 | 150 | 6.4 | 14.5 | 0.00 | 0.00 | 0.00 | 69 | 1015.4 |
| 20260901165906 | 19 | 212 | 6.4 | 14.5 | 0.00 | 0.00 | 0.00 | 69 | 1015.5 |
| 20260901165806 | 19 | 236 | 6.4 | 14.5 | 0.00 | 0.00 | 0.00 | 70 | 1015.5 |
| 20260901165706 | 18 | 242 | 6.4 | 14.5 | 0.00 | 0.00 | 0.00 | 71 | 1015.4 |
| 20260901165607 | 18 | 158 | 6.4 | 14.5 | 0.00 | 0.00 | 0.00 | 71 | 1015.4 |
| 20260901165528 | 18 | 200 | 6.4 | 14.5 | 0.00 | 0.00 | 0.00 | 70 | 1015.4 |
| 20260901165503 | 18 | 221 | 6.4 | 14.5 | 0.00 | 0.00 | 0.00 | 70 | 1015.4 |
| 20260901165400 | 18 | 233 | 8.0 | 16.1 | 0.00 | 0.00 | 0.00 | 69 | 1015.4 |
| 20260901165300 | 18 | 225 | 8.0 | 16.1 | 0.00 | 0.00 | 0.00 | 70 | 1015.4 |
| 20260901165201 | 18 | 167 | 8.0 | 16.1 | 0.00 | 0.00 | 0.00 | 69 | 1015.5 |
| 20260901165100 | 18 | 248 | 8.0 | 16.1 | 0.00 | 0.00 | 0.00 | 69 | 1015.5 |
| 20260901165028 | 18 | 241 | 8.0 | 16.1 | 0.00 | 0.00 | 0.00 | 68 | 1015.5 |
| 20260901164955 | 19 | 217 | 8.0 | 16.1 | 0.00 | 0.00 | 0.00 | 68 | 1015.5 |
| 20260901164854 | 19 | 218 | 8.0 | 16.1 | 0.00 | 0.00 | 0.00 | 68 | 1015.5 |
| 20260901164801 | 19 | 141 | 6.4 | 16.1 | 0.00 | 0.00 | 0.00 | 69 | 1015.5 |
| 20260901164754 | 19 | 231 | 8.0 | 16.1 | 0.00 | 0.00 | 0.00 | 69 | 1015.5 |
| 20260901164655 | 19 | 226 | 6.4 | 16.1 | 0.00 | 0.00 | 0.00 | 69 | 1015.5 |
| 20260901164639 | 19 | 150 | 6.4 | 16.1 | 0.00 | 0.00 | 0.00 | 69 | 1015.5 |
| 20260901164451 | 19 | 157 | 6.4 | 16.1 | 0.00 | 0.00 | 0.00 | 69 | 1015.5 |
| 20260901164349 | 19 | 210 | 6.4 | 14.5 | 0.00 | 0.00 | 0.00 | 69 | 1015.5 |
| 20260901164248 | 19 | 253 | 4.8 | 12.9 | 0.00 | 0.00 | 0.00 | 69 | 1015.4 |
| 20260901164148 | 19 | 259 | 4.8 | 12.9 | 0.00 | 0.00 | 0.00 | 69 | 1015.4 |
| 20260901164048 | 19 | 224 | 4.8 | 11.3 | 0.00 | 0.00 | 0.00 | 68 | 1015.4 |
| 20260901164028 | 19 | 236 | 4.8 | 11.3 | 0.00 | 0.00 | 0.00 | 68 | 1015.4 |
| 20260901163946 | 19 | 231 | 4.8 | 11.3 | 0.00 | 0.00 | 0.00 | 68 | 1015.5 |
| 20260901163847 | 19 | 216 | 4.8 | 11.3 | 0.00 | 0.00 | 0.00 | 70 | 1015.5 |
| 20260901163744 | 19 | 158 | 4.8 | 11.3 | 0.00 | 0.00 | 0.00 | 70 | 1015.5 |
| 20260901163644 | 18 | 238 | 4.8 | 11.3 | 0.00 | 0.00 | 0.00 | 70 | 1015.5 |
| 20260901163542 | 18 | 229 | 4.8 | 11.3 | 0.00 | 0.00 | 0.00 | 69 | 1015.5 |
| 20260901163528 | 18 | 167 | 4.8 | 11.3 | 0.00 | 0.00 | 0.00 | 69 | 1015.5 |
| 20260901163438 | 18 | 210 | 4.8 | 11.3 | 0.00 | 0.00 | 0.00 | 69 | 1015.5 |
| 20260901163339 | 18 | 146 | 4.8 | 11.3 | 0.00 | 0.00 | 0.00 | 70 | 1015.4 |
| 20260901163238 | 18 | 167 | 4.8 | 11.3 | 0.00 | 0.00 | 0.00 | 70 | 1015.4 |
| 20260901163139 | 18 | 236 | 4.8 | 11.3 | 0.00 | 0.00 | 0.00 | 70 | 1015.5 |
| 20260901163037 | 18 | 195 | 4.8 | 9.7 | 0.00 | 0.00 | 0.00 | 71 | 1015.4 |
| 20260901163026 | 18 | 167 | 4.8 | 9.7 | 0.00 | 0.00 | 0.00 | 71 | 1015.4 |
| 20260901162930 | 18 | 142 | 4.8 | 9.7 | 0.00 | 0.00 | 0.00 | 71 | 1015.4 |
| 20260901162831 | 18 | 248 | 4.8 | 12.9 | 0.00 | 0.00 | 0.00 | 72 | 1015.4 |
| 20260901162751 | 18 | 198 | 4.8 | 12.9 | 0.00 | 0.00 | 0.00 | 70 | 1015.3 |
| 20260901162728 | 18 | 224 | 4.8 | 12.9 | 0.00 | 0.00 | 0.00 | 71 | 1015.4 |
| 20260901162645 | 18 | 221 | 4.8 | 12.9 | 0.00 | 0.00 | 0.00 | 71 | 1015.4 |
| 20260901162635 | 18 | 198 | 4.8 | 12.9 | 0.00 | 0.00 | 0.00 | 70 | 1015.3 |
| 20260901162423 | 18 | 239 | 6.4 | 12.9 | 0.00 | 0.00 | 0.00 | 70 | 1015.3 |
| 20260901162322 | 18 | 221 | 6.4 | 14.5 | 0.00 | 0.00 | 0.00 | 70 | 1015.3 |
| 20260901162222 | 18 | 221 | 6.4 | 14.5 | 0.00 | 0.00 | 0.00 | 70 | 1015.3 |
| 20260901162123 | 18 | 166 | 6.4 | 14.5 | 0.00 | 0.00 | 0.00 | 70 | 1015.4 |
| 20260901162025 | 18 | 172 | 6.4 | 16.1 | 0.00 | 0.00 | 0.00 | 70 | 1015.3 |
| 20260901161917 | 18 | 163 | 6.4 | 16.1 | 0.00 | 0.00 | 0.00 | 70 | 1015.3 |
| 20260901161817 | 18 | 163 | 4.8 | 16.1 | 0.00 | 0.00 | 0.00 | 71 | 1015.3 |
| 20260901161740 | 18 | 231 | 6.4 | 16.1 | 0.00 | 0.00 | 0.00 | 71 | 1015.4 |
| 20260901161716 | 18 | 150 | 4.8 | 16.1 | 0.00 | 0.00 | 0.00 | 71 | 1015.3 |
| 20260901161616 | 18 | 190 | 4.8 | 16.1 | 0.00 | 0.00 | 0.00 | 70 | 1015.3 |
| 20260901161523 | 18 | 231 | 6.4 | 16.1 | 0.00 | 0.00 | 0.00 | 71 | 1015.4 |
| 20260901161410 | 18 | 208 | 6.4 | 16.1 | 0.00 | 0.00 | 0.00 | 70 | 1015.4 |
| 20260901161311 | 18 | 225 | 6.4 | 16.1 | 0.00 | 0.00 | 0.00 | 70 | 1015.3 |
| 20260901161211 | 18 | 233 | 4.8 | 16.1 | 0.00 | 0.00 | 0.00 | 70 | 1015.4 |
| 20260901161111 | 18 | 136 | 4.8 | 14.5 | 0.00 | 0.00 | 0.00 | 71 | 1015.2 |
| 20260901161012 | 18 | 193 | 4.8 | 12.9 | 0.00 | 0.00 | 0.00 | 70 | 1015.3 |
| 20260901160904 | 18 | 232 | 4.8 | 12.9 | 0.00 | 0.00 | 0.00 | 70 | 1015.4 |
| 20260901160804 | 18 | 138 | 4.8 | 12.9 | 0.00 | 0.00 | 0.00 | 70 | 1015.4 |
| 20260901160729 | 18 | 162 | 4.8 | 12.9 | 0.00 | 0.00 | 0.00 | 70 | 1015.4 |
| 20260901160704 | 18 | 210 | 4.8 | 12.9 | 0.00 | 0.00 | 0.00 | 70 | 1015.3 |
| 20260901160621 | 18 | 236 | 4.8 | 12.9 | 0.00 | 0.00 | 0.00 | 70 | 1015.3 |
| 20260901160610 | 18 | 162 | 4.8 | 12.9 | 0.00 | 0.00 | 0.00 | 70 | 1015.4 |
| 20260901160401 | 18 | 177 | 4.8 | 11.3 | 0.00 | 0.00 | 0.00 | 70 | 1015.3 |
| 20260901160258 | 18 | 104 | 4.8 | 11.3 | 0.00 | 0.00 | 0.00 | 70 | 1015.3 |
| 20260901160158 | 18 | 213 | 4.8 | 11.3 | 0.00 | 0.00 | 0.00 | 71 | 1015.3 |
| 20260901160058 | 18 | 139 | 4.8 | 11.3 | 0.00 | 0.00 | 0.00 | 71 | 1015.3 |
| 20260901160003 | 18 | 127 | 4.8 | 11.3 | 0.00 | 0.00 | 0.00 | 71 | 1015.3 |
| 20260901155958 | 18 | 177 | 4.8 | 11.3 | 0.00 | 0.00 | 0.00 | 71 | 1015.3 |
| 20260901155856 | 17 | 115 | 4.8 | 16.1 | 0.00 | 0.00 | 0.00 | 71 | 1015.3 |
| 20260901155756 | 17 | 130 | 4.8 | 16.1 | 0.00 | 0.00 | 0.00 | 71 | 1015.2 |
| 20260901155655 | 17 | 133 | 4.8 | 16.1 | 0.00 | 0.00 | 0.00 | 71 | 1015.2 |
| 20260901155555 | 17 | 141 | 4.8 | 16.1 | 0.00 | 0.00 | 0.00 | 71 | 1015.2 |
| 20260901155459 | 17 | 205 | 4.8 | 16.1 | 0.00 | 0.00 | 0.00 | 71 | 1015.2 |
| 20260901155451 | 17 | 198 | 4.8 | 16.1 | 0.00 | 0.00 | 0.00 | 71 | 1015.2 |
| 20260901155352 | 17 | 221 | 4.8 | 16.1 | 0.00 | 0.00 | 0.00 | 71 | 1015.2 |
| 20260901155250 | 17 | 208 | 4.8 | 16.1 | 0.00 | 0.00 | 0.00 | 71 | 1015.2 |
| 20260901155150 | 17 | 242 | 4.8 | 16.1 | 0.00 | 0.00 | 0.00 | 72 | 1015.2 |
| 20260901155050 | 17 | 187 | 4.8 | 16.1 | 0.00 | 0.00 | 0.00 | 72 | 1015.2 |
| 20260901154959 | 17 | 178 | 4.8 | 16.1 | 0.00 | 0.00 | 0.00 | 72 | 1015.2 |
| 20260901154946 | 17 | 134 | 4.8 | 16.1 | 0.00 | 0.00 | 0.00 | 72 | 1015.2 |
| 20260901154840 | 17 | 243 | 3.2 | 14.5 | 0.00 | 0.00 | 0.00 | 73 | 1015.2 |
| 20260901154741 | 17 | 134 | 3.2 | 9.7 | 0.00 | 0.00 | 0.00 | 73 | 1015.2 |
| 20260901154640 | 17 | 200 | 3.2 | 11.3 | 0.00 | 0.00 | 0.00 | 73 | 1015.1 |
| 20260901154541 | 17 | 224 | 4.8 | 11.3 | 0.00 | 0.00 | 0.00 | 74 | 1015.2 |
| 20260901154500 | 17 | 161 | 4.8 | 11.3 | 0.00 | 0.00 | 0.00 | 74 | 1015.1 |
| 20260901154440 | 17 | 207 | 4.8 | 11.3 | 0.00 | 0.00 | 0.00 | 74 | 1015.1 |
| 20260901154337 | 17 | 166 | 4.8 | 11.3 | 0.00 | 0.00 | 0.00 | 74 | 1015.1 |
| 20260901154237 | 17 | 139 | 4.8 | 11.3 | 0.00 | 0.00 | 0.00 | 74 | 1015.1 |
| 20260901154137 | 17 | 161 | 4.8 | 11.3 | 0.00 | 0.00 | 0.00 | 75 | 1015.1 |
| 20260901154037 | 16 | 134 | 4.8 | 11.3 | 0.00 | 0.00 | 0.00 | 75 | 1015.1 |
| 20260901153957 | 16 | 124 | 4.8 | 11.3 | 0.00 | 0.00 | 0.00 | 75 | 1015.1 |
| 20260901153934 | 16 | 143 | 4.8 | 11.3 | 0.00 | 0.00 | 0.00 | 75 | 1015.1 |
| 20260901153830 | 16 | 163 | 4.8 | 11.3 | 0.00 | 0.00 | 0.00 | 75 | 1015.1 |
| 20260901153728 | 16 | 141 | 6.4 | 11.3 | 0.00 | 0.00 | 0.00 | 75 | 1015.0 |
| 20260901153628 | 16 | 152 | 6.4 | 16.1 | 0.00 | 0.00 | 0.00 | 76 | 1015.0 |
| 20260901153529 | 16 | 161 | 6.4 | 16.1 | 0.00 | 0.00 | 0.00 | 76 | 1015.0 |
| 20260901153458 | 16 | 143 | 6.4 | 16.1 | 0.00 | 0.00 | 0.00 | 76 | 1015.0 |
| 20260901153428 | 16 | 136 | 6.4 | 16.1 | 0.00 | 0.00 | 0.00 | 77 | 1015.0 |
| 20260901153324 | 16 | 134 | 6.4 | 16.1 | 0.00 | 0.00 | 0.00 | 76 | 1015.1 |
| 20260901153222 | 16 | 225 | 6.4 | 16.1 | 0.00 | 0.00 | 0.00 | 77 | 1015.0 |
| 20260901153122 | 16 | 132 | 6.4 | 16.1 | 0.00 | 0.00 | 0.00 | 77 | 1015.0 |
| 20260901153024 | 16 | 132 | 6.4 | 16.1 | 0.00 | 0.00 | 0.00 | 78 | 1015.0 |
| 20260901152957 | 16 | 141 | 6.4 | 16.1 | 0.00 | 0.00 | 0.00 | 78 | 1015.0 |
| 20260901152923 | 16 | 141 | 6.4 | 16.1 | 0.00 | 0.00 | 0.00 | 77 | 1015.0 |
| 20260901152817 | 16 | 149 | 4.8 | 16.1 | 0.00 | 0.00 | 0.00 | 77 | 1015.0 |
| 20260901152716 | 16 | 139 | 4.8 | 16.1 | 0.00 | 0.00 | 0.00 | 78 | 1015.0 |
| 20260901152617 | 15 | 138 | 4.8 | 11.3 | 0.00 | 0.00 | 0.00 | 78 | 1014.9 |
| 20260901152517 | 15 | 159 | 3.2 | 9.7 | 0.00 | 0.00 | 0.00 | 79 | 1014.9 |
| 20260901152457 | 15 | 112 | 3.2 | 9.7 | 0.00 | 0.00 | 0.00 | 79 | 1014.9 |
| 20260901152416 | 15 | 117 | 3.2 | 9.7 | 0.00 | 0.00 | 0.00 | 79 | 1014.8 |
| 20260901152311 | 15 | 226 | 3.2 | 9.7 | 0.00 | 0.00 | 0.00 | 79 | 1014.9 |
| 20260901152218 | 15 | 200 | 3.2 | 9.7 | 0.00 | 0.00 | 0.00 | 79 | 1014.8 |
| 20260901152210 | 15 | 122 | 3.2 | 9.7 | 0.00 | 0.00 | 0.00 | 79 | 1014.9 |
| 20260901152119 | 15 | 154 | 3.2 | 9.7 | 0.00 | 0.00 | 0.00 | 79 | 1014.9 |
| 20260901152111 | 15 | 200 | 3.2 | 9.7 | 0.00 | 0.00 | 0.00 | 79 | 1014.8 |
| 20260901151910 | 15 | 155 | 3.2 | 9.7 | 0.00 | 0.00 | 0.00 | 79 | 1014.8 |
| 20260901151807 | 15 | 162 | 3.2 | 9.7 | 0.00 | 0.00 | 0.00 | 79 | 1014.8 |
| 20260901151704 | 15 | 130 | 3.2 | 8.0 | 0.00 | 0.00 | 0.00 | 80 | 1014.7 |
| 20260901151604 | 15 | 138 | 3.2 | 8.0 | 0.00 | 0.00 | 0.00 | 80 | 1014.8 |
| 20260901151509 | 15 | 218 | 3.2 | 8.0 | 0.00 | 0.00 | 0.00 | 80 | 1014.7 |
| 20260901151456 | 15 | 226 | 3.2 | 8.0 | 0.00 | 0.00 | 0.00 | 80 | 1014.7 |
| 20260901151404 | 15 | 162 | 3.2 | 8.0 | 0.00 | 0.00 | 0.00 | 80 | 1014.7 |
| 20260901151258 | 15 | 134 | 3.2 | 9.7 | 0.00 | 0.00 | 0.00 | 80 | 1014.7 |
| 20260901151158 | 15 | 115 | 3.2 | 9.7 | 0.00 | 0.00 | 0.00 | 80 | 1014.7 |
| 20260901151059 | 15 | 175 | 3.2 | 9.7 | 0.00 | 0.00 | 0.00 | 80 | 1014.7 |
| 20260901151004 | 15 | 136 | 3.2 | 9.7 | 0.00 | 0.00 | 0.00 | 80 | 1014.7 |
| 20260901150954 | 15 | 136 | 3.2 | 9.7 | 0.00 | 0.00 | 0.00 | 81 | 1014.7 |
| 20260901150858 | 15 | 117 | 3.2 | 9.7 | 0.00 | 0.00 | 0.00 | 81 | 1014.7 |
| 20260901150754 | 15 | 139 | 3.2 | 9.7 | 0.00 | 0.00 | 0.00 | 81 | 1014.7 |
| 20260901150732 | 15 | 138 | 3.2 | 9.7 | 0.00 | 0.00 | 0.00 | 81 | 1014.6 |
| 20260901150652 | 15 | 165 | 3.2 | 9.7 | 0.00 | 0.00 | 0.00 | 81 | 1014.7 |
| 20260901150622 | 15 | 218 | 3.2 | 9.7 | 0.00 | 0.00 | 0.00 | 81 | 1014.7 |
| 20260901150452 | 15 | 141 | 3.2 | 9.7 | 0.00 | 0.00 | 0.00 | 81 | 1014.6 |
| 20260901150351 | 15 | 153 | 3.2 | 9.7 | 0.00 | 0.00 | 0.00 | 81 | 1014.6 |
| 20260901150248 | 15 | 146 | 3.2 | 8.0 | 0.00 | 0.00 | 0.00 | 81 | 1014.6 |
| 20260901150146 | 15 | 89 | 3.2 | 8.0 | 0.00 | 0.00 | 0.00 | 81 | 1014.6 |
| 20260901150047 | 15 | 150 | 3.2 | 8.0 | 0.00 | 0.00 | 0.00 | 81 | 1014.6 |
| 20260901145953 | 15 | 141 | 3.2 | 8.0 | 0.00 | 0.00 | 0.00 | 81 | 1014.6 |
| 20260901145947 | 15 | 143 | 3.2 | 8.0 | 0.00 | 0.00 | 0.00 | 81 | 1014.6 |
| 20260901145846 | 15 | 133 | 3.2 | 9.7 | 0.00 | 0.00 | 0.00 | 81 | 1014.6 |
| 20260901145741 | 15 | 128 | 3.2 | 9.7 | 0.00 | 0.00 | 0.00 | 81 | 1014.6 |
| 20260901145640 | 14 | 211 | 3.2 | 9.7 | 0.00 | 0.00 | 0.00 | 81 | 1014.6 |
| 20260901145542 | 14 | 114 | 3.2 | 9.7 | 0.00 | 0.00 | 0.00 | 81 | 1014.5 |
| 20260901145452 | 14 | 136 | 4.8 | 9.7 | 0.00 | 0.00 | 0.00 | 82 | 1014.5 |
| 20260901145441 | 14 | 124 | 4.8 | 9.7 | 0.00 | 0.00 | 0.00 | 82 | 1014.5 |
| 20260901145340 | 14 | 115 | 4.8 | 9.7 | 0.00 | 0.00 | 0.00 | 82 | 1014.5 |
| 20260901145239 | 14 | 126 | 4.8 | 9.7 | 0.00 | 0.00 | 0.00 | 82 | 1014.5 |
| 20260901145138 | 14 | 180 | 4.8 | 9.7 | 0.00 | 0.00 | 0.00 | 82 | 1014.4 |
| 20260901145039 | 14 | 141 | 4.8 | 9.7 | 0.00 | 0.00 | 0.00 | 82 | 1014.4 |
| 20260901144952 | 14 | 158 | 3.2 | 9.7 | 0.00 | 0.00 | 0.00 | 82 | 1014.4 |
| 20260901144938 | 14 | 127 | 3.2 | 9.7 | 0.00 | 0.00 | 0.00 | 82 | 1014.4 |
| 20260901144838 | 14 | 131 | 3.2 | 9.7 | 0.00 | 0.00 | 0.00 | 82 | 1014.4 |
| 20260901144738 | 14 | 163 | 3.2 | 9.7 | 0.00 | 0.00 | 0.00 | 82 | 1014.4 |
| 20260901144639 | 14 | 132 | 3.2 | 9.7 | 0.00 | 0.00 | 0.00 | 82 | 1014.4 |
| 20260901144539 | 14 | 146 | 3.2 | 9.7 | 0.00 | 0.00 | 0.00 | 83 | 1014.5 |
| 20260901144451 | 14 | 121 | 3.2 | 9.7 | 0.00 | 0.00 | 0.00 | 83 | 1014.5 |
| 20260901144439 | 14 | 84 | 3.2 | 9.7 | 0.00 | 0.00 | 0.00 | 83 | 1014.5 |
| 20260901144338 | 14 | 176 | 3.2 | 9.7 | 0.00 | 0.00 | 0.00 | 83 | 1014.4 |
| 20260901144239 | 14 | 106 | 3.2 | 9.7 | 0.00 | 0.00 | 0.00 | 83 | 1014.4 |
| 20260901144138 | 14 | 150 | 3.2 | 9.7 | 0.00 | 0.00 | 0.00 | 83 | 1014.4 |
| 20260901144040 | 14 | 108 | 4.8 | 11.3 | 0.00 | 0.00 | 0.00 | 83 | 1014.4 |
| 20260901143951 | 14 | 150 | 4.8 | 11.3 | 0.00 | 0.00 | 0.00 | 83 | 1014.3 |
| 20260901143936 | 14 | 120 | 4.8 | 11.3 | 0.00 | 0.00 | 0.00 | 83 | 1014.3 |
| 20260901143837 | 14 | 183 | 4.8 | 11.3 | 0.00 | 0.00 | 0.00 | 83 | 1014.3 |
| 20260901143736 | 13 | 148 | 4.8 | 11.3 | 0.00 | 0.00 | 0.00 | 83 | 1014.3 |
| 20260901143636 | 13 | 139 | 3.2 | 11.3 | 0.00 | 0.00 | 0.00 | 84 | 1014.3 |
| 20260901143532 | 13 | 136 | 3.2 | 11.3 | 0.00 | 0.00 | 0.00 | 84 | 1014.4 |
| 20260901143452 | 13 | 163 | 3.2 | 11.3 | 0.00 | 0.00 | 0.00 | 84 | 1014.3 |
| 20260901143430 | 13 | 167 | 3.2 | 11.3 | 0.00 | 0.00 | 0.00 | 84 | 1014.3 |
| 20260901143332 | 13 | 140 | 3.2 | 11.3 | 0.00 | 0.00 | 0.00 | 84 | 1014.3 |
| 20260901143230 | 13 | 168 | 3.2 | 11.3 | 0.00 | 0.00 | 0.00 | 84 | 1014.3 |
| 20260901143130 | 13 | 155 | 3.2 | 11.3 | 0.00 | 0.00 | 0.00 | 84 | 1014.3 |
| 20260901143029 | 13 | 153 | 3.2 | 11.3 | 0.00 | 0.00 | 0.00 | 85 | 1014.3 |
| 20260901142950 | 13 | 145 | 3.2 | 11.3 | 0.00 | 0.00 | 0.00 | 85 | 1014.3 |
| 20260901142928 | 13 | 150 | 3.2 | 11.3 | 0.00 | 0.00 | 0.00 | 85 | 1014.3 |
| 20260901142828 | 13 | 153 | 3.2 | 11.3 | 0.00 | 0.00 | 0.00 | 85 | 1014.3 |
| 20260901142726 | 13 | 123 | 3.2 | 11.3 | 0.00 | 0.00 | 0.00 | 85 | 1014.2 |
| 20260901142624 | 13 | 136 | 3.2 | 11.3 | 0.00 | 0.00 | 0.00 | 86 | 1014.3 |
| 20260901142524 | 13 | 98 | 3.2 | 11.3 | 0.00 | 0.00 | 0.00 | 86 | 1014.2 |
| 20260901142503 | 13 | 92 | 3.2 | 11.3 | 0.00 | 0.00 | 0.00 | 86 | 1014.2 |
| 20260901142418 | 13 | 162 | 3.2 | 11.3 | 0.00 | 0.00 | 0.00 | 86 | 1014.2 |
| 20260901142319 | 13 | 132 | 3.2 | 11.3 | 0.00 | 0.00 | 0.00 | 86 | 1014.2 |
| 20260901142219 | 13 | 157 | 3.2 | 11.3 | 0.00 | 0.00 | 0.00 | 86 | 1014.2 |
| 20260901142118 | 13 | 148 | 1.6 | 11.3 | 0.00 | 0.00 | 0.00 | 86 | 1014.2 |
| 20260901142016 | 13 | 162 | 1.6 | 6.4 | 0.00 | 0.00 | 0.00 | 86 | 1014.2 |
| 20260901141949 | 13 | 129 | 1.6 | 6.4 | 0.00 | 0.00 | 0.00 | 86 | 1014.2 |
| 20260901141916 | 13 | 163 | 1.6 | 6.4 | 0.00 | 0.00 | 0.00 | 86 | 1014.1 |
| 20260901141815 | 13 | 93 | 1.6 | 6.4 | 0.00 | 0.00 | 0.00 | 86 | 1014.1 |
| 20260901141715 | 12 | 129 | 1.6 | 6.4 | 0.00 | 0.00 | 0.00 | 86 | 1014.1 |
| 20260901141706 | 12 | 127 | 1.6 | 6.4 | 0.00 | 0.00 | 0.00 | 87 | 1014.1 |
| 20260901141612 | 12 | 150 | 1.6 | 6.4 | 0.00 | 0.00 | 0.00 | 86 | 1014.1 |
| 20260901141600 | 12 | 127 | 1.6 | 6.4 | 0.00 | 0.00 | 0.00 | 87 | 1014.1 |
| 20260901141410 | 12 | 102 | 1.6 | 6.4 | 0.00 | 0.00 | 0.00 | 87 | 1014.1 |
| 20260901141310 | 12 | 113 | 1.6 | 6.4 | 0.00 | 0.00 | 0.00 | 87 | 1014.0 |
| 20260901141208 | 12 | 117 | 1.6 | 6.4 | 0.00 | 0.00 | 0.00 | 87 | 1014.0 |
| 20260901141107 | 12 | 111 | 1.6 | 6.4 | 0.00 | 0.00 | 0.00 | 87 | 1014.0 |
| 20260901141005 | 12 | 111 | 1.6 | 6.4 | 0.00 | 0.00 | 0.00 | 87 | 1013.9 |
| 20260901140949 | 12 | 98 | 1.6 | 6.4 | 0.00 | 0.00 | 0.00 | 87 | 1013.9 |
| 20260901140904 | 12 | 106 | 1.6 | 6.4 | 0.00 | 0.00 | 0.00 | 87 | 1013.9 |
| 20260901140802 | 12 | 129 | 1.6 | 6.4 | 0.00 | 0.00 | 0.00 | 87 | 1013.9 |
| 20260901140707 | 12 | 161 | 1.6 | 6.4 | 0.00 | 0.00 | 0.00 | 87 | 1013.8 |
| 20260901140702 | 12 | 143 | 1.6 | 6.4 | 0.00 | 0.00 | 0.00 | 87 | 1013.8 |
| 20260901140607 | 12 | 160 | 1.6 | 6.4 | 0.00 | 0.00 | 0.00 | 87 | 1013.8 |
| 20260901140558 | 12 | 161 | 1.6 | 6.4 | 0.00 | 0.00 | 0.00 | 87 | 1013.8 |
| 20260901140355 | 12 | 162 | 1.6 | 6.4 | 0.00 | 0.00 | 0.00 | 87 | 1013.8 |
| 20260901140254 | 12 | 94 | 1.6 | 6.4 | 0.00 | 0.00 | 0.00 | 87 | 1013.8 |
| 20260901140155 | 12 | 117 | 1.6 | 6.4 | 0.00 | 0.00 | 0.00 | 87 | 1013.7 |
| 20260901140054 | 12 | 101 | 1.6 | 6.4 | 0.00 | 0.00 | 0.00 | 87 | 1013.7 |
| 20260901135954 | 12 | 153 | 1.6 | 6.4 | 0.00 | 0.00 | 0.00 | 87 | 1013.7 |
| 20260901135949 | 12 | 148 | 1.6 | 6.4 | 0.00 | 0.00 | 0.00 | 87 | 1013.7 |
| 20260901135848 | 12 | 97 | 1.6 | 6.4 | 0.00 | 0.00 | 0.00 | 87 | 1013.6 |
| 20260901135749 | 12 | 113 | 1.6 | 6.4 | 0.00 | 0.00 | 0.00 | 87 | 1013.6 |
| 20260901135648 | 12 | 137 | 3.2 | 6.4 | 0.00 | 0.00 | 0.00 | 87 | 1013.6 |
| 20260901135548 | 12 | 117 | 3.2 | 6.4 | 0.00 | 0.00 | 0.00 | 87 | 1013.6 |
| 20260901135451 | 12 | 115 | 3.2 | 6.4 | 0.00 | 0.00 | 0.00 | 87 | 1013.6 |
| 20260901135446 | 12 | 98 | 3.2 | 6.4 | 0.00 | 0.00 | 0.00 | 87 | 1013.6 |
| 20260901135346 | 12 | 150 | 3.2 | 6.4 | 0.00 | 0.00 | 0.00 | 87 | 1013.6 |
| 20260901135245 | 12 | 104 | 3.2 | 6.4 | 0.00 | 0.00 | 0.00 | 87 | 1013.6 |
| 20260901135220 | 12 | 104 | 1.6 | 6.4 | 0.00 | 0.00 | 0.00 | 87 | 1013.5 |
| 20260901135144 | 12 | 191 | 3.2 | 6.4 | 0.00 | 0.00 | 0.00 | 87 | 1013.5 |
| 20260901135045 | 12 | 106 | 3.2 | 6.4 | 0.00 | 0.00 | 0.00 | 87 | 1013.5 |
| 20260901134944 | 12 | 110 | 1.6 | 6.4 | 0.00 | 0.00 | 0.00 | 87 | 1013.5 |
| 20260901134844 | 12 | 143 | 1.6 | 6.4 | 0.00 | 0.00 | 0.00 | 87 | 1013.5 |
| 20260901134745 | 12 | 121 | 1.6 | 6.4 | 0.00 | 0.00 | 0.00 | 87 | 1013.4 |
| 20260901134644 | 12 | 107 | 1.6 | 6.4 | 0.00 | 0.00 | 0.00 | 87 | 1013.5 |
| 20260901134545 | 12 | 114 | 1.6 | 4.8 | 0.00 | 0.00 | 0.00 | 87 | 1013.5 |
| 20260901134444 | 12 | 141 | 1.6 | 4.8 | 0.00 | 0.00 | 0.00 | 87 | 1013.5 |
| 20260901134342 | 12 | 146 | 1.6 | 6.4 | 0.00 | 0.00 | 0.00 | 87 | 1013.5 |
| 20260901134240 | 12 | 129 | 1.6 | 6.4 | 0.00 | 0.00 | 0.00 | 87 | 1013.5 |
| 20260901134140 | 12 | 143 | 1.6 | 6.4 | 0.00 | 0.00 | 0.00 | 87 | 1013.5 |
| 20260901133938 | 12 | 155 | 1.6 | 6.4 | 0.00 | 0.00 | 0.00 | 88 | 1013.5 |
| 20260901133837 | 12 | 139 | 1.6 | 6.4 | 0.00 | 0.00 | 0.00 | 87 | 1013.4 |
| 20260901133734 | 12 | 177 | 1.6 | 6.4 | 0.00 | 0.00 | 0.00 | 88 | 1013.5 |
| 20260901133634 | 12 | 148 | 1.6 | 6.4 | 0.00 | 0.00 | 0.00 | 88 | 1013.5 |
| 20260901133533 | 12 | 117 | 1.6 | 6.4 | 0.00 | 0.00 | 0.00 | 88 | 1013.4 |
| 20260901133446 | 12 | 123 | 1.6 | 6.4 | 0.00 | 0.00 | 0.00 | 88 | 1013.4 |
| 20260901133433 | 12 | 122 | 1.6 | 6.4 | 0.00 | 0.00 | 0.00 | 88 | 1013.4 |
| 20260901133335 | 12 | 87 | 1.6 | 6.4 | 0.00 | 0.00 | 0.00 | 88 | 1013.4 |
| 20260901133231 | 12 | 123 | 1.6 | 6.4 | 0.00 | 0.00 | 0.00 | 88 | 1013.4 |
| 20260901133128 | 12 | 131 | 1.6 | 6.4 | 0.00 | 0.00 | 0.00 | 88 | 1013.4 |
| 20260901133029 | 12 | 136 | 1.6 | 4.8 | 0.00 | 0.00 | 0.00 | 88 | 1013.4 |
| 20260901132928 | 12 | 136 | 1.6 | 4.8 | 0.00 | 0.00 | 0.00 | 88 | 1013.4 |
| 20260901132828 | 12 | 132 | 1.6 | 4.8 | 0.00 | 0.00 | 0.00 | 88 | 1013.4 |
| 20260901132728 | 12 | 129 | 1.6 | 4.8 | 0.00 | 0.00 | 0.00 | 88 | 1013.4 |
| 20260901132626 | 12 | 160 | 1.6 | 4.8 | 0.00 | 0.00 | 0.00 | 88 | 1013.5 |
| 20260901132528 | 12 | 141 | 1.6 | 4.8 | 0.00 | 0.00 | 0.00 | 88 | 1013.5 |
| 20260901132424 | 12 | 132 | 1.6 | 4.8 | 0.00 | 0.00 | 0.00 | 88 | 1013.5 |
| 20260901132325 | 12 | 116 | 1.6 | 6.4 | 0.00 | 0.00 | 0.00 | 88 | 1013.5 |
| 20260901132223 | 12 | 138 | 1.6 | 6.4 | 0.00 | 0.00 | 0.00 | 88 | 1013.5 |
| 20260901132122 | 12 | 214 | 1.6 | 6.4 | 0.00 | 0.00 | 0.00 | 88 | 1013.5 |
| 20260901132024 | 12 | 125 | 1.6 | 6.4 | 0.00 | 0.00 | 0.00 | 88 | 1013.4 |
| 20260901131923 | 12 | 126 | 1.6 | 6.4 | 0.00 | 0.00 | 0.00 | 88 | 1013.4 |
| 20260901131822 | 12 | 143 | 1.6 | 6.4 | 0.00 | 0.00 | 0.00 | 88 | 1013.4 |
| 20260901131718 | 12 | 139 | 1.6 | 6.4 | 0.00 | 0.00 | 0.00 | 88 | 1013.4 |
| 20260901131617 | 12 | 147 | 1.6 | 6.4 | 0.00 | 0.00 | 0.00 | 88 | 1013.4 |
| 20260901131518 | 12 | 146 | 1.6 | 6.4 | 0.00 | 0.00 | 0.00 | 88 | 1013.4 |
| 20260901131439 | 12 | 109 | 1.6 | 6.4 | 0.00 | 0.00 | 0.00 | 88 | 1013.4 |
| 20260901131415 | 12 | 104 | 1.6 | 6.4 | 0.00 | 0.00 | 0.00 | 88 | 1013.4 |
| 20260901131314 | 12 | 155 | 1.6 | 4.8 | 0.00 | 0.00 | 0.00 | 88 | 1013.3 |
| 20260901131209 | 12 | 146 | 1.6 | 4.8 | 0.00 | 0.00 | 0.00 | 88 | 1013.4 |
| 20260901131110 | 12 | 174 | 1.6 | 4.8 | 0.00 | 0.00 | 0.00 | 88 | 1013.3 |
| 20260901131008 | 12 | 136 | 1.6 | 6.4 | 0.00 | 0.00 | 0.00 | 88 | 1013.3 |
| 20260901130940 | 12 | 136 | 1.6 | 6.4 | 0.00 | 0.00 | 0.00 | 88 | 1013.3 |
| 20260901130906 | 12 | 129 | 1.6 | 6.4 | 0.00 | 0.00 | 0.00 | 88 | 1013.3 |
| 20260901130806 | 12 | 110 | 1.6 | 6.4 | 0.00 | 0.00 | 0.00 | 88 | 1013.3 |
| 20260901130701 | 12 | 107 | 1.6 | 6.4 | 0.00 | 0.00 | 0.00 | 88 | 1013.3 |
| 20260901130600 | 12 | 142 | 1.6 | 6.4 | 0.00 | 0.00 | 0.00 | 88 | 1013.2 |
| 20260901130500 | 12 | 143 | 1.6 | 6.4 | 0.00 | 0.00 | 0.00 | 88 | 1013.2 |
| 20260901130441 | 12 | 133 | 1.6 | 6.4 | 0.00 | 0.00 | 0.00 | 88 | 1013.2 |
| 20260901130400 | 12 | 100 | 1.6 | 6.4 | 0.00 | 0.00 | 0.00 | 88 | 1013.2 |
| 20260901130300 | 12 | 101 | 1.6 | 6.4 | 0.00 | 0.00 | 0.00 | 88 | 1013.2 |
| 20260901130157 | 12 | 101 | 1.6 | 6.4 | 0.00 | 0.00 | 0.00 | 88 | 1013.1 |
| 20260901130057 | 12 | 118 | 1.6 | 6.4 | 0.00 | 0.00 | 0.00 | 88 | 1013.2 |
| 20260901125956 | 12 | 103 | 1.6 | 3.2 | 0.00 | 0.00 | 0.00 | 88 | 1013.1 |
| 20260901125933 | 12 | 108 | 1.6 | 3.2 | 0.00 | 0.00 | 0.00 | 88 | 1013.1 |
| 20260901125857 | 12 | 109 | 1.6 | 3.2 | 0.00 | 0.00 | 0.00 | 88 | 1013.2 |
| 20260901125754 | 12 | 108 | 1.6 | 3.2 | 0.00 | 0.00 | 0.00 | 88 | 1013.2 |
| 20260901125657 | 12 | 145 | 1.6 | 4.8 | 0.00 | 0.00 | 0.00 | 87 | 1013.2 |
| 20260901125652 | 12 | 109 | 1.6 | 4.8 | 0.00 | 0.00 | 0.00 | 88 | 1013.1 |
| 20260901125553 | 12 | 147 | 1.6 | 4.8 | 0.00 | 0.00 | 0.00 | 88 | 1013.2 |
| 20260901125539 | 12 | 145 | 1.6 | 4.8 | 0.00 | 0.00 | 0.00 | 87 | 1013.2 |
| 20260901125350 | 12 | 125 | 1.6 | 4.8 | 0.00 | 0.00 | 0.00 | 87 | 1013.2 |
| 20260901125248 | 12 | 166 | 1.6 | 8.0 | 0.00 | 0.00 | 0.00 | 87 | 1013.1 |
| 20260901125144 | 12 | 167 | 1.6 | 8.0 | 0.00 | 0.00 | 0.00 | 87 | 1013.1 |
| 20260901125044 | 12 | 127 | 1.6 | 8.0 | 0.00 | 0.00 | 0.00 | 87 | 1013.1 |
| 20260901124944 | 12 | 103 | 1.6 | 8.0 | 0.00 | 0.00 | 0.00 | 87 | 1013.1 |
| 20260901124921 | 12 | 96 | 1.6 | 8.0 | 0.00 | 0.00 | 0.00 | 87 | 1013.1 |
| 20260901124844 | 12 | 158 | 1.6 | 8.0 | 0.00 | 0.00 | 0.00 | 87 | 1013.1 |
| 20260901124743 | 12 | 158 | 3.2 | 8.0 | 0.00 | 0.00 | 0.00 | 87 | 1013.1 |
| 20260901124650 | 12 | 146 | 3.2 | 8.0 | 0.00 | 0.00 | 0.00 | 87 | 1013.0 |
| 20260901124646 | 12 | 148 | 3.2 | 8.0 | 0.00 | 0.00 | 0.00 | 87 | 1013.0 |
| 20260901124555 | 12 | 99 | 3.2 | 8.0 | 0.00 | 0.00 | 0.00 | 87 | 1013.0 |
| 20260901124536 | 12 | 98 | 3.2 | 8.0 | 0.00 | 0.00 | 0.00 | 87 | 1013.0 |
| 20260901124337 | 12 | 162 | 3.2 | 6.4 | 0.00 | 0.00 | 0.00 | 87 | 1013.0 |
| 20260901124236 | 12 | 118 | 3.2 | 6.4 | 0.00 | 0.00 | 0.00 | 87 | 1013.0 |
| 20260901124132 | 12 | 131 | 1.6 | 6.4 | 0.00 | 0.00 | 0.00 | 87 | 1013.0 |
| 20260901124030 | 12 | 116 | 1.6 | 6.4 | 0.00 | 0.00 | 0.00 | 87 | 1013.0 |
| 20260901123930 | 12 | 115 | 1.6 | 8.0 | 0.00 | 0.00 | 0.00 | 87 | 1013.0 |
| 20260901123909 | 12 | 112 | 3.2 | 8.0 | 0.00 | 0.00 | 0.00 | 87 | 1013.0 |
| 20260901123831 | 12 | 111 | 3.2 | 8.0 | 0.00 | 0.00 | 0.00 | 87 | 1013.0 |
| 20260901123730 | 12 | 115 | 1.6 | 8.0 | 0.00 | 0.00 | 0.00 | 87 | 1013.0 |
| 20260901123626 | 12 | 103 | 1.6 | 8.0 | 0.00 | 0.00 | 0.00 | 87 | 1013.0 |
| 20260901123527 | 12 | 90 | 1.6 | 8.0 | 0.00 | 0.00 | 0.00 | 86 | 1013.0 |
| 20260901123426 | 12 | 107 | 1.6 | 8.0 | 0.00 | 0.00 | 0.00 | 86 | 1013.0 |
| 20260901123403 | 12 | 107 | 3.2 | 8.0 | 0.00 | 0.00 | 0.00 | 86 | 1013.1 |
| 20260901123327 | 12 | 108 | 3.2 | 8.0 | 0.00 | 0.00 | 0.00 | 86 | 1013.1 |
| 20260901123224 | 12 | 107 | 3.2 | 8.0 | 0.00 | 0.00 | 0.00 | 86 | 1013.0 |
| 20260901123118 | 12 | 107 | 4.8 | 9.7 | 0.00 | 0.00 | 0.00 | 86 | 1013.0 |
| 20260901123025 | 12 | 108 | 4.8 | 9.7 | 0.00 | 0.00 | 0.00 | 86 | 1013.0 |
| 20260901122918 | 12 | 112 | 4.8 | 9.7 | 0.00 | 0.00 | 0.00 | 86 | 1013.0 |
| 20260901122900 | 12 | 98 | 4.8 | 9.7 | 0.00 | 0.00 | 0.00 | 86 | 1013.0 |
| 20260901122818 | 12 | 102 | 4.8 | 9.7 | 0.00 | 0.00 | 0.00 | 86 | 1013.0 |
| 20260901122718 | 13 | 74 | 3.2 | 9.7 | 0.00 | 0.00 | 0.00 | 86 | 1013.0 |
| 20260901122615 | 13 | 118 | 3.2 | 9.7 | 0.00 | 0.00 | 0.00 | 86 | 1013.0 |
| 20260901122512 | 13 | 114 | 3.2 | 9.7 | 0.00 | 0.00 | 0.00 | 86 | 1012.9 |
| 20260901122413 | 13 | 113 | 3.2 | 9.7 | 0.00 | 0.00 | 0.00 | 86 | 1012.9 |
| 20260901122352 | 13 | 80 | 3.2 | 9.7 | 0.00 | 0.00 | 0.00 | 86 | 1012.9 |
| 20260901122313 | 13 | 90 | 3.2 | 9.7 | 0.00 | 0.00 | 0.00 | 86 | 1012.9 |
| 20260901122212 | 13 | 115 | 3.2 | 9.7 | 0.00 | 0.00 | 0.00 | 86 | 1012.9 |
| 20260901122106 | 13 | 103 | 1.6 | 8.0 | 0.00 | 0.00 | 0.00 | 86 | 1012.8 |
| 20260901122006 | 13 | 129 | 1.6 | 8.0 | 0.00 | 0.00 | 0.00 | 86 | 1012.9 |
| 20260901121906 | 13 | 95 | 1.6 | 6.4 | 0.00 | 0.00 | 0.00 | 86 | 1012.9 |
| 20260901121845 | 13 | 127 | 1.6 | 6.4 | 0.00 | 0.00 | 0.00 | 86 | 1012.9 |
| 20260901121807 | 13 | 103 | 1.6 | 6.4 | 0.00 | 0.00 | 0.00 | 86 | 1012.9 |
| 20260901121706 | 13 | 127 | 1.6 | 6.4 | 0.00 | 0.00 | 0.00 | 86 | 1012.9 |
| 20260901121607 | 13 | 126 | 1.6 | 6.4 | 0.00 | 0.00 | 0.00 | 86 | 1012.9 |
| 20260901121506 | 13 | 139 | 1.6 | 6.4 | 0.00 | 0.00 | 0.00 | 86 | 1012.9 |
| 20260901121339 | 13 | 139 | 1.6 | 6.4 | 0.00 | 0.00 | 0.00 | 86 | 1012.9 |
| 20260901121302 | 13 | 131 | 1.6 | 6.4 | 0.00 | 0.00 | 0.00 | 86 | 1012.9 |
| 20260901121201 | 13 | 131 | 1.6 | 6.4 | 0.00 | 0.00 | 0.00 | 86 | 1012.9 |
| 20260901121055 | 13 | 131 | 1.6 | 6.4 | 0.00 | 0.00 | 0.00 | 86 | 1012.9 |
| 20260901120954 | 13 | 124 | 1.6 | 6.4 | 0.00 | 0.00 | 0.00 | 86 | 1013.0 |
| 20260901120854 | 13 | 138 | 1.6 | 4.8 | 0.00 | 0.00 | 0.00 | 86 | 1012.9 |
| 20260901120834 | 13 | 139 | 1.6 | 4.8 | 0.00 | 0.00 | 0.00 | 86 | 1012.9 |
| 20260901120755 | 13 | 138 | 1.6 | 4.8 | 0.00 | 0.00 | 0.00 | 86 | 1013.0 |
| 20260901120654 | 13 | 162 | 1.6 | 4.8 | 0.00 | 0.00 | 0.00 | 86 | 1013.0 |
| 20260901120552 | 13 | 135 | 1.6 | 4.8 | 0.00 | 0.00 | 0.00 | 86 | 1013.0 |
| 20260901120548 | 13 | 136 | 1.6 | 4.8 | 0.00 | 0.00 | 0.00 | 86 | 1013.0 |
| 20260901120448 | 13 | 136 | 1.6 | 4.8 | 0.00 | 0.00 | 0.00 | 86 | 1013.0 |
| 20260901120438 | 13 | 135 | 1.6 | 4.8 | 0.00 | 0.00 | 0.00 | 86 | 1013.0 |
| 20260901120248 | 13 | 126 | 1.6 | 4.8 | 0.00 | 0.00 | 0.00 | 86 | 1012.9 |
| 20260901120148 | 13 | 121 | 1.6 | 4.8 | 0.00 | 0.00 | 0.00 | 86 | 1012.9 |
| 20260901120052 | 13 | 210 | 1.6 | 4.8 | 0.00 | 0.00 | 0.00 | 85 | 1013.0 |
| 20260901120046 | 13 | 133 | 1.6 | 4.8 | 0.00 | 0.00 | 0.00 | 86 | 1013.0 |
| 20260901115946 | 13 | 139 | 1.6 | 4.8 | 0.00 | 0.00 | 0.00 | 85 | 1012.9 |
| 20260901115936 | 13 | 210 | 1.6 | 4.8 | 0.00 | 0.00 | 0.00 | 86 | 1013.0 |
| 20260901115642 | 13 | 121 | 1.6 | 4.8 | 0.00 | 0.00 | 0.00 | 85 | 1012.9 |
| 20260901115542 | 13 | 136 | 1.6 | 4.8 | 0.00 | 0.00 | 0.00 | 85 | 1012.9 |
| 20260901115440 | 13 | 129 | 1.6 | 4.8 | 0.00 | 0.00 | 0.00 | 85 | 1013.0 |
| 20260901115326 | 13 | 136 | 1.6 | 4.8 | 0.00 | 0.00 | 0.00 | 85 | 1013.0 |
| 20260901115239 | 13 | 136 | 1.6 | 4.8 | 0.00 | 0.00 | 0.00 | 85 | 1013.0 |
| 20260901115136 | 13 | 136 | 3.2 | 4.8 | 0.00 | 0.00 | 0.00 | 85 | 1012.9 |
| 20260901115031 | 13 | 136 | 3.2 | 4.8 | 0.00 | 0.00 | 0.00 | 85 | 1012.9 |
| 20260901114930 | 13 | 139 | 3.2 | 4.8 | 0.00 | 0.00 | 0.00 | 85 | 1012.9 |
| 20260901114824 | 13 | 139 | 3.2 | 4.8 | 0.00 | 0.00 | 0.00 | 85 | 1012.9 |
| 20260901114730 | 13 | 162 | 3.2 | 4.8 | 0.00 | 0.00 | 0.00 | 85 | 1013.0 |
| 20260901114630 | 13 | 129 | 1.6 | 4.8 | 0.00 | 0.00 | 0.00 | 85 | 1013.0 |
| 20260901114526 | 13 | 135 | 1.6 | 4.8 | 0.00 | 0.00 | 0.00 | 85 | 1013.0 |
| 20260901114424 | 13 | 141 | 1.6 | 4.8 | 0.00 | 0.00 | 0.00 | 85 | 1013.0 |
| 20260901114330 | 13 | 164 | 1.6 | 4.8 | 0.00 | 0.00 | 0.00 | 84 | 1013.0 |
| 20260901114324 | 13 | 163 | 1.6 | 4.8 | 0.00 | 0.00 | 0.00 | 84 | 1013.0 |
| 20260901114224 | 13 | 145 | 1.6 | 4.8 | 0.00 | 0.00 | 0.00 | 84 | 1013.0 |
| 20260901114123 | 13 | 169 | 1.6 | 4.8 | 0.00 | 0.00 | 0.00 | 84 | 1013.0 |
| 20260901114026 | 13 | 149 | 1.6 | 4.8 | 0.00 | 0.00 | 0.00 | 84 | 1013.0 |
| 20260901113922 | 13 | 139 | 1.6 | 4.8 | 0.00 | 0.00 | 0.00 | 84 | 1012.9 |
| 20260901113822 | 13 | 150 | 1.6 | 4.8 | 0.00 | 0.00 | 0.00 | 84 | 1012.9 |
| 20260901113720 | 13 | 146 | 1.6 | 6.4 | 0.00 | 0.00 | 0.00 | 84 | 1012.9 |
| 20260901113619 | 13 | 146 | 1.6 | 6.4 | 0.00 | 0.00 | 0.00 | 84 | 1012.8 |
| 20260901113512 | 13 | 113 | 3.2 | 6.4 | 0.00 | 0.00 | 0.00 | 84 | 1012.8 |
| 20260901113412 | 13 | 113 | 3.2 | 6.4 | 0.00 | 0.00 | 0.00 | 84 | 1012.8 |
| 20260901113322 | 13 | 97 | 3.2 | 6.4 | 0.00 | 0.00 | 0.00 | 84 | 1012.8 |
| 20260901113316 | 13 | 120 | 3.2 | 6.4 | 0.00 | 0.00 | 0.00 | 84 | 1012.8 |
| 20260901113213 | 13 | 129 | 3.2 | 6.4 | 0.00 | 0.00 | 0.00 | 84 | 1012.8 |
| 20260901113113 | 13 | 137 | 3.2 | 6.4 | 0.00 | 0.00 | 0.00 | 84 | 1012.8 |
| 20260901113006 | 13 | 129 | 3.2 | 6.4 | 0.00 | 0.00 | 0.00 | 84 | 1012.7 |
| 20260901112907 | 13 | 143 | 3.2 | 6.4 | 0.00 | 0.00 | 0.00 | 84 | 1012.7 |
| 20260901112821 | 13 | 133 | 3.2 | 6.4 | 0.00 | 0.00 | 0.00 | 84 | 1012.7 |
| 20260901112806 | 13 | 132 | 3.2 | 6.4 | 0.00 | 0.00 | 0.00 | 84 | 1012.7 |
| 20260901112707 | 13 | 135 | 3.2 | 6.4 | 0.00 | 0.00 | 0.00 | 84 | 1012.7 |
| 20260901112607 | 13 | 137 | 3.2 | 6.4 | 0.00 | 0.00 | 0.00 | 84 | 1012.8 |
| 20260901112505 | 13 | 125 | 3.2 | 6.4 | 0.00 | 0.00 | 0.00 | 84 | 1012.7 |
| 20260901112404 | 13 | 134 | 3.2 | 6.4 | 0.00 | 0.00 | 0.00 | 84 | 1012.8 |
| 20260901112322 | 13 | 134 | 3.2 | 6.4 | 0.00 | 0.00 | 0.00 | 84 | 1012.8 |
| 20260901112306 | 13 | 131 | 1.6 | 6.4 | 0.00 | 0.00 | 0.00 | 84 | 1012.8 |
| 20260901112202 | 13 | 129 | 1.6 | 6.4 | 0.00 | 0.00 | 0.00 | 84 | 1012.8 |
| 20260901112100 | 13 | 146 | 1.6 | 4.8 | 0.00 | 0.00 | 0.00 | 83 | 1012.7 |
| 20260901111954 | 13 | 136 | 1.6 | 8.0 | 0.00 | 0.00 | 0.00 | 83 | 1012.8 |
| 20260901111855 | 13 | 134 | 3.2 | 11.3 | 0.00 | 0.00 | 0.00 | 83 | 1012.7 |
| 20260901111820 | 13 | 134 | 3.2 | 11.3 | 0.00 | 0.00 | 0.00 | 83 | 1012.7 |
| 20260901111755 | 13 | 134 | 3.2 | 11.3 | 0.00 | 0.00 | 0.00 | 83 | 1012.8 |
| 20260901111654 | 13 | 136 | 3.2 | 11.3 | 0.00 | 0.00 | 0.00 | 83 | 1012.8 |
| 20260901111554 | 13 | 219 | 3.2 | 11.3 | 0.00 | 0.00 | 0.00 | 83 | 1012.7 |
| 20260901111454 | 13 | 218 | 3.2 | 11.3 | 0.00 | 0.00 | 0.00 | 83 | 1012.7 |
| 20260901111352 | 13 | 122 | 3.2 | 11.3 | 0.00 | 0.00 | 0.00 | 83 | 1012.7 |
| 20260901111319 | 13 | 123 | 3.2 | 11.3 | 0.00 | 0.00 | 0.00 | 83 | 1012.7 |
| 20260901111252 | 13 | 138 | 3.2 | 11.3 | 0.00 | 0.00 | 0.00 | 83 | 1012.7 |
| 20260901111151 | 13 | 123 | 4.8 | 11.3 | 0.00 | 0.00 | 0.00 | 83 | 1012.7 |
| 20260901111048 | 13 | 113 | 4.8 | 11.3 | 0.00 | 0.00 | 0.00 | 83 | 1012.7 |
| 20260901110942 | 13 | 154 | 4.8 | 9.7 | 0.00 | 0.00 | 0.00 | 83 | 1012.7 |
| 20260901110843 | 13 | 158 | 4.8 | 9.7 | 0.00 | 0.00 | 0.00 | 83 | 1012.6 |
| 20260901110820 | 13 | 137 | 4.8 | 9.7 | 0.00 | 0.00 | 0.00 | 83 | 1012.6 |
| 20260901110742 | 13 | 135 | 4.8 | 9.7 | 0.00 | 0.00 | 0.00 | 83 | 1012.7 |
| 20260901110642 | 13 | 136 | 4.8 | 9.7 | 0.00 | 0.00 | 0.00 | 83 | 1012.7 |
| 20260901110543 | 13 | 136 | 4.8 | 9.7 | 0.00 | 0.00 | 0.00 | 83 | 1012.7 |
| 20260901110436 | 13 | 148 | 4.8 | 9.7 | 0.00 | 0.00 | 0.00 | 82 | 1012.7 |
| 20260901110336 | 13 | 156 | 4.8 | 9.7 | 0.00 | 0.00 | 0.00 | 82 | 1012.7 |
| 20260901110321 | 13 | 150 | 4.8 | 9.7 | 0.00 | 0.00 | 0.00 | 82 | 1012.7 |
| 20260901110237 | 13 | 144 | 4.8 | 9.7 | 0.00 | 0.00 | 0.00 | 82 | 1012.7 |
| 20260901110137 | 13 | 155 | 4.8 | 9.7 | 0.00 | 0.00 | 0.00 | 83 | 1012.7 |
| 20260901105932 | 13 | 129 | 4.8 | 9.7 | 0.00 | 0.00 | 0.00 | 82 | 1012.7 |
| 20260901105830 | 13 | 121 | 4.8 | 9.7 | 0.00 | 0.00 | 0.00 | 82 | 1012.7 |
| 20260901105820 | 13 | 158 | 4.8 | 9.7 | 0.00 | 0.00 | 0.00 | 82 | 1012.7 |
| 20260901105730 | 13 | 141 | 4.8 | 9.7 | 0.00 | 0.00 | 0.00 | 82 | 1012.7 |
| 20260901105630 | 13 | 149 | 4.8 | 9.7 | 0.00 | 0.00 | 0.00 | 82 | 1012.7 |
| 20260901105531 | 13 | 167 | 4.8 | 9.7 | 0.00 | 0.00 | 0.00 | 82 | 1012.7 |
| 20260901105424 | 13 | 191 | 3.2 | 9.7 | 0.00 | 0.00 | 0.00 | 82 | 1012.7 |
| 20260901105330 | 13 | 141 | 3.2 | 9.7 | 0.00 | 0.00 | 0.00 | 82 | 1012.7 |
| 20260901105319 | 13 | 160 | 3.2 | 9.7 | 0.00 | 0.00 | 0.00 | 82 | 1012.7 |
| 20260901105224 | 13 | 141 | 3.2 | 9.7 | 0.00 | 0.00 | 0.00 | 82 | 1012.7 |
| 20260901105125 | 13 | 141 | 3.2 | 9.7 | 0.00 | 0.00 | 0.00 | 82 | 1012.7 |
| 20260901105026 | 13 | 111 | 3.2 | 11.3 | 0.00 | 0.00 | 0.00 | 82 | 1012.7 |
| 20260901104925 | 13 | 159 | 3.2 | 11.3 | 0.00 | 0.00 | 0.00 | 82 | 1012.7 |
| 20260901104829 | 13 | 138 | 3.2 | 11.3 | 0.00 | 0.00 | 0.00 | 82 | 1012.7 |
| 20260901104819 | 13 | 155 | 3.2 | 11.3 | 0.00 | 0.00 | 0.00 | 82 | 1012.7 |
| 20260901104725 | 13 | 129 | 3.2 | 11.3 | 0.00 | 0.00 | 0.00 | 82 | 1012.7 |
| 20260901104625 | 13 | 136 | 3.2 | 11.3 | 0.00 | 0.00 | 0.00 | 82 | 1012.7 |
| 20260901104525 | 13 | 148 | 3.2 | 11.3 | 0.00 | 0.00 | 0.00 | 82 | 1012.7 |
| 20260901104425 | 13 | 143 | 3.2 | 11.3 | 0.00 | 0.00 | 0.00 | 82 | 1012.7 |
| 20260901104319 | 13 | 132 | 3.2 | 11.3 | 0.00 | 0.00 | 0.00 | 83 | 1012.7 |
| 20260901104224 | 13 | 161 | 3.2 | 11.3 | 0.00 | 0.00 | 0.00 | 83 | 1012.6 |
| 20260901104124 | 13 | 141 | 3.2 | 11.3 | 0.00 | 0.00 | 0.00 | 83 | 1012.5 |
| 20260901104026 | 13 | 108 | 3.2 | 11.3 | 0.00 | 0.00 | 0.00 | 83 | 1012.5 |
| 20260901103925 | 13 | 116 | 3.2 | 11.3 | 0.00 | 0.00 | 0.00 | 82 | 1012.5 |
| 20260901103824 | 13 | 155 | 4.8 | 11.3 | 0.00 | 0.00 | 0.00 | 82 | 1012.5 |
| 20260901103723 | 13 | 143 | 3.2 | 11.3 | 0.00 | 0.00 | 0.00 | 82 | 1012.5 |
| 20260901103622 | 13 | 149 | 4.8 | 11.3 | 0.00 | 0.00 | 0.00 | 82 | 1012.5 |
| 20260901103524 | 13 | 125 | 4.8 | 11.3 | 0.00 | 0.00 | 0.00 | 82 | 1012.5 |
| 20260901103422 | 13 | 162 | 3.2 | 11.3 | 0.00 | 0.00 | 0.00 | 82 | 1012.5 |
| 20260901103324 | 13 | 122 | 3.2 | 11.3 | 0.00 | 0.00 | 0.00 | 82 | 1012.4 |
| 20260901103216 | 14 | 121 | 4.8 | 11.3 | 0.00 | 0.00 | 0.00 | 83 | 1012.4 |
| 20260901103116 | 13 | 143 | 4.8 | 11.3 | 0.00 | 0.00 | 0.00 | 83 | 1012.4 |
| 20260901103022 | 13 | 92 | 3.2 | 9.7 | 0.00 | 0.00 | 0.00 | 83 | 1012.4 |
| 20260901102916 | 13 | 134 | 4.8 | 9.7 | 0.00 | 0.00 | 0.00 | 83 | 1012.4 |
| 20260901102818 | 13 | 160 | 4.8 | 9.7 | 0.00 | 0.00 | 0.00 | 83 | 1012.4 |
| 20260901102712 | 13 | 150 | 4.8 | 9.7 | 0.00 | 0.00 | 0.00 | 83 | 1012.4 |
| 20260901102610 | 13 | 158 | 4.8 | 9.7 | 0.00 | 0.00 | 0.00 | 83 | 1012.4 |
| 20260901102510 | 13 | 148 | 4.8 | 9.7 | 0.00 | 0.00 | 0.00 | 83 | 1012.4 |
| 20260901102411 | 13 | 165 | 4.8 | 9.7 | 0.00 | 0.00 | 0.00 | 83 | 1012.4 |
| 20260901102315 | 13 | 131 | 4.8 | 9.7 | 0.00 | 0.00 | 0.00 | 83 | 1012.5 |
| 20260901102205 | 13 | 195 | 4.8 | 9.7 | 0.00 | 0.00 | 0.00 | 83 | 1012.5 |
| 20260901102104 | 13 | 136 | 3.2 | 9.7 | 0.00 | 0.00 | 0.00 | 83 | 1012.4 |
| 20260901102004 | 13 | 107 | 3.2 | 8.0 | 0.00 | 0.00 | 0.00 | 83 | 1012.4 |
| 20260901101905 | 13 | 134 | 3.2 | 8.0 | 0.00 | 0.00 | 0.00 | 83 | 1012.4 |
| 20260901101806 | 13 | 146 | 3.2 | 8.0 | 0.00 | 0.00 | 0.00 | 83 | 1012.4 |
| 20260901101704 | 13 | 136 | 3.2 | 8.0 | 0.00 | 0.00 | 0.00 | 83 | 1012.4 |
| 20260901101603 | 13 | 141 | 3.2 | 8.0 | 0.00 | 0.00 | 0.00 | 83 | 1012.4 |
| 20260901101502 | 13 | 139 | 3.2 | 8.0 | 0.00 | 0.00 | 0.00 | 83 | 1012.4 |
| 20260901101401 | 13 | 162 | 3.2 | 8.0 | 0.00 | 0.00 | 0.00 | 83 | 1012.4 |
| 20260901101304 | 13 | 162 | 3.2 | 8.0 | 0.00 | 0.00 | 0.00 | 84 | 1012.3 |
| 20260901101258 | 13 | 165 | 3.2 | 8.0 | 0.00 | 0.00 | 0.00 | 84 | 1012.3 |
| 20260901101156 | 13 | 124 | 3.2 | 9.7 | 0.00 | 0.00 | 0.00 | 84 | 1012.4 |
| 20260901101057 | 13 | 214 | 3.2 | 9.7 | 0.00 | 0.00 | 0.00 | 84 | 1012.4 |
| 20260901100956 | 13 | 127 | 3.2 | 9.7 | 0.00 | 0.00 | 0.00 | 84 | 1012.4 |
| 20260901100854 | 13 | 113 | 3.2 | 9.7 | 0.00 | 0.00 | 0.00 | 84 | 1012.5 |
| 20260901100802 | 13 | 111 | 3.2 | 9.7 | 0.00 | 0.00 | 0.00 | 84 | 1012.4 |
| 20260901100752 | 13 | 138 | 3.2 | 9.7 | 0.00 | 0.00 | 0.00 | 84 | 1012.4 |
| 20260901100653 | 13 | 121 | 4.8 | 9.7 | 0.00 | 0.00 | 0.00 | 84 | 1012.4 |
| 20260901100551 | 13 | 146 | 3.2 | 9.7 | 0.00 | 0.00 | 0.00 | 84 | 1012.5 |
| 20260901100451 | 13 | 95 | 3.2 | 9.7 | 0.00 | 0.00 | 0.00 | 84 | 1012.5 |
| 20260901100348 | 13 | 119 | 3.2 | 9.7 | 0.00 | 0.00 | 0.00 | 84 | 1012.6 |
| 20260901100301 | 13 | 127 | 3.2 | 9.7 | 0.00 | 0.00 | 0.00 | 84 | 1012.6 |
| 20260901100246 | 13 | 146 | 3.2 | 9.7 | 0.00 | 0.00 | 0.00 | 84 | 1012.6 |
| 20260901100140 | 13 | 146 | 3.2 | 8.0 | 0.00 | 0.00 | 0.00 | 84 | 1012.5 |
| 20260901100040 | 13 | 136 | 3.2 | 8.0 | 0.00 | 0.00 | 0.00 | 84 | 1012.6 |
| 20260901095940 | 13 | 136 | 3.2 | 8.0 | 0.00 | 0.00 | 0.00 | 84 | 1012.6 |
| 20260901095840 | 13 | 169 | 3.2 | 8.0 | 0.00 | 0.00 | 0.00 | 84 | 1012.6 |
| 20260901095759 | 13 | 100 | 3.2 | 8.0 | 0.00 | 0.00 | 0.00 | 84 | 1012.6 |
| 20260901095739 | 13 | 114 | 3.2 | 8.0 | 0.00 | 0.00 | 0.00 | 84 | 1012.6 |
| 20260901095635 | 13 | 110 | 3.2 | 8.0 | 0.00 | 0.00 | 0.00 | 84 | 1012.6 |
| 20260901095535 | 13 | 146 | 3.2 | 8.0 | 0.00 | 0.00 | 0.00 | 84 | 1012.7 |
| 20260901095434 | 13 | 139 | 3.2 | 8.0 | 0.00 | 0.00 | 0.00 | 84 | 1012.7 |
| 20260901095334 | 13 | 120 | 3.2 | 8.0 | 0.00 | 0.00 | 0.00 | 84 | 1012.6 |
| 20260901095300 | 13 | 214 | 3.2 | 8.0 | 0.00 | 0.00 | 0.00 | 84 | 1012.6 |
| 20260901095234 | 13 | 230 | 3.2 | 8.0 | 0.00 | 0.00 | 0.00 | 84 | 1012.6 |
| 20260901095132 | 13 | 86 | 3.2 | 8.0 | 0.00 | 0.00 | 0.00 | 84 | 1012.7 |
| 20260901095033 | 13 | 84 | 3.2 | 8.0 | 0.00 | 0.00 | 0.00 | 84 | 1012.6 |
| 20260901094932 | 13 | 142 | 3.2 | 8.0 | 0.00 | 0.00 | 0.00 | 84 | 1012.6 |
| 20260901094830 | 13 | 141 | 3.2 | 8.0 | 0.00 | 0.00 | 0.00 | 84 | 1012.7 |
| 20260901094800 | 13 | 130 | 3.2 | 8.0 | 0.00 | 0.00 | 0.00 | 84 | 1012.6 |
| 20260901094729 | 13 | 150 | 3.2 | 8.0 | 0.00 | 0.00 | 0.00 | 84 | 1012.6 |
| 20260901094625 | 13 | 139 | 3.2 | 8.0 | 0.00 | 0.00 | 0.00 | 84 | 1012.7 |
| 20260901094528 | 13 | 146 | 3.2 | 8.0 | 0.00 | 0.00 | 0.00 | 84 | 1012.6 |
| 20260901094519 | 13 | 145 | 3.2 | 8.0 | 0.00 | 0.00 | 0.00 | 84 | 1012.5 |
| 20260901094424 | 13 | 138 | 3.2 | 8.0 | 0.00 | 0.00 | 0.00 | 84 | 1012.6 |
| 20260901094414 | 13 | 117 | 3.2 | 8.0 | 0.00 | 0.00 | 0.00 | 84 | 1012.6 |
| 20260901094222 | 13 | 155 | 3.2 | 8.0 | 0.00 | 0.00 | 0.00 | 84 | 1012.6 |
| 20260901094116 | 13 | 211 | 3.2 | 8.0 | 0.00 | 0.00 | 0.00 | 84 | 1012.6 |
| 20260901094021 | 13 | 100 | 3.2 | 8.0 | 0.00 | 0.00 | 0.00 | 84 | 1012.5 |
| 20260901093916 | 13 | 103 | 3.2 | 8.0 | 0.00 | 0.00 | 0.00 | 84 | 1012.5 |
| 20260901093816 | 13 | 143 | 3.2 | 8.0 | 0.00 | 0.00 | 0.00 | 84 | 1012.5 |
| 20260901093800 | 13 | 107 | 3.2 | 8.0 | 0.00 | 0.00 | 0.00 | 84 | 1012.6 |
| 20260901093716 | 13 | 117 | 3.2 | 8.0 | 0.00 | 0.00 | 0.00 | 84 | 1012.5 |
| 20260901093611 | 13 | 141 | 3.2 | 8.0 | 0.00 | 0.00 | 0.00 | 84 | 1012.5 |
| 20260901093531 | 13 | 150 | 3.2 | 8.0 | 0.00 | 0.00 | 0.00 | 84 | 1012.5 |
| 20260901093512 | 13 | 136 | 3.2 | 8.0 | 0.00 | 0.00 | 0.00 | 84 | 1012.5 |
| 20260901093435 | 13 | 141 | 3.2 | 8.0 | 0.00 | 0.00 | 0.00 | 84 | 1012.5 |
| 20260901093426 | 13 | 150 | 3.2 | 8.0 | 0.00 | 0.00 | 0.00 | 84 | 1012.5 |
| 20260901093210 | 13 | 191 | 3.2 | 8.0 | 0.00 | 0.00 | 0.00 | 84 | 1012.5 |
| 20260901093105 | 13 | 107 | 3.2 | 8.0 | 0.00 | 0.00 | 0.00 | 84 | 1012.5 |
| 20260901093004 | 13 | 96 | 3.2 | 8.0 | 0.00 | 0.00 | 0.00 | 84 | 1012.5 |
| 20260901092904 | 13 | 117 | 3.2 | 8.0 | 0.00 | 0.00 | 0.00 | 84 | 1012.5 |
| 20260901092810 | 13 | 139 | 3.2 | 8.0 | 0.00 | 0.00 | 0.00 | 84 | 1012.5 |
| 20260901092759 | 13 | 129 | 3.2 | 8.0 | 0.00 | 0.00 | 0.00 | 84 | 1012.5 |
| 20260901092705 | 13 | 124 | 3.2 | 8.0 | 0.00 | 0.00 | 0.00 | 84 | 1012.5 |
| 20260901092604 | 13 | 105 | 3.2 | 8.0 | 0.00 | 0.00 | 0.00 | 84 | 1012.5 |
| 20260901092503 | 13 | 104 | 3.2 | 8.0 | 0.00 | 0.00 | 0.00 | 84 | 1012.5 |
| 20260901092402 | 13 | 104 | 3.2 | 8.0 | 0.00 | 0.00 | 0.00 | 84 | 1012.5 |
| 20260901092300 | 13 | 165 | 3.2 | 8.0 | 0.00 | 0.00 | 0.00 | 84 | 1012.4 |
| 20260901092159 | 13 | 107 | 3.2 | 8.0 | 0.00 | 0.00 | 0.00 | 84 | 1012.5 |
| 20260901092053 | 13 | 114 | 3.2 | 8.0 | 0.00 | 0.00 | 0.00 | 84 | 1012.5 |
| 20260901091952 | 13 | 116 | 3.2 | 8.0 | 0.00 | 0.00 | 0.00 | 84 | 1012.5 |
| 20260901091852 | 13 | 114 | 3.2 | 8.0 | 0.00 | 0.00 | 0.00 | 84 | 1012.5 |
| 20260901091759 | 13 | 132 | 3.2 | 8.0 | 0.00 | 0.00 | 0.00 | 84 | 1012.6 |
| 20260901091753 | 13 | 121 | 3.2 | 8.0 | 0.00 | 0.00 | 0.00 | 84 | 1012.6 |
| 20260901091652 | 13 | 154 | 3.2 | 8.0 | 0.00 | 0.00 | 0.00 | 84 | 1012.5 |
| 20260901091548 | 13 | 115 | 3.2 | 8.0 | 0.00 | 0.00 | 0.00 | 84 | 1012.5 |
| 20260901091448 | 13 | 113 | 3.2 | 8.0 | 0.00 | 0.00 | 0.00 | 84 | 1012.6 |
| 20260901091348 | 13 | 129 | 3.2 | 8.0 | 0.00 | 0.00 | 0.00 | 84 | 1012.6 |
| 20260901091258 | 13 | 101 | 3.2 | 8.0 | 0.00 | 0.00 | 0.00 | 84 | 1012.6 |
| 20260901091248 | 13 | 158 | 3.2 | 8.0 | 0.00 | 0.00 | 0.00 | 84 | 1012.6 |
| 20260901091146 | 13 | 111 | 3.2 | 8.0 | 0.00 | 0.00 | 0.00 | 84 | 1012.6 |
| 20260901091042 | 13 | 135 | 1.6 | 8.0 | 0.00 | 0.00 | 0.00 | 84 | 1012.6 |
| 20260901090940 | 13 | 148 | 1.6 | 8.0 | 0.00 | 0.00 | 0.00 | 84 | 1012.7 |
| 20260901090840 | 13 | 110 | 1.6 | 8.0 | 0.00 | 0.00 | 0.00 | 84 | 1012.6 |
| 20260901090758 | 13 | 140 | 1.6 | 8.0 | 0.00 | 0.00 | 0.00 | 84 | 1012.6 |
| 20260901090741 | 13 | 141 | 1.6 | 8.0 | 0.00 | 0.00 | 0.00 | 84 | 1012.6 |
| 20260901090640 | 13 | 148 | 1.6 | 8.0 | 0.00 | 0.00 | 0.00 | 84 | 1012.6 |
| 20260901090536 | 13 | 155 | 1.6 | 8.0 | 0.00 | 0.00 | 0.00 | 84 | 1012.7 |
| 20260901090435 | 13 | 157 | 3.2 | 8.0 | 0.00 | 0.00 | 0.00 | 84 | 1012.7 |
| 20260901090334 | 13 | 115 | 1.6 | 8.0 | 0.00 | 0.00 | 0.00 | 84 | 1012.7 |
| 20260901090258 | 13 | 93 | 1.6 | 8.0 | 0.00 | 0.00 | 0.00 | 84 | 1012.7 |
| 20260901090234 | 13 | 93 | 1.6 | 8.0 | 0.00 | 0.00 | 0.00 | 83 | 1012.7 |
| 20260901090135 | 13 | 150 | 3.2 | 8.0 | 0.00 | 0.00 | 0.00 | 83 | 1012.7 |
| 20260901090032 | 13 | 141 | 3.2 | 8.0 | 0.00 | 0.00 | 0.00 | 83 | 1012.7 |
| 20260901085932 | 13 | 154 | 3.2 | 8.0 | 0.00 | 0.00 | 0.00 | 83 | 1012.7 |
| 20260901085832 | 13 | 91 | 3.2 | 4.8 | 0.00 | 0.00 | 0.00 | 83 | 1012.7 |
| 20260901085757 | 13 | 97 | 3.2 | 8.0 | 0.00 | 0.00 | 0.00 | 83 | 1012.7 |
| 20260901085732 | 13 | 105 | 3.2 | 8.0 | 0.00 | 0.00 | 0.00 | 83 | 1012.7 |
| 20260901085633 | 13 | 104 | 3.2 | 8.0 | 0.00 | 0.00 | 0.00 | 83 | 1012.7 |
| 20260901085525 | 13 | 88 | 3.2 | 12.9 | 0.00 | 0.00 | 0.00 | 83 | 1012.7 |
| 20260901085422 | 13 | 138 | 3.2 | 12.9 | 0.00 | 0.00 | 0.00 | 83 | 1012.7 |
| 20260901085323 | 13 | 121 | 3.2 | 12.9 | 0.00 | 0.00 | 0.00 | 83 | 1012.7 |
| 20260901085257 | 14 | 218 | 3.2 | 12.9 | 0.00 | 0.00 | 0.00 | 83 | 1012.7 |
| 20260901085221 | 14 | 115 | 3.2 | 12.9 | 0.00 | 0.00 | 0.00 | 83 | 1012.7 |
| 20260901085119 | 14 | 110 | 3.2 | 12.9 | 0.00 | 0.00 | 0.00 | 83 | 1012.7 |
| 20260901085012 | 14 | 162 | 3.2 | 12.9 | 0.00 | 0.00 | 0.00 | 83 | 1012.7 |
| 20260901084912 | 14 | 131 | 3.2 | 12.9 | 0.00 | 0.00 | 0.00 | 83 | 1012.7 |
| 20260901084813 | 14 | 138 | 3.2 | 12.9 | 0.00 | 0.00 | 0.00 | 83 | 1012.7 |
| 20260901084752 | 14 | 129 | 3.2 | 12.9 | 0.00 | 0.00 | 0.00 | 83 | 1012.7 |
| 20260901084712 | 14 | 138 | 4.8 | 12.9 | 0.00 | 0.00 | 0.00 | 83 | 1012.7 |
| 20260901084612 | 14 | 155 | 4.8 | 11.3 | 0.00 | 0.00 | 0.00 | 83 | 1012.7 |
| 20260901084511 | 14 | 155 | 3.2 | 11.3 | 0.00 | 0.00 | 0.00 | 83 | 1012.7 |
| 20260901084410 | 14 | 161 | 3.2 | 11.3 | 0.00 | 0.00 | 0.00 | 83 | 1012.7 |
| 20260901084310 | 14 | 124 | 3.2 | 11.3 | 0.00 | 0.00 | 0.00 | 83 | 1012.7 |
| 20260901084246 | 14 | 169 | 3.2 | 11.3 | 0.00 | 0.00 | 0.00 | 83 | 1012.7 |
| 20260901084209 | 14 | 120 | 4.8 | 11.3 | 0.00 | 0.00 | 0.00 | 83 | 1012.7 |
| 20260901084107 | 14 | 152 | 3.2 | 11.3 | 0.00 | 0.00 | 0.00 | 83 | 1012.7 |
| 20260901084000 | 14 | 144 | 4.8 | 11.3 | 0.00 | 0.00 | 0.00 | 83 | 1012.7 |
| 20260901083901 | 14 | 150 | 4.8 | 11.3 | 0.00 | 0.00 | 0.00 | 83 | 1012.7 |
| 20260901083800 | 14 | 141 | 4.8 | 12.9 | 0.00 | 0.00 | 0.00 | 83 | 1012.7 |
| 20260901083739 | 14 | 146 | 4.8 | 12.9 | 0.00 | 0.00 | 0.00 | 83 | 1012.7 |
| 20260901083700 | 14 | 146 | 4.8 | 12.9 | 0.00 | 0.00 | 0.00 | 83 | 1012.7 |
| 20260901083601 | 14 | 120 | 4.8 | 12.9 | 0.00 | 0.00 | 0.00 | 83 | 1012.7 |
| 20260901083459 | 14 | 120 | 4.8 | 12.9 | 0.00 | 0.00 | 0.00 | 83 | 1012.7 |
| 20260901083358 | 14 | 131 | 4.8 | 12.9 | 0.00 | 0.00 | 0.00 | 83 | 1012.7 |
| 20260901083256 | 14 | 146 | 4.8 | 12.9 | 0.00 | 0.00 | 0.00 | 83 | 1012.8 |
| 20260901083233 | 14 | 99 | 4.8 | 12.9 | 0.00 | 0.00 | 0.00 | 83 | 1012.8 |
| 20260901083156 | 14 | 155 | 4.8 | 12.9 | 0.00 | 0.00 | 0.00 | 83 | 1012.7 |
| 20260901083054 | 14 | 151 | 4.8 | 12.9 | 0.00 | 0.00 | 0.00 | 83 | 1012.7 |
| 20260901082948 | 14 | 145 | 4.8 | 12.9 | 0.00 | 0.00 | 0.00 | 83 | 1012.7 |
| 20260901082848 | 14 | 136 | 4.8 | 12.9 | 0.00 | 0.00 | 0.00 | 83 | 1012.7 |
| 20260901082749 | 14 | 155 | 4.8 | 11.3 | 0.00 | 0.00 | 0.00 | 83 | 1012.7 |
| 20260901082728 | 14 | 104 | 4.8 | 11.3 | 0.00 | 0.00 | 0.00 | 83 | 1012.7 |
| 20260901082648 | 14 | 148 | 3.2 | 11.3 | 0.00 | 0.00 | 0.00 | 83 | 1012.6 |
| 20260901082549 | 14 | 145 | 4.8 | 11.3 | 0.00 | 0.00 | 0.00 | 83 | 1012.6 |
| 20260901082444 | 14 | 169 | 4.8 | 11.3 | 0.00 | 0.00 | 0.00 | 83 | 1012.6 |
| 20260901082345 | 14 | 135 | 4.8 | 11.3 | 0.00 | 0.00 | 0.00 | 83 | 1012.6 |
| 20260901082244 | 14 | 143 | 4.8 | 11.3 | 0.00 | 0.00 | 0.00 | 83 | 1012.5 |
| 20260901082221 | 14 | 99 | 4.8 | 11.3 | 0.00 | 0.00 | 0.00 | 83 | 1012.5 |
| 20260901082144 | 14 | 125 | 4.8 | 11.3 | 0.00 | 0.00 | 0.00 | 83 | 1012.5 |
| 20260901082043 | 14 | 150 | 4.8 | 11.3 | 0.00 | 0.00 | 0.00 | 83 | 1012.6 |
| 20260901081945 | 14 | 125 | 4.8 | 11.3 | 0.00 | 0.00 | 0.00 | 83 | 1012.6 |
| 20260901081936 | 14 | 78 | 4.8 | 11.3 | 0.00 | 0.00 | 0.00 | 83 | 1012.6 |
| 20260901081837 | 14 | 146 | 4.8 | 11.3 | 0.00 | 0.00 | 0.00 | 83 | 1012.5 |
| 20260901081825 | 14 | 149 | 4.8 | 11.3 | 0.00 | 0.00 | 0.00 | 83 | 1012.5 |
| 20260901081636 | 14 | 154 | 4.8 | 11.3 | 0.00 | 0.00 | 0.00 | 83 | 1012.6 |
| 20260901081537 | 14 | 132 | 4.8 | 11.3 | 0.00 | 0.00 | 0.00 | 83 | 1012.5 |
| 20260901081430 | 14 | 145 | 4.8 | 11.3 | 0.00 | 0.00 | 0.00 | 83 | 1012.6 |
| 20260901081330 | 14 | 141 | 4.8 | 11.3 | 0.00 | 0.00 | 0.00 | 83 | 1012.6 |
| 20260901081230 | 14 | 154 | 4.8 | 12.9 | 0.00 | 0.00 | 0.00 | 83 | 1012.6 |
| 20260901081210 | 14 | 131 | 4.8 | 12.9 | 0.00 | 0.00 | 0.00 | 83 | 1012.6 |
| 20260901081130 | 14 | 146 | 4.8 | 12.9 | 0.00 | 0.00 | 0.00 | 83 | 1012.6 |
| 20260901081030 | 13 | 137 | 4.8 | 12.9 | 0.00 | 0.00 | 0.00 | 83 | 1012.6 |
| 20260901080926 | 13 | 172 | 4.8 | 12.9 | 0.00 | 0.00 | 0.00 | 83 | 1012.6 |
| 20260901080826 | 13 | 150 | 4.8 | 12.9 | 0.00 | 0.00 | 0.00 | 84 | 1012.5 |
| 20260901080726 | 13 | 131 | 4.8 | 12.9 | 0.00 | 0.00 | 0.00 | 83 | 1012.6 |
| 20260901080709 | 13 | 121 | 4.8 | 12.9 | 0.00 | 0.00 | 0.00 | 83 | 1012.5 |
| 20260901080626 | 13 | 138 | 4.8 | 12.9 | 0.00 | 0.00 | 0.00 | 83 | 1012.5 |
| 20260901080525 | 13 | 132 | 4.8 | 12.9 | 0.00 | 0.00 | 0.00 | 83 | 1012.6 |
| 20260901080418 | 13 | 182 | 4.8 | 12.9 | 0.00 | 0.00 | 0.00 | 83 | 1012.6 |
| 20260901080318 | 13 | 158 | 4.8 | 12.9 | 0.00 | 0.00 | 0.00 | 83 | 1012.6 |
| 20260901080218 | 13 | 146 | 4.8 | 11.3 | 0.00 | 0.00 | 0.00 | 83 | 1012.6 |
| 20260901080208 | 13 | 205 | 4.8 | 11.3 | 0.00 | 0.00 | 0.00 | 83 | 1012.6 |
| 20260901080118 | 13 | 135 | 4.8 | 11.3 | 0.00 | 0.00 | 0.00 | 83 | 1012.6 |
| 20260901080017 | 13 | 158 | 4.8 | 11.3 | 0.00 | 0.00 | 0.00 | 83 | 1012.5 |
| 20260901075912 | 13 | 143 | 4.8 | 11.3 | 0.00 | 0.00 | 0.00 | 83 | 1012.5 |
| 20260901075812 | 14 | 148 | 3.2 | 11.3 | 0.00 | 0.00 | 0.00 | 83 | 1012.4 |
| 20260901075722 | 14 | 146 | 3.2 | 11.3 | 0.00 | 0.00 | 0.00 | 83 | 1012.5 |
| 20260901075712 | 14 | 148 | 3.2 | 11.3 | 0.00 | 0.00 | 0.00 | 83 | 1012.5 |
| 20260901075612 | 14 | 115 | 3.2 | 11.3 | 0.00 | 0.00 | 0.00 | 83 | 1012.5 |
| 20260901075513 | 14 | 150 | 3.2 | 11.3 | 0.00 | 0.00 | 0.00 | 83 | 1012.5 |
| 20260901075408 | 14 | 134 | 3.2 | 11.3 | 0.00 | 0.00 | 0.00 | 83 | 1012.4 |
| 20260901075309 | 14 | 131 | 3.2 | 11.3 | 0.00 | 0.00 | 0.00 | 83 | 1012.4 |
| 20260901075212 | 14 | 174 | 3.2 | 11.3 | 0.00 | 0.00 | 0.00 | 83 | 1012.4 |
| 20260901075206 | 14 | 173 | 3.2 | 11.3 | 0.00 | 0.00 | 0.00 | 83 | 1012.4 |
| 20260901075107 | 14 | 129 | 3.2 | 11.3 | 0.00 | 0.00 | 0.00 | 83 | 1012.4 |
| 20260901075006 | 14 | 139 | 3.2 | 8.0 | 0.00 | 0.00 | 0.00 | 83 | 1012.4 |
| 20260901074935 | 14 | 136 | 3.2 | 11.3 | 0.00 | 0.00 | 0.00 | 83 | 1012.4 |
| 20260901074901 | 14 | 140 | 3.2 | 11.3 | 0.00 | 0.00 | 0.00 | 83 | 1012.4 |
| 20260901074816 | 14 | 144 | 3.2 | 11.3 | 0.00 | 0.00 | 0.00 | 83 | 1012.4 |
| 20260901074700 | 14 | 146 | 3.2 | 11.3 | 0.00 | 0.00 | 0.00 | 83 | 1012.4 |
| 20260901074601 | 14 | 138 | 3.2 | 11.3 | 0.00 | 0.00 | 0.00 | 83 | 1012.4 |
| 20260901074500 | 14 | 136 | 3.2 | 11.3 | 0.00 | 0.00 | 0.00 | 83 | 1012.4 |
| 20260901074356 | 14 | 164 | 4.8 | 11.3 | 0.00 | 0.00 | 0.00 | 83 | 1012.4 |
| 20260901074256 | 14 | 148 | 4.8 | 11.3 | 0.00 | 0.00 | 0.00 | 83 | 1012.3 |
| 20260901074206 | 14 | 117 | 4.8 | 11.3 | 0.00 | 0.00 | 0.00 | 83 | 1012.3 |
| 20260901074156 | 14 | 139 | 4.8 | 11.3 | 0.00 | 0.00 | 0.00 | 83 | 1012.3 |
| 20260901074056 | 14 | 166 | 4.8 | 11.3 | 0.00 | 0.00 | 0.00 | 83 | 1012.3 |
| 20260901073953 | 14 | 89 | 4.8 | 11.3 | 0.00 | 0.00 | 0.00 | 83 | 1012.3 |
| 20260901073853 | 14 | 150 | 4.8 | 9.7 | 0.00 | 0.00 | 0.00 | 83 | 1012.4 |
| 20260901073752 | 14 | 139 | 4.8 | 9.7 | 0.00 | 0.00 | 0.00 | 83 | 1012.3 |
| 20260901073706 | 14 | 144 | 4.8 | 9.7 | 0.00 | 0.00 | 0.00 | 83 | 1012.3 |
| 20260901073653 | 14 | 148 | 4.8 | 9.7 | 0.00 | 0.00 | 0.00 | 83 | 1012.3 |
| 20260901073558 | 14 | 134 | 4.8 | 9.7 | 0.00 | 0.00 | 0.00 | 83 | 1012.3 |
| 20260901073452 | 14 | 139 | 4.8 | 9.7 | 0.00 | 0.00 | 0.00 | 83 | 1012.4 |
| 20260901073342 | 14 | 130 | 4.8 | 9.7 | 0.00 | 0.00 | 0.00 | 83 | 1012.4 |
| 20260901073242 | 14 | 148 | 4.8 | 9.7 | 0.00 | 0.00 | 0.00 | 83 | 1012.3 |
| 20260901073203 | 14 | 167 | 4.8 | 9.7 | 0.00 | 0.00 | 0.00 | 83 | 1012.4 |
| 20260901073143 | 14 | 104 | 4.8 | 9.7 | 0.00 | 0.00 | 0.00 | 83 | 1012.4 |
| 20260901073044 | 14 | 141 | 3.2 | 9.7 | 0.00 | 0.00 | 0.00 | 83 | 1012.3 |
| 20260901072942 | 14 | 221 | 3.2 | 9.7 | 0.00 | 0.00 | 0.00 | 83 | 1012.4 |
| 20260901072840 | 14 | 165 | 3.2 | 9.7 | 0.00 | 0.00 | 0.00 | 83 | 1012.4 |
| 20260901072740 | 14 | 150 | 3.2 | 9.7 | 0.00 | 0.00 | 0.00 | 83 | 1012.4 |
| 20260901072704 | 14 | 146 | 3.2 | 9.7 | 0.00 | 0.00 | 0.00 | 83 | 1012.4 |
| 20260901072640 | 14 | 141 | 3.2 | 9.7 | 0.00 | 0.00 | 0.00 | 82 | 1012.4 |
| 20260901072539 | 14 | 127 | 3.2 | 9.7 | 0.00 | 0.00 | 0.00 | 82 | 1012.4 |
| 20260901072436 | 14 | 158 | 3.2 | 9.7 | 0.00 | 0.00 | 0.00 | 82 | 1012.4 |
| 20260901072332 | 14 | 144 | 3.2 | 11.3 | 0.00 | 0.00 | 0.00 | 82 | 1012.3 |
| 20260901072230 | 14 | 138 | 3.2 | 11.3 | 0.00 | 0.00 | 0.00 | 82 | 1012.4 |
| 20260901072203 | 14 | 139 | 3.2 | 11.3 | 0.00 | 0.00 | 0.00 | 82 | 1012.4 |
| 20260901072130 | 14 | 145 | 3.2 | 11.3 | 0.00 | 0.00 | 0.00 | 82 | 1012.4 |
| 20260901072030 | 14 | 128 | 3.2 | 11.3 | 0.00 | 0.00 | 0.00 | 82 | 1012.4 |
| 20260901071930 | 14 | 146 | 4.8 | 11.3 | 0.00 | 0.00 | 0.00 | 82 | 1012.4 |
| 20260901071824 | 14 | 136 | 4.8 | 11.3 | 0.00 | 0.00 | 0.00 | 82 | 1012.4 |
| 20260901071725 | 14 | 139 | 4.8 | 11.3 | 0.00 | 0.00 | 0.00 | 82 | 1012.4 |
| 20260901071701 | 14 | 136 | 3.2 | 11.3 | 0.00 | 0.00 | 0.00 | 82 | 1012.3 |
| 20260901071624 | 14 | 150 | 3.2 | 11.3 | 0.00 | 0.00 | 0.00 | 82 | 1012.3 |
| 20260901071525 | 14 | 142 | 3.2 | 11.3 | 0.00 | 0.00 | 0.00 | 82 | 1012.4 |
| 20260901071429 | 14 | 146 | 4.8 | 11.3 | 0.00 | 0.00 | 0.00 | 82 | 1012.3 |
| 20260901071423 | 14 | 134 | 4.8 | 11.3 | 0.00 | 0.00 | 0.00 | 82 | 1012.3 |
| 20260901071325 | 14 | 125 | 4.8 | 11.3 | 0.00 | 0.00 | 0.00 | 82 | 1012.3 |
| 20260901071312 | 14 | 148 | 4.8 | 11.3 | 0.00 | 0.00 | 0.00 | 82 | 1012.3 |
| 20260901071119 | 14 | 136 | 4.8 | 11.3 | 0.00 | 0.00 | 0.00 | 82 | 1012.3 |
| 20260901071021 | 14 | 134 | 4.8 | 11.3 | 0.00 | 0.00 | 0.00 | 82 | 1012.3 |
| 20260901070918 | 14 | 132 | 3.2 | 9.7 | 0.00 | 0.00 | 0.00 | 82 | 1012.3 |
| 20260901070813 | 14 | 214 | 3.2 | 9.7 | 0.00 | 0.00 | 0.00 | 82 | 1012.3 |
| 20260901070713 | 14 | 127 | 4.8 | 9.7 | 0.00 | 0.00 | 0.00 | 82 | 1012.3 |
| 20260901070701 | 14 | 146 | 4.8 | 9.7 | 0.00 | 0.00 | 0.00 | 82 | 1012.3 |
| 20260901070612 | 14 | 146 | 3.2 | 9.7 | 0.00 | 0.00 | 0.00 | 82 | 1012.3 |
| 20260901070515 | 14 | 141 | 3.2 | 9.7 | 0.00 | 0.00 | 0.00 | 81 | 1012.4 |
| 20260901070412 | 15 | 122 | 3.2 | 9.7 | 0.00 | 0.00 | 0.00 | 81 | 1012.4 |
| 20260901070312 | 15 | 100 | 3.2 | 8.0 | 0.00 | 0.00 | 0.00 | 81 | 1012.4 |
| 20260901070215 | 15 | 148 | 3.2 | 8.0 | 0.00 | 0.00 | 0.00 | 81 | 1012.4 |
| 20260901070201 | 15 | 175 | 3.2 | 8.0 | 0.00 | 0.00 | 0.00 | 81 | 1012.4 |
| 20260901070114 | 15 | 139 | 3.2 | 8.0 | 0.00 | 0.00 | 0.00 | 81 | 1012.4 |
| 20260901070017 | 15 | 149 | 3.2 | 8.0 | 0.00 | 0.00 | 0.00 | 81 | 1012.4 |
| 20260901065925 | 15 | 199 | 3.2 | 8.0 | 0.00 | 0.00 | 0.00 | 81 | 1012.4 |
| 20260901065910 | 15 | 149 | 3.2 | 8.0 | 0.00 | 0.00 | 0.00 | 81 | 1012.4 |
| 20260901065811 | 15 | 143 | 3.2 | 8.0 | 0.00 | 0.00 | 0.00 | 81 | 1012.4 |
| 20260901065711 | 15 | 200 | 3.2 | 8.0 | 0.00 | 0.00 | 0.00 | 81 | 1012.4 |
| 20260901065609 | 15 | 139 | 4.8 | 12.9 | 0.00 | 0.00 | 0.00 | 80 | 1012.3 |
| 20260901065506 | 15 | 168 | 4.8 | 12.9 | 0.00 | 0.00 | 0.00 | 80 | 1012.3 |
| 20260901065407 | 15 | 168 | 3.2 | 12.9 | 0.00 | 0.00 | 0.00 | 80 | 1012.4 |
| 20260901065306 | 15 | 155 | 3.2 | 12.9 | 0.00 | 0.00 | 0.00 | 80 | 1012.3 |
| 20260901065212 | 15 | 201 | 3.2 | 12.9 | 0.00 | 0.00 | 0.00 | 80 | 1012.3 |
| 20260901065059 | 15 | 143 | 4.8 | 12.9 | 0.00 | 0.00 | 0.00 | 80 | 1012.3 |
| 20260901064959 | 15 | 167 | 4.8 | 12.9 | 0.00 | 0.00 | 0.00 | 80 | 1012.3 |
| 20260901064859 | 15 | 139 | 4.8 | 12.9 | 0.00 | 0.00 | 0.00 | 80 | 1012.3 |
| 20260901064758 | 15 | 99 | 4.8 | 12.9 | 0.00 | 0.00 | 0.00 | 80 | 1012.3 |
| 20260901064659 | 15 | 152 | 4.8 | 12.9 | 0.00 | 0.00 | 0.00 | 80 | 1012.3 |
| 20260901064554 | 15 | 130 | 4.8 | 9.7 | 0.00 | 0.00 | 0.00 | 80 | 1012.3 |
| 20260901064455 | 15 | 146 | 4.8 | 11.3 | 0.00 | 0.00 | 0.00 | 80 | 1012.3 |
| 20260901064353 | 15 | 129 | 4.8 | 11.3 | 0.00 | 0.00 | 0.00 | 80 | 1012.4 |
| 20260901064253 | 15 | 179 | 4.8 | 11.3 | 0.00 | 0.00 | 0.00 | 80 | 1012.4 |
| 20260901064153 | 15 | 129 | 4.8 | 11.3 | 0.00 | 0.00 | 0.00 | 80 | 1012.3 |
| 20260901064046 | 15 | 120 | 4.8 | 11.3 | 0.00 | 0.00 | 0.00 | 80 | 1012.3 |
| 20260901063946 | 15 | 158 | 4.8 | 11.3 | 0.00 | 0.00 | 0.00 | 80 | 1012.3 |
| 20260901063847 | 15 | 113 | 4.8 | 11.3 | 0.00 | 0.00 | 0.00 | 80 | 1012.3 |
| 20260901063746 | 15 | 143 | 4.8 | 11.3 | 0.00 | 0.00 | 0.00 | 80 | 1012.3 |
| 20260901063648 | 15 | 204 | 4.8 | 11.3 | 0.00 | 0.00 | 0.00 | 80 | 1012.3 |
| 20260901063541 | 15 | 172 | 4.8 | 11.3 | 0.00 | 0.00 | 0.00 | 80 | 1012.3 |
| 20260901063441 | 15 | 141 | 4.8 | 11.3 | 0.00 | 0.00 | 0.00 | 80 | 1012.3 |
| 20260901063341 | 15 | 132 | 4.8 | 12.9 | 0.00 | 0.00 | 0.00 | 80 | 1012.3 |
| 20260901063240 | 15 | 159 | 4.8 | 12.9 | 0.00 | 0.00 | 0.00 | 80 | 1012.3 |
| 20260901063141 | 15 | 129 | 4.8 | 12.9 | 0.00 | 0.00 | 0.00 | 79 | 1012.4 |
| 20260901063036 | 15 | 110 | 4.8 | 12.9 | 0.00 | 0.00 | 0.00 | 79 | 1012.3 |
| 20260901062935 | 15 | 193 | 4.8 | 12.9 | 0.00 | 0.00 | 0.00 | 79 | 1012.3 |
| 20260901062835 | 15 | 155 | 4.8 | 12.9 | 0.00 | 0.00 | 0.00 | 79 | 1012.3 |
| 20260901062734 | 15 | 136 | 4.8 | 12.9 | 0.00 | 0.00 | 0.00 | 79 | 1012.4 |
| 20260901062636 | 15 | 144 | 4.8 | 12.9 | 0.00 | 0.00 | 0.00 | 79 | 1012.3 |
| 20260901062532 | 15 | 191 | 4.8 | 12.9 | 0.00 | 0.00 | 0.00 | 79 | 1012.3 |
| 20260901062431 | 15 | 113 | 4.8 | 12.9 | 0.00 | 0.00 | 0.00 | 79 | 1012.3 |
| 20260901062331 | 15 | 145 | 3.2 | 9.7 | 0.00 | 0.00 | 0.00 | 79 | 1012.3 |
| 20260901062231 | 15 | 195 | 3.2 | 9.7 | 0.00 | 0.00 | 0.00 | 79 | 1012.3 |
| 20260901062138 | 15 | 166 | 3.2 | 9.7 | 0.00 | 0.00 | 0.00 | 79 | 1012.3 |
| 20260901062032 | 15 | 204 | 3.2 | 9.7 | 0.00 | 0.00 | 0.00 | 79 | 1012.3 |
| 20260901061925 | 15 | 121 | 3.2 | 9.7 | 0.00 | 0.00 | 0.00 | 79 | 1012.3 |
| 20260901061829 | 15 | 142 | 3.2 | 9.7 | 0.00 | 0.00 | 0.00 | 79 | 1012.3 |
| 20260901061723 | 15 | 221 | 3.2 | 9.7 | 0.00 | 0.00 | 0.00 | 80 | 1012.4 |
| 20260901061624 | 15 | 207 | 3.2 | 9.7 | 0.00 | 0.00 | 0.00 | 80 | 1012.4 |
| 20260901061518 | 15 | 179 | 3.2 | 9.7 | 0.00 | 0.00 | 0.00 | 80 | 1012.3 |
| 20260901061420 | 15 | 145 | 3.2 | 8.0 | 0.00 | 0.00 | 0.00 | 80 | 1012.4 |
| 20260901061317 | 15 | 214 | 4.8 | 8.0 | 0.00 | 0.00 | 0.00 | 79 | 1012.4 |
| 20260901061217 | 15 | 128 | 4.8 | 8.0 | 0.00 | 0.00 | 0.00 | 79 | 1012.4 |
| 20260901061118 | 15 | 110 | 4.8 | 8.0 | 0.00 | 0.00 | 0.00 | 79 | 1012.4 |
| 20260901061011 | 15 | 135 | 3.2 | 8.0 | 0.00 | 0.00 | 0.00 | 79 | 1012.3 |
| 20260901060910 | 15 | 300 | 4.8 | 8.0 | 0.00 | 0.00 | 0.00 | 80 | 1012.4 |
| 20260901060810 | 15 | 188 | 3.2 | 8.0 | 0.00 | 0.00 | 0.00 | 80 | 1012.4 |
| 20260901060710 | 15 | 150 | 3.2 | 8.0 | 0.00 | 0.00 | 0.00 | 80 | 1012.4 |
| 20260901060611 | 15 | 210 | 3.2 | 8.0 | 0.00 | 0.00 | 0.00 | 80 | 1012.4 |
| 20260901060508 | 15 | 222 | 3.2 | 8.0 | 0.00 | 0.00 | 0.00 | 80 | 1012.4 |
| 20260901060406 | 15 | 201 | 3.2 | 8.0 | 0.00 | 0.00 | 0.00 | 80 | 1012.3 |
| 20260901060306 | 15 | 207 | 3.2 | 6.4 | 0.00 | 0.00 | 0.00 | 80 | 1012.3 |
| 20260901060207 | 15 | 198 | 3.2 | 6.4 | 0.00 | 0.00 | 0.00 | 80 | 1012.3 |
| 20260901060118 | 15 | 142 | 3.2 | 16.1 | 0.00 | 0.00 | 0.00 | 80 | 1012.3 |
| 20260901060000 | 15 | 111 | 3.2 | 16.1 | 0.00 | 0.00 | 0.00 | 80 | 1012.3 |
| 20260901055858 | 15 | 229 | 3.2 | 16.1 | 0.00 | 0.00 | 0.00 | 80 | 1012.3 |
| 20260901055759 | 15 | 123 | 3.2 | 16.1 | 0.00 | 0.00 | 0.00 | 80 | 1012.3 |
| 20260901055659 | 15 | 205 | 3.2 | 16.1 | 0.00 | 0.00 | 0.00 | 80 | 1012.3 |
| 20260901055607 | 15 | 256 | 3.2 | 16.1 | 0.00 | 0.00 | 0.00 | 80 | 1012.3 |
| 20260901055504 | 15 | 158 | 3.2 | 16.1 | 0.00 | 0.00 | 0.00 | 80 | 1012.3 |
| 20260901055401 | 15 | 144 | 3.2 | 16.1 | 0.00 | 0.00 | 0.00 | 80 | 1012.3 |
| 20260901055307 | 15 | 201 | 3.2 | 16.1 | 0.00 | 0.00 | 0.00 | 80 | 1012.3 |
| 20260901055159 | 15 | 204 | 3.2 | 16.1 | 0.00 | 0.00 | 0.00 | 80 | 1012.3 |
| 20260901055058 | 15 | 127 | 3.2 | 8.0 | 0.00 | 0.00 | 0.00 | 80 | 1012.3 |
| 20260901054955 | 15 | 228 | 3.2 | 8.0 | 0.00 | 0.00 | 0.00 | 80 | 1012.3 |
| 20260901054900 | 15 | 238 | 3.2 | 8.0 | 0.00 | 0.00 | 0.00 | 80 | 1012.2 |
| 20260901054757 | 15 | 198 | 3.2 | 8.0 | 0.00 | 0.00 | 0.00 | 80 | 1012.2 |
| 20260901054654 | 15 | 154 | 1.6 | 8.0 | 0.00 | 0.00 | 0.00 | 80 | 1012.3 |
| 20260901054551 | 15 | 225 | 1.6 | 8.0 | 0.00 | 0.00 | 0.00 | 80 | 1012.3 |
| 20260901054441 | 15 | 131 | 1.6 | 6.4 | 0.00 | 0.00 | 0.00 | 80 | 1012.3 |
| 20260901054340 | 15 | 186 | 1.6 | 6.4 | 0.00 | 0.00 | 0.00 | 80 | 1012.3 |
| 20260901054241 | 15 | 125 | 1.6 | 8.0 | 0.00 | 0.00 | 0.00 | 80 | 1012.2 |
| 20260901054141 | 15 | 150 | 1.6 | 8.0 | 0.00 | 0.00 | 0.00 | 80 | 1012.2 |
| 20260901054042 | 15 | 139 | 3.2 | 8.0 | 0.00 | 0.00 | 0.00 | 80 | 1012.1 |
| 20260901053935 | 15 | 164 | 3.2 | 8.0 | 0.00 | 0.00 | 0.00 | 80 | 1012.1 |
| 20260901053835 | 15 | 129 | 3.2 | 8.0 | 0.00 | 0.00 | 0.00 | 80 | 1012.1 |
| 20260901053735 | 15 | 129 | 3.2 | 8.0 | 0.00 | 0.00 | 0.00 | 80 | 1012.1 |
| 20260901053634 | 15 | 232 | 3.2 | 9.7 | 0.00 | 0.00 | 0.00 | 80 | 1012.1 |
| 20260901053537 | 15 | 214 | 3.2 | 9.7 | 0.00 | 0.00 | 0.00 | 79 | 1012.1 |
| 20260901053428 | 15 | 135 | 4.8 | 9.7 | 0.00 | 0.00 | 0.00 | 79 | 1012.1 |
| 20260901053328 | 15 | 136 | 3.2 | 9.7 | 0.00 | 0.00 | 0.00 | 79 | 1012.1 |
| 20260901053251 | 15 | 158 | 3.2 | 9.7 | 0.00 | 0.00 | 0.00 | 79 | 1012.1 |
| 20260901053229 | 15 | 162 | 3.2 | 9.7 | 0.00 | 0.00 | 0.00 | 79 | 1012.1 |
| 20260901053144 | 15 | 200 | 3.2 | 9.7 | 0.00 | 0.00 | 0.00 | 79 | 1012.1 |
| 20260901053134 | 15 | 158 | 3.2 | 9.7 | 0.00 | 0.00 | 0.00 | 79 | 1012.1 |
| 20260901052927 | 15 | 222 | 3.2 | 9.7 | 0.00 | 0.00 | 0.00 | 79 | 1012.1 |
| 20260901052826 | 15 | 208 | 4.8 | 9.7 | 0.00 | 0.00 | 0.00 | 79 | 1012.1 |
| 20260901052725 | 15 | 224 | 3.2 | 9.7 | 0.00 | 0.00 | 0.00 | 79 | 1012.1 |
| 20260901052630 | 15 | 228 | 3.2 | 9.7 | 0.00 | 0.00 | 0.00 | 79 | 1012.2 |
| 20260901052524 | 15 | 146 | 4.8 | 9.7 | 0.00 | 0.00 | 0.00 | 79 | 1012.2 |
| 20260901052416 | 15 | 116 | 4.8 | 9.7 | 0.00 | 0.00 | 0.00 | 79 | 1012.2 |
| 20260901052317 | 15 | 225 | 4.8 | 9.7 | 0.00 | 0.00 | 0.00 | 79 | 1012.3 |
| 20260901052216 | 15 | 188 | 4.8 | 9.7 | 0.00 | 0.00 | 0.00 | 79 | 1012.3 |
| 20260901052117 | 15 | 141 | 4.8 | 9.7 | 0.00 | 0.00 | 0.00 | 79 | 1012.3 |
| 20260901052018 | 15 | 236 | 4.8 | 9.7 | 0.00 | 0.00 | 0.00 | 79 | 1012.2 |
| 20260901051911 | 15 | 219 | 3.2 | 9.7 | 0.00 | 0.00 | 0.00 | 79 | 1012.1 |
| 20260901051811 | 15 | 207 | 3.2 | 9.7 | 0.00 | 0.00 | 0.00 | 79 | 1012.1 |
| 20260901051738 | 15 | 219 | 3.2 | 8.0 | 0.00 | 0.00 | 0.00 | 79 | 1012.2 |
| 20260901051717 | 15 | 211 | 3.2 | 9.7 | 0.00 | 0.00 | 0.00 | 79 | 1012.1 |
| 20260901051629 | 15 | 226 | 3.2 | 8.0 | 0.00 | 0.00 | 0.00 | 79 | 1012.1 |
| 20260901051619 | 15 | 219 | 3.2 | 8.0 | 0.00 | 0.00 | 0.00 | 79 | 1012.2 |
| 20260901051411 | 15 | 233 | 3.2 | 8.0 | 0.00 | 0.00 | 0.00 | 79 | 1012.1 |
| 20260901051308 | 16 | 212 | 3.2 | 8.0 | 0.00 | 0.00 | 0.00 | 79 | 1012.1 |
| 20260901051209 | 16 | 229 | 4.8 | 11.3 | 0.00 | 0.00 | 0.00 | 79 | 1012.1 |
| 20260901051107 | 16 | 168 | 4.8 | 11.3 | 0.00 | 0.00 | 0.00 | 78 | 1012.1 |
| 20260901051005 | 16 | 121 | 4.8 | 11.3 | 0.00 | 0.00 | 0.00 | 78 | 1012.1 |
| 20260901050859 | 16 | 212 | 4.8 | 16.1 | 0.00 | 0.00 | 0.00 | 78 | 1012.2 |
| 20260901050759 | 16 | 201 | 6.4 | 16.1 | 0.00 | 0.00 | 0.00 | 78 | 1012.1 |
| 20260901050725 | 16 | 218 | 6.4 | 16.1 | 0.00 | 0.00 | 0.00 | 78 | 1012.2 |
| 20260901050658 | 16 | 143 | 6.4 | 16.1 | 0.00 | 0.00 | 0.00 | 78 | 1012.1 |
| 20260901050614 | 16 | 150 | 6.4 | 16.1 | 0.00 | 0.00 | 0.00 | 78 | 1012.2 |
| 20260901050604 | 16 | 218 | 6.4 | 16.1 | 0.00 | 0.00 | 0.00 | 78 | 1012.2 |
| 20260901050354 | 16 | 136 | 6.4 | 16.1 | 0.00 | 0.00 | 0.00 | 78 | 1012.1 |
| 20260901050256 | 16 | 169 | 4.8 | 16.1 | 0.00 | 0.00 | 0.00 | 78 | 1012.1 |
| 20260901050155 | 16 | 207 | 6.4 | 16.1 | 0.00 | 0.00 | 0.00 | 78 | 1012.0 |
| 20260901050055 | 16 | 193 | 6.4 | 16.1 | 0.00 | 0.00 | 0.00 | 78 | 1012.0 |
| 20260901045954 | 16 | 245 | 6.4 | 16.1 | 0.00 | 0.00 | 0.00 | 78 | 1012.0 |
| 20260901045846 | 16 | 219 | 6.4 | 17.7 | 0.00 | 0.00 | 0.00 | 78 | 1012.0 |
| 20260901045747 | 16 | 205 | 6.4 | 19.3 | 0.00 | 0.00 | 0.00 | 78 | 1012.0 |
| 20260901045708 | 16 | 158 | 6.4 | 19.3 | 0.00 | 0.00 | 0.00 | 78 | 1012.0 |
| 20260901045646 | 16 | 231 | 6.4 | 19.3 | 0.00 | 0.00 | 0.00 | 78 | 1012.0 |
| 20260901045602 | 16 | 169 | 6.4 | 19.3 | 0.00 | 0.00 | 0.00 | 77 | 1012.0 |
| 20260901045552 | 16 | 158 | 6.4 | 19.3 | 0.00 | 0.00 | 0.00 | 78 | 1012.0 |
| 20260901045345 | 16 | 219 | 6.4 | 19.3 | 0.00 | 0.00 | 0.00 | 77 | 1012.1 |
| 20260901045242 | 16 | 246 | 8.0 | 19.3 | 0.00 | 0.00 | 0.00 | 77 | 1012.0 |
| 20260901045145 | 16 | 232 | 6.4 | 19.3 | 0.00 | 0.00 | 0.00 | 77 | 1012.0 |
| 20260901045045 | 16 | 154 | 6.4 | 19.3 | 0.00 | 0.00 | 0.00 | 77 | 1012.0 |
| 20260901044835 | 16 | 255 | 6.4 | 19.3 | 0.00 | 0.00 | 0.00 | 77 | 1012.1 |
| 20260901044735 | 16 | 218 | 6.4 | 14.5 | 0.00 | 0.00 | 0.00 | 77 | 1012.0 |
| 20260901044652 | 16 | 143 | 8.0 | 17.7 | 0.00 | 0.00 | 0.00 | 77 | 1012.0 |
| 20260901044635 | 16 | 179 | 6.4 | 17.7 | 0.00 | 0.00 | 0.00 | 77 | 1012.0 |
| 20260901044550 | 16 | 236 | 6.4 | 17.7 | 0.00 | 0.00 | 0.00 | 77 | 1012.0 |
| 20260901044540 | 16 | 143 | 8.0 | 17.7 | 0.00 | 0.00 | 0.00 | 77 | 1012.0 |
| 20260901044329 | 16 | 207 | 8.0 | 22.5 | 0.00 | 0.00 | 0.00 | 77 | 1011.9 |
| 20260901044229 | 16 | 212 | 8.0 | 22.5 | 0.00 | 0.00 | 0.00 | 77 | 1011.9 |
| 20260901044150 | 16 | 248 | 8.0 | 22.5 | 0.00 | 0.00 | 0.00 | 77 | 1012.0 |
| 20260901044128 | 16 | 203 | 8.0 | 22.5 | 0.00 | 0.00 | 0.00 | 77 | 1012.0 |
| 20260901044045 | 16 | 230 | 8.0 | 22.5 | 0.00 | 0.00 | 0.00 | 77 | 1011.9 |
| 20260901044034 | 16 | 248 | 8.0 | 22.5 | 0.00 | 0.00 | 0.00 | 77 | 1012.0 |
| 20260901043823 | 16 | 204 | 8.0 | 22.5 | 0.00 | 0.00 | 0.00 | 77 | 1012.0 |
| 20260901043722 | 16 | 243 | 8.0 | 22.5 | 0.00 | 0.00 | 0.00 | 77 | 1011.9 |
| 20260901043641 | 16 | 220 | 6.4 | 22.5 | 0.00 | 0.00 | 0.00 | 77 | 1012.0 |
| 20260901043623 | 16 | 210 | 8.0 | 22.5 | 0.00 | 0.00 | 0.00 | 77 | 1011.9 |
| 20260901043549 | 16 | 190 | 8.0 | 22.5 | 0.00 | 0.00 | 0.00 | 77 | 1012.0 |
| 20260901043528 | 16 | 220 | 6.4 | 22.5 | 0.00 | 0.00 | 0.00 | 77 | 1012.0 |
| 20260901043317 | 16 | 248 | 6.4 | 19.3 | 0.00 | 0.00 | 0.00 | 77 | 1012.0 |
| 20260901043216 | 16 | 163 | 6.4 | 19.3 | 0.00 | 0.00 | 0.00 | 76 | 1011.9 |
| 20260901043117 | 16 | 276 | 6.4 | 19.3 | 0.00 | 0.00 | 0.00 | 76 | 1012.0 |
| 20260901043018 | 16 | 153 | 6.4 | 19.3 | 0.00 | 0.00 | 0.00 | 76 | 1012.0 |
| 20260901042918 | 16 | 146 | 6.4 | 19.3 | 0.00 | 0.00 | 0.00 | 76 | 1011.9 |
| 20260901042812 | 16 | 204 | 6.4 | 19.3 | 0.00 | 0.00 | 0.00 | 76 | 1011.9 |
| 20260901042711 | 16 | 205 | 6.4 | 19.3 | 0.00 | 0.00 | 0.00 | 76 | 1012.0 |
| 20260901042610 | 16 | 212 | 6.4 | 19.3 | 0.00 | 0.00 | 0.00 | 76 | 1011.9 |
| 20260901042515 | 16 | 239 | 6.4 | 19.3 | 0.00 | 0.00 | 0.00 | 76 | 1011.9 |
| 20260901042411 | 16 | 212 | 6.4 | 19.3 | 0.00 | 0.00 | 0.00 | 76 | 1011.9 |
| 20260901042307 | 16 | 158 | 8.0 | 14.5 | 0.00 | 0.00 | 0.00 | 76 | 1011.9 |
| 20260901042211 | 16 | 141 | 8.0 | 19.3 | 0.00 | 0.00 | 0.00 | 76 | 1011.9 |
| 20260901042109 | 16 | 235 | 8.0 | 22.5 | 0.00 | 0.00 | 0.00 | 76 | 1011.8 |
| 20260901042005 | 16 | 154 | 9.7 | 22.5 | 0.00 | 0.00 | 0.00 | 76 | 1011.8 |
| 20260901041905 | 16 | 214 | 9.7 | 22.5 | 0.00 | 0.00 | 0.00 | 76 | 1011.8 |
| 20260901041800 | 16 | 187 | 9.7 | 22.5 | 0.00 | 0.00 | 0.00 | 76 | 1011.8 |
| 20260901041701 | 16 | 230 | 9.7 | 22.5 | 0.00 | 0.00 | 0.00 | 76 | 1011.8 |
| 20260901041601 | 16 | 154 | 9.7 | 22.5 | 0.00 | 0.00 | 0.00 | 76 | 1011.7 |
| 20260901041501 | 16 | 211 | 9.7 | 22.5 | 0.00 | 0.00 | 0.00 | 76 | 1011.7 |
| 20260901041359 | 16 | 239 | 9.7 | 22.5 | 0.00 | 0.00 | 0.00 | 76 | 1011.7 |
| 20260901041255 | 16 | 226 | 9.7 | 22.5 | 0.00 | 0.00 | 0.00 | 76 | 1011.7 |
| 20260901041152 | 16 | 232 | 8.0 | 22.5 | 0.00 | 0.00 | 0.00 | 76 | 1011.7 |
| 20260901041053 | 16 | 243 | 9.7 | 19.3 | 0.00 | 0.00 | 0.00 | 76 | 1011.7 |
| 20260901040952 | 16 | 150 | 9.7 | 19.3 | 0.00 | 0.00 | 0.00 | 76 | 1011.6 |
| 20260901040853 | 16 | 185 | 9.7 | 20.9 | 0.00 | 0.00 | 0.00 | 76 | 1011.7 |
| 20260901040747 | 16 | 82 | 9.7 | 20.9 | 0.00 | 0.00 | 0.00 | 76 | 1011.7 |
| 20260901040647 | 16 | 194 | 9.7 | 20.9 | 0.00 | 0.00 | 0.00 | 76 | 1011.6 |
| 20260901040547 | 16 | 242 | 9.7 | 20.9 | 0.00 | 0.00 | 0.00 | 76 | 1011.6 |
| 20260901040447 | 16 | 240 | 9.7 | 20.9 | 0.00 | 0.00 | 0.00 | 76 | 1011.6 |
| 20260901040347 | 16 | 212 | 9.7 | 20.9 | 0.00 | 0.00 | 0.00 | 76 | 1011.6 |
| 20260901040242 | 16 | 287 | 9.7 | 20.9 | 0.00 | 0.00 | 0.00 | 76 | 1011.5 |
| 20260901040143 | 16 | 238 | 9.7 | 20.9 | 0.00 | 0.00 | 0.00 | 76 | 1011.6 |
| 20260901040042 | 16 | 253 | 9.7 | 20.9 | 0.00 | 0.00 | 0.00 | 76 | 1011.5 |
| 20260901035943 | 16 | 246 | 9.7 | 24.1 | 0.00 | 0.00 | 0.00 | 76 | 1011.5 |
| 20260901035842 | 16 | 226 | 9.7 | 24.1 | 0.00 | 0.00 | 0.00 | 76 | 1011.5 |
| 20260901035734 | 16 | 197 | 9.7 | 24.1 | 0.00 | 0.00 | 0.00 | 76 | 1011.5 |
| 20260901035635 | 16 | 264 | 9.7 | 24.1 | 0.00 | 0.00 | 0.00 | 76 | 1011.5 |
| 20260901035536 | 16 | 262 | 9.7 | 24.1 | 0.00 | 0.00 | 0.00 | 75 | 1011.5 |
| 20260901035435 | 17 | 264 | 11.3 | 24.1 | 0.00 | 0.00 | 0.00 | 75 | 1011.4 |
| 20260901035336 | 17 | 212 | 11.3 | 24.1 | 0.00 | 0.00 | 0.00 | 75 | 1011.5 |
| 20260901035229 | 17 | 246 | 11.3 | 24.1 | 0.00 | 0.00 | 0.00 | 75 | 1011.5 |
| 20260901035128 | 17 | 221 | 11.3 | 25.7 | 0.00 | 0.00 | 0.00 | 75 | 1011.4 |
| 20260901035054 | 17 | 203 | 11.3 | 25.7 | 0.00 | 0.00 | 0.00 | 75 | 1011.4 |
| 20260901035029 | 17 | 219 | 11.3 | 25.7 | 0.00 | 0.00 | 0.00 | 75 | 1011.5 |
| 20260901034944 | 17 | 266 | 11.3 | 25.7 | 0.00 | 0.00 | 0.00 | 75 | 1011.4 |
| 20260901034934 | 17 | 203 | 11.3 | 25.7 | 0.00 | 0.00 | 0.00 | 75 | 1011.4 |
| 20260901034725 | 17 | 212 | 11.3 | 25.7 | 0.00 | 0.00 | 0.00 | 75 | 1011.4 |
| 20260901034622 | 17 | 270 | 11.3 | 25.7 | 0.00 | 0.00 | 0.00 | 75 | 1011.4 |
| 20260901034524 | 17 | 242 | 11.3 | 25.7 | 0.00 | 0.00 | 0.00 | 75 | 1011.3 |
| 20260901034423 | 17 | 225 | 11.3 | 25.7 | 0.00 | 0.00 | 0.00 | 75 | 1011.3 |
| 20260901034333 | 17 | 238 | 11.3 | 25.7 | 0.00 | 0.00 | 0.00 | 75 | 1011.3 |
| 20260901034217 | 17 | 271 | 11.3 | 25.7 | 0.00 | 0.00 | 0.00 | 75 | 1011.3 |
| 20260901034117 | 17 | 229 | 11.3 | 22.5 | 0.00 | 0.00 | 0.00 | 75 | 1011.2 |
| 20260901034017 | 17 | 242 | 11.3 | 22.5 | 0.00 | 0.00 | 0.00 | 75 | 1011.2 |
| 20260901033916 | 17 | 120 | 11.3 | 24.1 | 0.00 | 0.00 | 0.00 | 75 | 1011.2 |
| 20260901033817 | 17 | 263 | 9.7 | 24.1 | 0.00 | 0.00 | 0.00 | 75 | 1011.2 |
| 20260901033711 | 17 | 235 | 11.3 | 24.1 | 0.00 | 0.00 | 0.00 | 75 | 1011.2 |
| 20260901033610 | 17 | 225 | 11.3 | 24.1 | 0.00 | 0.00 | 0.00 | 76 | 1011.2 |
| 20260901033512 | 17 | 203 | 11.3 | 24.1 | 0.00 | 0.00 | 0.00 | 76 | 1011.2 |
| 20260901033411 | 17 | 239 | 11.3 | 24.1 | 0.00 | 0.00 | 0.00 | 76 | 1011.1 |
| 20260901033312 | 17 | 240 | 11.3 | 24.1 | 0.00 | 0.00 | 0.00 | 76 | 1011.1 |
| 20260901033204 | 17 | 218 | 11.3 | 24.1 | 0.00 | 0.00 | 0.00 | 76 | 1011.1 |
| 20260901033105 | 17 | 257 | 11.3 | 24.1 | 0.00 | 0.00 | 0.00 | 76 | 1011.1 |
| 20260901033005 | 17 | 197 | 11.3 | 24.1 | 0.00 | 0.00 | 0.00 | 76 | 1011.1 |
| 20260901032905 | 17 | 260 | 11.3 | 22.5 | 0.00 | 0.00 | 0.00 | 76 | 1011.1 |
| 20260901032805 | 17 | 242 | 11.3 | 22.5 | 0.00 | 0.00 | 0.00 | 76 | 1011.0 |
| 20260901032701 | 17 | 250 | 9.7 | 22.5 | 0.00 | 0.00 | 0.00 | 75 | 1011.0 |
| 20260901032601 | 17 | 239 | 9.7 | 22.5 | 0.00 | 0.00 | 0.00 | 75 | 1011.0 |
| 20260901032517 | 17 | 226 | 9.7 | 24.1 | 0.00 | 0.00 | 0.00 | 75 | 1010.9 |
| 20260901032507 | 17 | 229 | 9.7 | 22.5 | 0.00 | 0.00 | 0.00 | 75 | 1011.0 |
| 20260901032414 | 17 | 262 | 9.7 | 22.5 | 0.00 | 0.00 | 0.00 | 75 | 1011.0 |
| 20260901032404 | 17 | 226 | 9.7 | 24.1 | 0.00 | 0.00 | 0.00 | 75 | 1010.9 |
| 20260901032157 | 17 | 250 | 9.7 | 24.1 | 0.00 | 0.00 | 0.00 | 75 | 1010.9 |
| 20260901032059 | 17 | 257 | 9.7 | 24.1 | 0.00 | 0.00 | 0.00 | 75 | 1010.9 |
| 20260901031958 | 17 | 263 | 9.7 | 24.1 | 0.00 | 0.00 | 0.00 | 75 | 1010.9 |
| 20260901031852 | 17 | 242 | 9.7 | 24.1 | 0.00 | 0.00 | 0.00 | 75 | 1010.9 |
| 20260901031754 | 17 | 259 | 9.7 | 24.1 | 0.00 | 0.00 | 0.00 | 75 | 1010.8 |
| 20260901031734 | 17 | 257 | 9.7 | 32.2 | 0.00 | 0.00 | 0.00 | 75 | 1010.8 |
| 20260901031648 | 17 | 255 | 9.7 | 24.1 | 0.00 | 0.00 | 0.00 | 75 | 1010.8 |
| 20260901031620 | 17 | 233 | 9.7 | 24.1 | 0.00 | 0.00 | 0.00 | 75 | 1010.8 |
| 20260901031449 | 17 | 253 | 9.7 | 24.1 | 0.00 | 0.00 | 0.00 | 75 | 1010.8 |
| 20260901031406 | 17 | 245 | 9.7 | 24.1 | 0.00 | 0.00 | 0.00 | 75 | 1010.8 |
| 20260901031358 | 17 | 221 | 9.7 | 32.2 | 0.00 | 0.00 | 0.00 | 75 | 1010.8 |
| 20260901031148 | 17 | 259 | 9.7 | 32.2 | 0.00 | 0.00 | 0.00 | 75 | 1010.8 |
| 20260901031049 | 17 | 253 | 9.7 | 32.2 | 0.00 | 0.00 | 0.00 | 75 | 1010.8 |
| 20260901030949 | 17 | 232 | 9.7 | 32.2 | 0.00 | 0.00 | 0.00 | 75 | 1010.8 |
| 20260901030849 | 17 | 204 | 9.7 | 32.2 | 0.00 | 0.00 | 0.00 | 75 | 1010.8 |
| 20260901030757 | 17 | 259 | 11.3 | 32.2 | 0.00 | 0.00 | 0.00 | 75 | 1010.8 |
| 20260901030746 | 17 | 246 | 11.3 | 32.2 | 0.00 | 0.00 | 0.00 | 75 | 1010.8 |
| 20260901030649 | 17 | 290 | 9.7 | 32.2 | 0.00 | 0.00 | 0.00 | 75 | 1010.8 |
| 20260901030549 | 17 | 217 | 9.7 | 32.2 | 0.00 | 0.00 | 0.00 | 75 | 1010.8 |
| 20260901030449 | 17 | 245 | 9.7 | 32.2 | 0.00 | 0.00 | 0.00 | 75 | 1010.7 |
| 20260901030349 | 17 | 233 | 9.7 | 32.2 | 0.00 | 0.00 | 0.00 | 75 | 1010.8 |
| 20260901030248 | 17 | 219 | 11.3 | 0.0 | 0.00 | 0.00 | 0.00 | 75 | 1010.8 |
| 20260901030137 | 17 | 236 | 9.7 | 27.4 | 0.00 | 0.00 | 0.00 | 75 | 1010.7 |
| 20260901030037 | 17 | 219 | 11.3 | 27.4 | 0.00 | 0.00 | 0.00 | 75 | 1010.7 |
| 20260901025937 | 17 | 245 | 11.3 | 27.4 | 0.00 | 0.00 | 0.00 | 75 | 1010.7 |
| 20260901025923 | 17 | 134 | 11.3 | 27.4 | 0.00 | 0.00 | 0.00 | 74 | 1010.7 |
| 20260901025836 | 17 | 241 | 9.7 | 25.7 | 0.00 | 0.00 | 0.00 | 74 | 1010.7 |
| 20260901025735 | 17 | 256 | 9.7 | 25.7 | 0.00 | 0.00 | 0.00 | 74 | 1010.7 |
| 20260901025630 | 17 | 210 | 9.7 | 25.7 | 0.00 | 0.00 | 0.00 | 74 | 1010.7 |
| 20260901025531 | 17 | 253 | 11.3 | 25.7 | 0.00 | 0.00 | 0.00 | 74 | 1010.7 |
| 20260901025431 | 17 | 243 | 11.3 | 25.7 | 0.00 | 0.00 | 0.00 | 74 | 1010.7 |
| 20260901025417 | 17 | 262 | 11.3 | 25.7 | 0.00 | 0.00 | 0.00 | 74 | 1010.7 |
| 20260901025330 | 17 | 235 | 11.3 | 25.7 | 0.00 | 0.00 | 0.00 | 74 | 1010.7 |
| 20260901025230 | 17 | 231 | 11.3 | 24.1 | 0.00 | 0.00 | 0.00 | 74 | 1010.8 |
| 20260901025126 | 17 | 212 | 9.7 | 22.5 | 0.00 | 0.00 | 0.00 | 74 | 1010.7 |
| 20260901025025 | 17 | 278 | 9.7 | 22.5 | 0.00 | 0.00 | 0.00 | 74 | 1010.7 |
| 20260901024924 | 17 | 240 | 9.7 | 22.5 | 0.00 | 0.00 | 0.00 | 74 | 1010.7 |
| 20260901024912 | 17 | 195 | 9.7 | 22.5 | 0.00 | 0.00 | 0.00 | 74 | 1010.7 |
| 20260901024825 | 17 | 255 | 9.7 | 22.5 | 0.00 | 0.00 | 0.00 | 74 | 1010.7 |
| 20260901024726 | 17 | 256 | 11.3 | 24.1 | 0.00 | 0.00 | 0.00 | 74 | 1010.7 |
| 20260901024619 | 17 | 193 | 11.3 | 24.1 | 0.00 | 0.00 | 0.00 | 74 | 1010.7 |
| 20260901024519 | 17 | 217 | 11.3 | 24.1 | 0.00 | 0.00 | 0.00 | 74 | 1010.7 |
| 20260901024418 | 17 | 236 | 11.3 | 24.1 | 0.00 | 0.00 | 0.00 | 73 | 1010.6 |
| 20260901024406 | 17 | 228 | 9.7 | 24.1 | 0.00 | 0.00 | 0.00 | 73 | 1010.8 |
| 20260901024319 | 17 | 262 | 9.7 | 24.1 | 0.00 | 0.00 | 0.00 | 73 | 1010.8 |
| 20260901024218 | 17 | 269 | 9.7 | 24.1 | 0.00 | 0.00 | 0.00 | 73 | 1010.7 |
| 20260901024113 | 18 | 214 | 9.7 | 24.1 | 0.00 | 0.00 | 0.00 | 73 | 1010.6 |
| 20260901024012 | 18 | 250 | 11.3 | 24.1 | 0.00 | 0.00 | 0.00 | 73 | 1010.7 |
| 20260901023912 | 18 | 222 | 11.3 | 24.1 | 0.00 | 0.00 | 0.00 | 73 | 1010.7 |
| 20260901023859 | 18 | 288 | 11.3 | 24.1 | 0.00 | 0.00 | 0.00 | 73 | 1010.7 |
| 20260901023813 | 18 | 250 | 11.3 | 24.1 | 0.00 | 0.00 | 0.00 | 73 | 1010.7 |
| 20260901023711 | 18 | 232 | 9.7 | 24.1 | 0.00 | 0.00 | 0.00 | 73 | 1010.7 |
| 20260901023607 | 18 | 229 | 11.3 | 24.1 | 0.00 | 0.00 | 0.00 | 73 | 1010.6 |
| 20260901023508 | 18 | 230 | 11.3 | 24.1 | 0.00 | 0.00 | 0.00 | 73 | 1010.7 |
| 20260901023407 | 18 | 187 | 11.3 | 24.1 | 0.00 | 0.00 | 0.00 | 72 | 1010.7 |
| 20260901023353 | 18 | 200 | 11.3 | 24.1 | 0.00 | 0.00 | 0.00 | 72 | 1010.7 |
| 20260901023306 | 18 | 235 | 11.3 | 24.1 | 0.00 | 0.00 | 0.00 | 72 | 1010.6 |
| 20260901023205 | 18 | 260 | 11.3 | 24.1 | 0.00 | 0.00 | 0.00 | 72 | 1010.6 |
| 20260901023100 | 18 | 274 | 11.3 | 24.1 | 0.00 | 0.00 | 0.00 | 72 | 1010.7 |
| 20260901023000 | 18 | 292 | 9.7 | 24.1 | 0.00 | 0.00 | 0.00 | 72 | 1010.6 |
| 20260901022900 | 18 | 245 | 11.3 | 24.1 | 0.00 | 0.00 | 0.00 | 72 | 1010.6 |
| 20260901022847 | 18 | 243 | 11.3 | 24.1 | 0.00 | 0.00 | 0.00 | 72 | 1010.6 |
| 20260901022800 | 18 | 253 | 11.3 | 24.1 | 0.00 | 0.00 | 0.00 | 72 | 1010.6 |
| 20260901022700 | 18 | 269 | 9.7 | 24.1 | 0.00 | 0.00 | 0.00 | 72 | 1010.7 |
| 20260901022555 | 18 | 256 | 9.7 | 24.1 | 0.00 | 0.00 | 0.00 | 72 | 1010.6 |
| 20260901022454 | 18 | 270 | 9.7 | 24.1 | 0.00 | 0.00 | 0.00 | 72 | 1010.6 |
| 20260901022354 | 18 | 219 | 9.7 | 29.0 | 0.00 | 0.00 | 0.00 | 72 | 1010.6 |
| 20260901022342 | 18 | 264 | 9.7 | 29.0 | 0.00 | 0.00 | 0.00 | 71 | 1010.6 |
| 20260901022254 | 18 | 232 | 9.7 | 30.6 | 0.00 | 0.00 | 0.00 | 71 | 1010.6 |
| 20260901022154 | 18 | 283 | 9.7 | 30.6 | 0.00 | 0.00 | 0.00 | 71 | 1010.6 |
| 20260901022048 | 18 | 232 | 9.7 | 30.6 | 0.00 | 0.00 | 0.00 | 71 | 1010.6 |
| 20260901021948 | 18 | 245 | 11.3 | 30.6 | 0.00 | 0.00 | 0.00 | 71 | 1010.6 |
| 20260901021848 | 18 | 243 | 11.3 | 30.6 | 0.00 | 0.00 | 0.00 | 71 | 1010.6 |
| 20260901021835 | 18 | 245 | 11.3 | 30.6 | 0.00 | 0.00 | 0.00 | 71 | 1010.6 |
| 20260901021749 | 18 | 238 | 9.7 | 30.6 | 0.00 | 0.00 | 0.00 | 71 | 1010.6 |
| 20260901021650 | 18 | 256 | 9.7 | 30.6 | 0.00 | 0.00 | 0.00 | 71 | 1010.5 |
| 20260901021545 | 18 | 238 | 9.7 | 30.6 | 0.00 | 0.00 | 0.00 | 71 | 1010.5 |
| 20260901021443 | 18 | 232 | 9.7 | 30.6 | 0.00 | 0.00 | 0.00 | 70 | 1010.6 |
| 20260901021343 | 18 | 240 | 9.7 | 30.6 | 0.00 | 0.00 | 0.00 | 70 | 1010.6 |
| 20260901021329 | 18 | 280 | 9.7 | 30.6 | 0.00 | 0.00 | 0.00 | 70 | 1010.6 |
| 20260901021243 | 18 | 229 | 9.7 | 25.7 | 0.00 | 0.00 | 0.00 | 70 | 1010.7 |
| 20260901021142 | 18 | 219 | 9.7 | 32.2 | 0.00 | 0.00 | 0.00 | 70 | 1010.6 |
| 20260901021036 | 18 | 211 | 11.3 | 32.2 | 0.00 | 0.00 | 0.00 | 70 | 1010.6 |
| 20260901020936 | 18 | 224 | 11.3 | 32.2 | 0.00 | 0.00 | 0.00 | 70 | 1010.6 |
| 20260901020837 | 18 | 257 | 11.3 | 32.2 | 0.00 | 0.00 | 0.00 | 70 | 1010.6 |
| 20260901020829 | 18 | 214 | 11.3 | 32.2 | 0.00 | 0.00 | 0.00 | 70 | 1010.6 |
| 20260901020737 | 18 | 263 | 11.3 | 32.2 | 0.00 | 0.00 | 0.00 | 70 | 1010.5 |
| 20260901020636 | 18 | 245 | 11.3 | 32.2 | 0.00 | 0.00 | 0.00 | 69 | 1010.6 |
| 20260901020531 | 19 | 256 | 11.3 | 32.2 | 0.00 | 0.00 | 0.00 | 69 | 1010.6 |
| 20260901020431 | 19 | 243 | 11.3 | 32.2 | 0.00 | 0.00 | 0.00 | 69 | 1010.6 |
| 20260901020330 | 19 | 257 | 11.3 | 32.2 | 0.00 | 0.00 | 0.00 | 69 | 1010.6 |
| 20260901020317 | 19 | 236 | 11.3 | 32.2 | 0.00 | 0.00 | 0.00 | 69 | 1010.6 |
| 20260901020231 | 19 | 250 | 9.7 | 32.2 | 0.00 | 0.00 | 0.00 | 69 | 1010.6 |
| 20260901020130 | 19 | 238 | 9.7 | 29.0 | 0.00 | 0.00 | 0.00 | 69 | 1010.6 |
| 20260901020026 | 19 | 266 | 9.7 | 29.0 | 0.00 | 0.00 | 0.00 | 69 | 1010.6 |
| 20260901015925 | 19 | 291 | 9.7 | 29.0 | 0.00 | 0.00 | 0.00 | 69 | 1010.5 |
| 20260901015824 | 19 | 212 | 9.7 | 25.7 | 0.00 | 0.00 | 0.00 | 68 | 1010.5 |
| 20260901015813 | 19 | 264 | 9.7 | 25.7 | 0.00 | 0.00 | 0.00 | 68 | 1010.5 |
| 20260901015725 | 19 | 187 | 9.7 | 25.7 | 0.00 | 0.00 | 0.00 | 68 | 1010.5 |
| 20260901015624 | 19 | 221 | 9.7 | 25.7 | 0.00 | 0.00 | 0.00 | 68 | 1010.5 |
| 20260901015519 | 19 | 274 | 9.7 | 25.7 | 0.00 | 0.00 | 0.00 | 68 | 1010.4 |
| 20260901015419 | 19 | 153 | 9.7 | 25.7 | 0.00 | 0.00 | 0.00 | 68 | 1010.4 |
| 20260901015319 | 19 | 289 | 8.0 | 25.7 | 0.00 | 0.00 | 0.00 | 68 | 1010.4 |
| 20260901015306 | 19 | 222 | 8.0 | 25.7 | 0.00 | 0.00 | 0.00 | 68 | 1010.4 |
| 20260901015218 | 19 | 193 | 8.0 | 25.7 | 0.00 | 0.00 | 0.00 | 68 | 1010.4 |
| 20260901015117 | 20 | 256 | 8.0 | 25.7 | 0.00 | 0.00 | 0.00 | 67 | 1010.4 |
| 20260901015013 | 20 | 262 | 8.0 | 24.1 | 0.00 | 0.00 | 0.00 | 67 | 1010.4 |
| 20260901014913 | 20 | 256 | 8.0 | 24.1 | 0.00 | 0.00 | 0.00 | 67 | 1010.4 |
| 20260901014812 | 20 | 281 | 9.7 | 24.1 | 0.00 | 0.00 | 0.00 | 67 | 1010.4 |
| 20260901014800 | 20 | 228 | 8.0 | 24.1 | 0.00 | 0.00 | 0.00 | 67 | 1010.4 |
| 20260901014712 | 20 | 226 | 8.0 | 24.1 | 0.00 | 0.00 | 0.00 | 67 | 1010.4 |
| 20260901014611 | 20 | 253 | 9.7 | 24.1 | 0.00 | 0.00 | 0.00 | 67 | 1010.4 |
| 20260901014517 | 20 | 248 | 9.7 | 24.1 | 0.00 | 0.00 | 0.00 | 66 | 1010.4 |
| 20260901014507 | 20 | 240 | 9.7 | 24.1 | 0.00 | 0.00 | 0.00 | 67 | 1010.4 |
| 20260901014408 | 20 | 246 | 9.7 | 24.1 | 0.00 | 0.00 | 0.00 | 67 | 1010.3 |
| 20260901014400 | 20 | 253 | 9.7 | 24.1 | 0.00 | 0.00 | 0.00 | 66 | 1010.4 |
| 20260901014206 | 20 | 262 | 9.7 | 24.1 | 0.00 | 0.00 | 0.00 | 66 | 1010.4 |
| 20260901014105 | 20 | 284 | 9.7 | 24.1 | 0.00 | 0.00 | 0.00 | 66 | 1010.4 |
| 20260901014002 | 20 | 224 | 8.0 | 22.5 | 0.00 | 0.00 | 0.00 | 66 | 1010.4 |
| 20260901013902 | 20 | 243 | 8.0 | 22.5 | 0.00 | 0.00 | 0.00 | 66 | 1010.4 |
| 20260901013803 | 20 | 239 | 8.0 | 22.5 | 0.00 | 0.00 | 0.00 | 66 | 1010.4 |
| 20260901013748 | 20 | 230 | 8.0 | 22.5 | 0.00 | 0.00 | 0.00 | 66 | 1010.4 |
| 20260901013702 | 20 | 253 | 6.4 | 22.5 | 0.00 | 0.00 | 0.00 | 66 | 1010.4 |
| 20260901013600 | 20 | 200 | 6.4 | 22.5 | 0.00 | 0.00 | 0.00 | 65 | 1010.3 |
| 20260901013454 | 20 | 280 | 6.4 | 22.5 | 0.00 | 0.00 | 0.00 | 65 | 1010.3 |
| 20260901013355 | 20 | 263 | 6.4 | 20.9 | 0.00 | 0.00 | 0.00 | 65 | 1010.3 |
| 20260901013255 | 20 | 278 | 6.4 | 19.3 | 0.00 | 0.00 | 0.00 | 65 | 1010.3 |
| 20260901013241 | 20 | 267 | 6.4 | 19.3 | 0.00 | 0.00 | 0.00 | 65 | 1010.3 |
| 20260901013154 | 20 | 238 | 6.4 | 19.3 | 0.00 | 0.00 | 0.00 | 65 | 1010.3 |
| 20260901013053 | 20 | 340 | 6.4 | 19.3 | 0.00 | 0.00 | 0.00 | 64 | 1010.3 |
| 20260901012948 | 20 | 229 | 6.4 | 19.3 | 0.00 | 0.00 | 0.00 | 64 | 1010.3 |
| 20260901012849 | 20 | 231 | 6.4 | 19.3 | 0.00 | 0.00 | 0.00 | 64 | 1010.3 |
| 20260901012748 | 20 | 307 | 8.0 | 19.3 | 0.00 | 0.00 | 0.00 | 64 | 1010.3 |
| 20260901012735 | 20 | 317 | 8.0 | 19.3 | 0.00 | 0.00 | 0.00 | 64 | 1010.3 |
| 20260901012649 | 20 | 157 | 8.0 | 20.9 | 0.00 | 0.00 | 0.00 | 64 | 1010.3 |
| 20260901012548 | 20 | 246 | 8.0 | 20.9 | 0.00 | 0.00 | 0.00 | 64 | 1010.3 |
| 20260901012444 | 20 | 288 | 8.0 | 20.9 | 0.00 | 0.00 | 0.00 | 65 | 1010.3 |
| 20260901012342 | 20 | 236 | 6.4 | 20.9 | 0.00 | 0.00 | 0.00 | 65 | 1010.3 |
| 20260901012244 | 20 | 188 | 6.4 | 20.9 | 0.00 | 0.00 | 0.00 | 65 | 1010.3 |
| 20260901012234 | 20 | 246 | 6.4 | 20.9 | 0.00 | 0.00 | 0.00 | 65 | 1010.3 |
| 20260901012142 | 20 | 273 | 6.4 | 20.9 | 0.00 | 0.00 | 0.00 | 65 | 1010.2 |
| 20260901012042 | 20 | 263 | 6.4 | 20.9 | 0.00 | 0.00 | 0.00 | 64 | 1010.2 |
| 20260901011937 | 20 | 257 | 6.4 | 20.9 | 0.00 | 0.00 | 0.00 | 65 | 1010.2 |
| 20260901011837 | 20 | 238 | 8.0 | 20.9 | 0.00 | 0.00 | 0.00 | 64 | 1010.2 |
| 20260901011737 | 20 | 249 | 6.4 | 20.9 | 0.00 | 0.00 | 0.00 | 64 | 1010.2 |
| 20260901011727 | 20 | 207 | 6.4 | 20.9 | 0.00 | 0.00 | 0.00 | 64 | 1010.2 |
| 20260901011637 | 20 | 223 | 6.4 | 19.3 | 0.00 | 0.00 | 0.00 | 64 | 1010.2 |
| 20260901011537 | 20 | 229 | 6.4 | 19.3 | 0.00 | 0.00 | 0.00 | 64 | 1010.2 |
| 20260901011430 | 20 | 257 | 6.4 | 19.3 | 0.00 | 0.00 | 0.00 | 64 | 1010.2 |
| 20260901011330 | 21 | 270 | 8.0 | 19.3 | 0.00 | 0.00 | 0.00 | 64 | 1010.2 |
| 20260901011230 | 21 | 250 | 8.0 | 19.3 | 0.00 | 0.00 | 0.00 | 64 | 1010.3 |
| 20260901011218 | 21 | 236 | 8.0 | 19.3 | 0.00 | 0.00 | 0.00 | 64 | 1010.2 |
| 20260901011131 | 21 | 231 | 8.0 | 19.3 | 0.00 | 0.00 | 0.00 | 64 | 1010.2 |
| 20260901011030 | 21 | 242 | 8.0 | 19.3 | 0.00 | 0.00 | 0.00 | 64 | 1010.2 |
| 20260901010927 | 21 | 243 | 9.7 | 20.9 | 0.00 | 0.00 | 0.00 | 63 | 1010.3 |
| 20260901010824 | 21 | 224 | 9.7 | 24.1 | 0.00 | 0.00 | 0.00 | 63 | 1010.3 |
| 20260901010724 | 21 | 217 | 9.7 | 24.1 | 0.00 | 0.00 | 0.00 | 63 | 1010.3 |
| 20260901010711 | 21 | 246 | 9.7 | 24.1 | 0.00 | 0.00 | 0.00 | 63 | 1010.3 |
| 20260901010625 | 21 | 253 | 9.7 | 24.1 | 0.00 | 0.00 | 0.00 | 63 | 1010.3 |
| 20260901010524 | 21 | 278 | 11.3 | 24.1 | 0.00 | 0.00 | 0.00 | 63 | 1010.3 |
| 20260901010419 | 21 | 233 | 11.3 | 29.0 | 0.00 | 0.00 | 0.00 | 62 | 1010.3 |
| 20260901010318 | 21 | 203 | 11.3 | 29.0 | 0.00 | 0.00 | 0.00 | 62 | 1010.2 |
| 20260901010218 | 21 | 228 | 11.3 | 29.0 | 0.00 | 0.00 | 0.00 | 62 | 1010.2 |
| 20260901010205 | 21 | 226 | 9.7 | 29.0 | 0.00 | 0.00 | 0.00 | 62 | 1010.2 |
| 20260901010119 | 21 | 236 | 9.7 | 29.0 | 0.00 | 0.00 | 0.00 | 62 | 1010.2 |
| 20260901010018 | 21 | 211 | 9.7 | 29.0 | 0.00 | 0.00 | 0.00 | 62 | 1010.2 |
| 20260901005914 | 21 | 312 | 9.7 | 29.0 | 0.00 | 0.00 | 0.00 | 62 | 1010.2 |
| 20260901005812 | 21 | 255 | 8.0 | 29.0 | 0.00 | 0.00 | 0.00 | 61 | 1010.2 |
| 20260901005714 | 21 | 207 | 8.0 | 29.0 | 0.00 | 0.00 | 0.00 | 61 | 1010.2 |
| 20260901005700 | 21 | 248 | 8.0 | 29.0 | 0.00 | 0.00 | 0.00 | 61 | 1010.2 |
| 20260901005613 | 21 | 239 | 8.0 | 29.0 | 0.00 | 0.00 | 0.00 | 61 | 1010.1 |
| 20260901005512 | 21 | 242 | 6.4 | 29.0 | 0.00 | 0.00 | 0.00 | 61 | 1010.2 |
| 20260901005415 | 21 | 228 | 6.4 | 24.1 | 0.00 | 0.00 | 0.00 | 61 | 1010.2 |
| 20260901005406 | 21 | 222 | 6.4 | 19.3 | 0.00 | 0.00 | 0.00 | 61 | 1010.2 |
| 20260901005307 | 21 | 300 | 6.4 | 19.3 | 0.00 | 0.00 | 0.00 | 61 | 1010.2 |
| 20260901005207 | 21 | 238 | 6.4 | 24.1 | 0.00 | 0.00 | 0.00 | 61 | 1010.2 |
| 20260901005106 | 21 | 252 | 6.4 | 24.1 | 0.00 | 0.00 | 0.00 | 61 | 1010.2 |
| 20260901005008 | 21 | 242 | 8.0 | 24.1 | 0.00 | 0.00 | 0.00 | 61 | 1010.1 |
| 20260901004904 | 21 | 239 | 8.0 | 24.1 | 0.00 | 0.00 | 0.00 | 61 | 1010.1 |
| 20260901004804 | 21 | 232 | 8.0 | 24.1 | 0.00 | 0.00 | 0.00 | 61 | 1010.1 |
| 20260901004704 | 21 | 211 | 8.0 | 24.1 | 0.00 | 0.00 | 0.00 | 61 | 1010.1 |
| 20260901004648 | 21 | 263 | 8.0 | 24.1 | 0.00 | 0.00 | 0.00 | 61 | 1010.1 |
| 20260901004602 | 21 | 226 | 8.0 | 24.1 | 0.00 | 0.00 | 0.00 | 61 | 1010.2 |
| 20260901004500 | 21 | 308 | 8.0 | 24.1 | 0.00 | 0.00 | 0.00 | 60 | 1010.2 |
| 20260901004355 | 21 | 238 | 8.0 | 24.1 | 0.00 | 0.00 | 0.00 | 60 | 1010.3 |
| 20260901004254 | 21 | 217 | 8.0 | 24.1 | 0.00 | 0.00 | 0.00 | 60 | 1010.2 |
| 20260901004154 | 21 | 228 | 6.4 | 24.1 | 0.00 | 0.00 | 0.00 | 60 | 1010.2 |
| 20260901004142 | 21 | 287 | 6.4 | 24.1 | 0.00 | 0.00 | 0.00 | 60 | 1010.2 |
| 20260901004125 | 22 | 236 | 6.4 | 24.1 | 0.00 | 0.00 | 0.00 | 59 | 1010.3 |
| 20260901004055 | 21 | 248 | 6.4 | 24.1 | 0.00 | 0.00 | 0.00 | 60 | 1010.2 |
| 20260901004008 | 22 | 270 | 8.0 | 24.1 | 0.00 | 0.00 | 0.00 | 60 | 1010.3 |
| 20260901003850 | 22 | 232 | 6.4 | 24.1 | 0.00 | 0.00 | 0.00 | 60 | 1010.2 |
| 20260901003751 | 22 | 233 | 6.4 | 24.1 | 0.00 | 0.00 | 0.00 | 59 | 1010.2 |
| 20260901003650 | 22 | 262 | 6.4 | 24.1 | 0.00 | 0.00 | 0.00 | 59 | 1010.3 |
| 20260901003550 | 22 | 245 | 8.0 | 24.1 | 0.00 | 0.00 | 0.00 | 59 | 1010.3 |
| 20260901003447 | 22 | 203 | 6.4 | 24.1 | 0.00 | 0.00 | 0.00 | 60 | 1010.3 |
| 20260901003342 | 22 | 250 | 8.0 | 24.1 | 0.00 | 0.00 | 0.00 | 60 | 1010.3 |
| 20260901003242 | 22 | 200 | 6.4 | 24.1 | 0.00 | 0.00 | 0.00 | 60 | 1010.3 |
| 20260901003143 | 22 | 295 | 6.4 | 24.1 | 0.00 | 0.00 | 0.00 | 59 | 1010.3 |
| 20260901003130 | 22 | 214 | 6.4 | 24.1 | 0.00 | 0.00 | 0.00 | 59 | 1010.3 |
| 20260901003112 | 22 | 243 | 8.0 | 24.1 | 0.00 | 0.00 | 0.00 | 59 | 1010.3 |
| 20260901003042 | 22 | 200 | 8.0 | 24.1 | 0.00 | 0.00 | 0.00 | 59 | 1010.3 |
| 20260901002956 | 22 | 215 | 6.4 | 24.1 | 0.00 | 0.00 | 0.00 | 58 | 1010.4 |
| 20260901002836 | 22 | 217 | 8.0 | 24.1 | 0.00 | 0.00 | 0.00 | 58 | 1010.3 |
| 20260901002736 | 22 | 250 | 8.0 | 24.1 | 0.00 | 0.00 | 0.00 | 58 | 1010.4 |
| 20260901002638 | 22 | 241 | 8.0 | 24.1 | 0.00 | 0.00 | 0.00 | 59 | 1010.4 |
| 20260901002536 | 22 | 208 | 8.0 | 24.1 | 0.00 | 0.00 | 0.00 | 59 | 1010.3 |
| 20260901002436 | 22 | 250 | 9.7 | 24.1 | 0.00 | 0.00 | 0.00 | 59 | 1010.3 |
| 20260901002331 | 22 | 274 | 9.7 | 24.1 | 0.00 | 0.00 | 0.00 | 59 | 1010.3 |
| 20260901002230 | 22 | 226 | 9.7 | 24.1 | 0.00 | 0.00 | 0.00 | 59 | 1010.3 |
| 20260901002130 | 22 | 204 | 9.7 | 24.1 | 0.00 | 0.00 | 0.00 | 58 | 1010.3 |
| 20260901002118 | 22 | 234 | 9.7 | 24.1 | 0.00 | 0.00 | 0.00 | 58 | 1010.3 |
| 20260901002030 | 22 | 235 | 9.7 | 24.1 | 0.00 | 0.00 | 0.00 | 58 | 1010.3 |
| 20260901001930 | 22 | 221 | 9.7 | 20.9 | 0.00 | 0.00 | 0.00 | 58 | 1010.4 |
| 20260901001824 | 22 | 241 | 9.7 | 20.9 | 0.00 | 0.00 | 0.00 | 57 | 1010.4 |
| 20260901001724 | 22 | 291 | 9.7 | 20.9 | 0.00 | 0.00 | 0.00 | 57 | 1010.4 |
| 20260901001625 | 22 | 242 | 8.0 | 20.9 | 0.00 | 0.00 | 0.00 | 57 | 1010.4 |
| 20260901001611 | 22 | 259 | 8.0 | 20.9 | 0.00 | 0.00 | 0.00 | 57 | 1010.4 |
| 20260901001524 | 22 | 255 | 8.0 | 20.9 | 0.00 | 0.00 | 0.00 | 58 | 1010.4 |
| 20260901001424 | 22 | 238 | 8.0 | 20.9 | 0.00 | 0.00 | 0.00 | 58 | 1010.4 |
| 20260901001320 | 22 | 219 | 8.0 | 20.9 | 0.00 | 0.00 | 0.00 | 58 | 1010.4 |
| 20260901001218 | 22 | 210 | 9.7 | 25.7 | 0.00 | 0.00 | 0.00 | 57 | 1010.3 |
| 20260901001119 | 22 | 240 | 8.0 | 25.7 | 0.00 | 0.00 | 0.00 | 58 | 1010.3 |
| 20260901001106 | 22 | 259 | 8.0 | 25.7 | 0.00 | 0.00 | 0.00 | 58 | 1010.3 |
| 20260901001019 | 22 | 260 | 8.0 | 25.7 | 0.00 | 0.00 | 0.00 | 58 | 1010.3 |
| 20260901000918 | 22 | 235 | 8.0 | 25.7 | 0.00 | 0.00 | 0.00 | 57 | 1010.3 |
| 20260901000812 | 22 | 235 | 8.0 | 25.7 | 0.00 | 0.00 | 0.00 | 57 | 1010.4 |
| 20260901000715 | 22 | 245 | 8.0 | 25.7 | 0.00 | 0.00 | 0.00 | 57 | 1010.3 |
| 20260901000612 | 22 | 253 | 9.7 | 25.7 | 0.00 | 0.00 | 0.00 | 57 | 1010.4 |
| 20260901000559 | 22 | 226 | 9.7 | 25.7 | 0.00 | 0.00 | 0.00 | 57 | 1010.4 |
| 20260901000512 | 22 | 239 | 9.7 | 25.7 | 0.00 | 0.00 | 0.00 | 57 | 1010.4 |
| 20260901000413 | 22 | 219 | 9.7 | 25.7 | 0.00 | 0.00 | 0.00 | 57 | 1010.3 |
| 20260901000306 | 22 | 231 | 8.0 | 25.7 | 0.00 | 0.00 | 0.00 | 57 | 1010.4 |
| 20260901000207 | 22 | 238 | 9.7 | 20.9 | 0.00 | 0.00 | 0.00 | 58 | 1010.2 |
| 20260901000113 | 22 | 208 | 9.7 | 20.9 | 0.00 | 0.00 | 0.00 | 57 | 1010.3 |
| 20260901000107 | 22 | 264 | 9.7 | 20.9 | 0.00 | 0.00 | 0.00 | 57 | 1010.3 |
| 20260901000008 | 22 | 248 | 9.7 | 20.9 | 0.00 | 0.00 | 0.00 | 56 | 1010.3 |
| 20260831235906 | 22 | 241 | 9.7 | 20.9 | 0.00 | 0.00 | 0.00 | 56 | 1010.3 |
| 20260831235802 | 22 | 222 | 8.0 | 20.9 | 0.00 | 0.00 | 0.00 | 56 | 1010.3 |
| 20260831235701 | 22 | 233 | 8.0 | 20.9 | 0.00 | 0.00 | 0.00 | 56 | 1010.3 |
| 20260831235600 | 22 | 245 | 8.0 | 20.9 | 0.00 | 0.00 | 0.00 | 56 | 1010.3 |
| 20260831235547 | 22 | 252 | 8.0 | 20.9 | 0.00 | 0.00 | 0.00 | 56 | 1010.3 |
| 20260831235500 | 22 | 273 | 8.0 | 20.9 | 0.00 | 0.00 | 0.00 | 57 | 1010.3 |
| 20260831235400 | 22 | 270 | 8.0 | 22.5 | 0.00 | 0.00 | 0.00 | 56 | 1010.3 |
| 20260831235255 | 22 | 238 | 8.0 | 22.5 | 0.00 | 0.00 | 0.00 | 55 | 1010.3 |
| 20260831235154 | 22 | 274 | 6.4 | 22.5 | 0.00 | 0.00 | 0.00 | 56 | 1010.3 |
| 20260831235054 | 23 | 233 | 6.4 | 24.1 | 0.00 | 0.00 | 0.00 | 56 | 1010.3 |
| 20260831235044 | 23 | 248 | 6.4 | 24.1 | 0.00 | 0.00 | 0.00 | 56 | 1010.3 |
| 20260831234954 | 23 | 228 | 8.0 | 24.1 | 0.00 | 0.00 | 0.00 | 56 | 1010.4 |
| 20260831234854 | 23 | 288 | 8.0 | 24.1 | 0.00 | 0.00 | 0.00 | 56 | 1010.4 |
| 20260831234756 | 23 | 248 | 8.0 | 24.1 | 0.00 | 0.00 | 0.00 | 55 | 1010.4 |
| 20260831234751 | 23 | 278 | 8.0 | 24.1 | 0.00 | 0.00 | 0.00 | 56 | 1010.3 |
| 20260831234652 | 23 | 256 | 8.0 | 24.1 | 0.00 | 0.00 | 0.00 | 56 | 1010.3 |
| 20260831234641 | 23 | 259 | 8.0 | 24.1 | 0.00 | 0.00 | 0.00 | 55 | 1010.4 |
| 20260831234450 | 23 | 212 | 8.0 | 24.1 | 0.00 | 0.00 | 0.00 | 55 | 1010.4 |
| 20260831234348 | 23 | 262 | 9.7 | 24.1 | 0.00 | 0.00 | 0.00 | 55 | 1010.4 |
| 20260831234242 | 23 | 239 | 9.7 | 24.1 | 0.00 | 0.00 | 0.00 | 55 | 1010.4 |
| 20260831234142 | 23 | 241 | 8.0 | 24.1 | 0.00 | 0.00 | 0.00 | 55 | 1010.5 |
| 20260831234043 | 23 | 259 | 8.0 | 20.9 | 0.00 | 0.00 | 0.00 | 55 | 1010.5 |
| 20260831234030 | 23 | 214 | 8.0 | 20.9 | 0.00 | 0.00 | 0.00 | 55 | 1010.5 |
| 20260831233942 | 23 | 231 | 8.0 | 20.9 | 0.00 | 0.00 | 0.00 | 55 | 1010.4 |
| 20260831233842 | 23 | 221 | 8.0 | 20.9 | 0.00 | 0.00 | 0.00 | 55 | 1010.4 |
| 20260831233739 | 23 | 228 | 8.0 | 20.9 | 0.00 | 0.00 | 0.00 | 55 | 1010.4 |
| 20260831233639 | 23 | 212 | 8.0 | 22.5 | 0.00 | 0.00 | 0.00 | 55 | 1010.4 |
| 20260831233538 | 23 | 207 | 8.0 | 22.5 | 0.00 | 0.00 | 0.00 | 55 | 1010.5 |
| 20260831233527 | 23 | 152 | 8.0 | 22.5 | 0.00 | 0.00 | 0.00 | 55 | 1010.5 |
| 20260831233438 | 23 | 226 | 8.0 | 22.5 | 0.00 | 0.00 | 0.00 | 55 | 1010.4 |
| 20260831233335 | 23 | 204 | 8.0 | 22.5 | 0.00 | 0.00 | 0.00 | 55 | 1010.5 |
| 20260831233232 | 23 | 284 | 8.0 | 22.5 | 0.00 | 0.00 | 0.00 | 55 | 1010.4 |
| 20260831233131 | 23 | 246 | 8.0 | 22.5 | 0.00 | 0.00 | 0.00 | 56 | 1010.4 |
| 20260831233030 | 23 | 233 | 8.0 | 22.5 | 0.00 | 0.00 | 0.00 | 55 | 1010.4 |
| 20260831233020 | 23 | 201 | 8.0 | 22.5 | 0.00 | 0.00 | 0.00 | 56 | 1010.5 |
| 20260831232930 | 23 | 224 | 8.0 | 22.5 | 0.00 | 0.00 | 0.00 | 56 | 1010.5 |
| 20260831232831 | 23 | 288 | 8.0 | 22.5 | 0.00 | 0.00 | 0.00 | 55 | 1010.5 |
| 20260831232725 | 23 | 215 | 9.7 | 20.9 | 0.00 | 0.00 | 0.00 | 56 | 1010.5 |
| 20260831232624 | 23 | 231 | 9.7 | 20.9 | 0.00 | 0.00 | 0.00 | 56 | 1010.5 |
| 20260831232528 | 23 | 301 | 9.7 | 20.9 | 0.00 | 0.00 | 0.00 | 56 | 1010.5 |
| 20260831232521 | 23 | 256 | 9.7 | 20.9 | 0.00 | 0.00 | 0.00 | 55 | 1010.6 |
| 20260831232425 | 23 | 236 | 9.7 | 20.9 | 0.00 | 0.00 | 0.00 | 55 | 1010.6 |
| 20260831232324 | 23 | 252 | 8.0 | 20.9 | 0.00 | 0.00 | 0.00 | 56 | 1010.6 |
| 20260831232220 | 23 | 278 | 8.0 | 20.9 | 0.00 | 0.00 | 0.00 | 56 | 1010.6 |
| 20260831232118 | 23 | 242 | 9.7 | 20.9 | 0.00 | 0.00 | 0.00 | 56 | 1010.6 |
| 20260831232018 | 23 | 245 | 9.7 | 20.9 | 0.00 | 0.00 | 0.00 | 56 | 1010.6 |
| 20260831232010 | 23 | 233 | 9.7 | 20.9 | 0.00 | 0.00 | 0.00 | 56 | 1010.6 |
| 20260831231918 | 23 | 222 | 9.7 | 20.9 | 0.00 | 0.00 | 0.00 | 56 | 1010.6 |
| 20260831231817 | 23 | 232 | 9.7 | 20.9 | 0.00 | 0.00 | 0.00 | 55 | 1010.7 |
| 20260831231712 | 23 | 238 | 8.0 | 20.9 | 0.00 | 0.00 | 0.00 | 55 | 1010.7 |
| 20260831231612 | 23 | 253 | 8.0 | 17.7 | 0.00 | 0.00 | 0.00 | 56 | 1010.7 |
| 20260831231513 | 23 | 231 | 9.7 | 17.7 | 0.00 | 0.00 | 0.00 | 56 | 1010.7 |
| 20260831231502 | 23 | 231 | 9.7 | 17.7 | 0.00 | 0.00 | 0.00 | 56 | 1010.7 |
| 20260831231413 | 23 | 233 | 9.7 | 17.7 | 0.00 | 0.00 | 0.00 | 56 | 1010.7 |
| 20260831231312 | 23 | 225 | 9.7 | 17.7 | 0.00 | 0.00 | 0.00 | 55 | 1010.7 |
| 20260831231207 | 23 | 219 | 9.7 | 17.7 | 0.00 | 0.00 | 0.00 | 55 | 1010.7 |